Wetterdaten: Mittwoch, 02.08.2017
Datum Zeit Temp. A. Pool Temp. Feuchte A. Luftdruck Regen Wind Richtung Richtung Sonnenschein ET UV Solar Taupunkt Windchill Windben Empfang
02.08.2017 00:00 27,3 C 26,7 C 54 % 1015,1 hPa 0,0 l/m 27,5 km/h (4 Bft) W-SW 248 0 min 0,000 mm 0,0 UV-I 0 W/m 17,2 C 25,1 C 49,9 km/h (6 Bft) 100,00 %
02.08.2017 00:02 27,3 C 26,7 C 54 % 1015,3 hPa 0,0 l/m 40,6 km/h (6 Bft) W-NW 290 0 min 0,000 mm 0,0 UV-I 0 W/m 17,2 C 24,5 C 62,8 km/h (8 Bft) 97,37 %
02.08.2017 00:04 27,2 C 26,7 C 55 % 1015,3 hPa 0,0 l/m 28,3 km/h (4 Bft) W-SW 250 0 min 0,000 mm 0,0 UV-I 0 W/m 17,4 C 24,9 C 45,1 km/h (6 Bft) 100,00 %
02.08.2017 00:06 27,1 C 26,7 C 56 % 1015,4 hPa 0,0 l/m 26,6 km/h (4 Bft) W-SW 258 0 min 0,000 mm 0,0 UV-I 0 W/m 17,5 C 24,9 C 38,6 km/h (5 Bft) 98,21 %
02.08.2017 00:08 26,9 C 26,7 C 56 % 1015,3 hPa 0,0 l/m 23,8 km/h (4 Bft) W 262 0 min 0,000 mm 0,0 UV-I 0 W/m 17,4 C 24,8 C 46,7 km/h (6 Bft) 100,00 %
02.08.2017 00:10 26,8 C 26,7 C 57 % 1015,4 hPa 0,0 l/m 19,5 km/h (3 Bft) W 263 0 min 0,000 mm 0,0 UV-I 0 W/m 17,6 C 25,0 C 32,2 km/h (5 Bft) 100,00 %
02.08.2017 00:12 26,6 C 26,7 C 59 % 1015,5 hPa 0,0 l/m 29,3 km/h (5 Bft) W-SW 244 0 min 0,000 mm 0,0 UV-I 0 W/m 17,9 C 24,0 C 49,9 km/h (6 Bft) 100,00 %
02.08.2017 00:14 26,4 C 26,7 C 60 % 1015,6 hPa 0,0 l/m 19,6 km/h (3 Bft) W-SW 258 0 min 0,000 mm 0,0 UV-I 0 W/m 18,0 C 24,5 C 30,6 km/h (5 Bft) 97,73 %
02.08.2017 00:16 26,2 C 26,7 C 61 % 1015,6 hPa 0,0 l/m 16,4 km/h (3 Bft) W-SW 253 0 min 0,000 mm 0,0 UV-I 0 W/m 18,1 C 24,6 C 25,7 km/h (4 Bft) 100,00 %
02.08.2017 00:18 26,0 C 26,7 C 62 % 1015,5 hPa 0,0 l/m 18,6 km/h (3 Bft) W 265 0 min 0,000 mm 0,0 UV-I 0 W/m 18,1 C 24,1 C 33,8 km/h (5 Bft) 98,11 %
02.08.2017 00:20 25,8 C 26,7 C 63 % 1015,3 hPa 0,0 l/m 19,8 km/h (3 Bft) W-SW 240 0 min 0,000 mm 0,0 UV-I 0 W/m 18,2 C 23,7 C 37,0 km/h (5 Bft) 100,00 %
02.08.2017 00:22 25,7 C 26,7 C 64 % 1015,3 hPa 0,0 l/m 22,5 km/h (4 Bft) W-SW 252 0 min 0,000 mm 0,0 UV-I 0 W/m 18,4 C 23,3 C 38,6 km/h (5 Bft) 100,00 %
02.08.2017 00:24 25,4 C 26,7 C 65 % 1015,3 hPa 0,0 l/m 18,9 km/h (3 Bft) SW 236 0 min 0,000 mm 0,0 UV-I 0 W/m 18,3 C 23,3 C 43,5 km/h (6 Bft) 98,11 %
02.08.2017 00:26 25,3 C 26,7 C 67 % 1015,4 hPa 0,0 l/m 16,8 km/h (3 Bft) SW 217 0 min 0,000 mm 0,0 UV-I 0 W/m 18,7 C 23,4 C 33,8 km/h (5 Bft) 100,00 %
02.08.2017 00:28 25,0 C 26,7 C 68 % 1015,5 hPa 0,0 l/m 15,2 km/h (3 Bft) W-SW 257 0 min 0,000 mm 0,0 UV-I 0 W/m 18,7 C 23,3 C 22,5 km/h (4 Bft) 97,73 %
02.08.2017 00:30 24,8 C 26,7 C 68 % 1015,5 hPa 0,0 l/m 19,2 km/h (3 Bft) W-NW 302 0 min 0,000 mm 0,0 UV-I 0 W/m 18,5 C 22,5 C 27,4 km/h (4 Bft) 97,73 %
02.08.2017 00:32 24,6 C 26,7 C 69 % 1015,4 hPa 0,0 l/m 12,9 km/h (3 Bft) SW 235 0 min 0,000 mm 0,0 UV-I 0 W/m 18,5 C 23,2 C 20,9 km/h (4 Bft) 100,00 %
02.08.2017 00:34 24,4 C 26,7 C 70 % 1015,3 hPa 0,0 l/m 12,1 km/h (2 Bft) SW 234 0 min 0,000 mm 0,0 UV-I 0 W/m 18,6 C 23,1 C 17,7 km/h (3 Bft) 96,00 %
02.08.2017 00:36 24,3 C 26,7 C 72 % 1015,1 hPa 0,0 l/m 12,1 km/h (2 Bft) W 274 0 min 0,000 mm 0,0 UV-I 0 W/m 18,9 C 23,0 C 22,5 km/h (4 Bft) 98,11 %
02.08.2017 00:38 24,2 C 26,7 C 72 % 1015,0 hPa 0,0 l/m 11,1 km/h (2 Bft) SW 225 0 min 0,000 mm 0,0 UV-I 0 W/m 18,8 C 23,0 C 17,7 km/h (3 Bft) 97,87 %
02.08.2017 00:40 24,1 C 26,7 C 72 % 1014,8 hPa 0,0 l/m 13,7 km/h (3 Bft) W 267 0 min 0,000 mm 0,0 UV-I 0 W/m 18,7 C 22,4 C 19,3 km/h (3 Bft) 97,87 %
02.08.2017 00:42 24,0 C 26,7 C 72 % 1014,3 hPa 0,0 l/m 7,5 km/h (2 Bft) NW 315 0 min 0,000 mm 0,0 UV-I 0 W/m 18,6 C 23,7 C 12,9 km/h (3 Bft) 95,74 %
02.08.2017 00:44 23,9 C 26,7 C 74 % 1013,9 hPa 0,0 l/m 3,8 km/h (1 Bft) W-NW 296 0 min 0,000 mm 0,0 UV-I 0 W/m 19,0 C 23,9 C 9,7 km/h (2 Bft) 100,00 %
02.08.2017 00:46 23,7 C 26,7 C 73 % 1013,6 hPa 0,0 l/m 6,4 km/h (2 Bft) S 182 0 min 0,000 mm 0,0 UV-I 0 W/m 18,6 C 23,7 C 11,3 km/h (2 Bft) 96,23 %
02.08.2017 00:48 23,7 C 26,7 C 75 % 1013,5 hPa 0,0 l/m 1,6 km/h (1 Bft) SW 234 0 min 0,000 mm 0,0 UV-I 0 W/m 19,0 C 23,7 C 4,8 km/h (1 Bft) 98,00 %
02.08.2017 00:50 23,6 C 26,7 C 74 % 1012,9 hPa 0,0 l/m 7,2 km/h (2 Bft) O-NO 67 0 min 0,000 mm 0,0 UV-I 0 W/m 18,7 C 23,4 C 12,9 km/h (3 Bft) 97,56 %
02.08.2017 00:52 23,5 C 26,7 C 74 % 1012,7 hPa 0,0 l/m 13,1 km/h (3 Bft) NO 44 0 min 0,000 mm 0,0 UV-I 0 W/m 18,6 C 21,8 C 17,7 km/h (3 Bft) 98,00 %
02.08.2017 00:54 23,4 C 26,7 C 75 % 1012,9 hPa 0,0 l/m 7,7 km/h (2 Bft) N 9 0 min 0,000 mm 0,0 UV-I 0 W/m 18,7 C 23,0 C 11,3 km/h (2 Bft) 95,74 %
02.08.2017 00:56 23,2 C 26,7 C 76 % 1012,9 hPa 0,0 l/m 4,8 km/h (1 Bft) N-NO 16 0 min 0,000 mm 0,0 UV-I 0 W/m 18,7 C 23,2 C 12,9 km/h (3 Bft) 97,92 %
02.08.2017 00:58 23,0 C 26,7 C 77 % 1013,1 hPa 0,0 l/m 6,6 km/h (2 Bft) N-NO 13 0 min 0,000 mm 0,0 UV-I 0 W/m 18,7 C 22,9 C 11,3 km/h (2 Bft) 97,56 %
02.08.2017 01:00 22,8 C 26,7 C 77 % 1013,7 hPa 0,0 l/m 2,4 km/h (1 Bft) W-NW 302 0 min 0,000 mm 0,0 UV-I 0 W/m 18,5 C 22,8 C 8,0 km/h (2 Bft) 96,00 %
02.08.2017 01:02 22,7 C 26,7 C 78 % 1014,1 hPa 0,0 l/m 8,0 km/h (2 Bft) N 355 0 min 0,102 mm 0,0 UV-I 0 W/m 18,7 C 22,2 C 12,9 km/h (3 Bft) 97,56 %
02.08.2017 01:04 22,7 C 26,7 C 78 % 1013,6 hPa 0,0 l/m 8,6 km/h (2 Bft) N-NO 13 0 min 0,000 mm 0,0 UV-I 0 W/m 18,7 C 22,0 C 14,5 km/h (3 Bft) 98,00 %
02.08.2017 01:06 22,7 C 26,7 C 78 % 1013,4 hPa 0,0 l/m 10,9 km/h (2 Bft) N-NO 32 0 min 0,000 mm 0,0 UV-I 0 W/m 18,7 C 21,4 C 19,3 km/h (3 Bft) 100,00 %
02.08.2017 01:08 22,6 C 26,7 C 79 % 1013,4 hPa 0,0 l/m 7,6 km/h (2 Bft) W-NW 300 0 min 0,000 mm 0,0 UV-I 0 W/m 18,8 C 22,2 C 16,1 km/h (3 Bft) 98,00 %
02.08.2017 01:10 22,6 C 26,7 C 79 % 1013,6 hPa 0,0 l/m 3,1 km/h (1 Bft) N-NW 329 0 min 0,000 mm 0,0 UV-I 0 W/m 18,8 C 22,6 C 4,8 km/h (1 Bft) 100,00 %
02.08.2017 01:12 22,6 C 26,7 C 79 % 1013,5 hPa 0,0 l/m 3,7 km/h (1 Bft) N-NO 26 0 min 0,000 mm 0,0 UV-I 0 W/m 18,8 C 22,6 C 9,7 km/h (2 Bft) 100,00 %
02.08.2017 01:14 22,5 C 26,7 C 79 % 1013,3 hPa 0,0 l/m 3,3 km/h (1 Bft) N-NW 329 0 min 0,000 mm 0,0 UV-I 0 W/m 18,7 C 22,5 C 6,4 km/h (2 Bft) 100,00 %
02.08.2017 01:16 22,4 C 26,7 C 79 % 1013,1 hPa 0,0 l/m 3,5 km/h (1 Bft) NW 321 0 min 0,000 mm 0,0 UV-I 0 W/m 18,6 C 22,4 C 6,4 km/h (2 Bft) 98,11 %
02.08.2017 01:18 22,4 C 26,7 C 80 % 1013,0 hPa 0,0 l/m 3,9 km/h (1 Bft) N-NW 340 0 min 0,000 mm 0,0 UV-I 0 W/m 18,8 C 22,4 C 8,0 km/h (2 Bft) 100,00 %
02.08.2017 01:20 22,3 C 26,7 C 80 % 1013,4 hPa 0,0 l/m 2,6 km/h (1 Bft) W-SW 244 0 min 0,000 mm 0,0 UV-I 0 W/m 18,7 C 22,3 C 8,0 km/h (2 Bft) 96,23 %
02.08.2017 01:22 22,3 C 26,7 C 80 % 1013,6 hPa 0,0 l/m 4,4 km/h (1 Bft) SW 221 0 min 0,000 mm 0,0 UV-I 0 W/m 18,7 C 22,3 C 6,4 km/h (2 Bft) 98,00 %
02.08.2017 01:24 22,2 C 26,7 C 81 % 1013,7 hPa 0,0 l/m 1,3 km/h (1 Bft) SW 221 0 min 0,000 mm 0,0 UV-I 0 W/m 18,8 C 22,2 C 3,2 km/h (1 Bft) 97,87 %
02.08.2017 01:26 22,2 C 26,7 C 81 % 1013,8 hPa 0,0 l/m 2,0 km/h (1 Bft) S-SW 195 0 min 0,000 mm 0,0 UV-I 0 W/m 18,8 C 22,2 C 4,8 km/h (1 Bft) 95,12 %
02.08.2017 01:28 22,2 C 26,7 C 80 % 1014,0 hPa 0,0 l/m 7,9 km/h (2 Bft) S-SO 168 0 min 0,000 mm 0,0 UV-I 0 W/m 18,6 C 21,7 C 11,3 km/h (2 Bft) 97,87 %
02.08.2017 01:30 22,3 C 26,7 C 80 % 1014,2 hPa 0,0 l/m 5,5 km/h (1 Bft) S 184 0 min 0,000 mm 0,0 UV-I 0 W/m 18,7 C 22,3 C 8,0 km/h (2 Bft) 96,00 %
02.08.2017 01:32 22,3 C 26,7 C 80 % 1014,1 hPa 0,0 l/m 2,3 km/h (1 Bft) S 184 0 min 0,000 mm 0,0 UV-I 0 W/m 18,7 C 22,3 C 6,4 km/h (2 Bft) 97,44 %
02.08.2017 01:34 22,3 C 26,7 C 80 % 1014,1 hPa 0,0 l/m 2,4 km/h (1 Bft) S 186 0 min 0,000 mm 0,0 UV-I 0 W/m 18,7 C 22,3 C 4,8 km/h (1 Bft) 98,11 %
02.08.2017 01:36 22,3 C 26,7 C 80 % 1014,2 hPa 0,0 l/m 4,5 km/h (1 Bft) S-SW 207 0 min 0,000 mm 0,0 UV-I 0 W/m 18,7 C 22,3 C 6,4 km/h (2 Bft) 98,08 %
02.08.2017 01:38 22,3 C 26,7 C 80 % 1014,3 hPa 0,0 l/m 5,0 km/h (1 Bft) W-SW 257 0 min 0,000 mm 0,0 UV-I 0 W/m 18,7 C 22,3 C 6,4 km/h (2 Bft) 97,22 %
02.08.2017 01:40 22,3 C 26,7 C 80 % 1014,4 hPa 0,0 l/m 5,3 km/h (1 Bft) W-SW 239 0 min 0,000 mm 0,0 UV-I 0 W/m 18,7 C 22,3 C 8,0 km/h (2 Bft) 98,00 %
02.08.2017 01:42 22,3 C 26,7 C 80 % 1014,4 hPa 0,0 l/m 6,6 km/h (2 Bft) SW 219 0 min 0,000 mm 0,0 UV-I 0 W/m 18,7 C 22,2 C 11,3 km/h (2 Bft) 96,43 %
02.08.2017 01:44 22,2 C 26,7 C 81 % 1014,4 hPa 0,0 l/m 8,1 km/h (2 Bft) SW 235 0 min 0,000 mm 0,0 UV-I 0 W/m 18,8 C 21,6 C 11,3 km/h (2 Bft) 97,56 %
02.08.2017 01:46 22,2 C 26,7 C 81 % 1014,4 hPa 0,0 l/m 8,1 km/h (2 Bft) SW 229 0 min 0,000 mm 0,0 UV-I 0 W/m 18,8 C 21,6 C 11,3 km/h (2 Bft) 98,11 %
02.08.2017 01:48 22,2 C 26,7 C 81 % 1014,4 hPa 0,0 l/m 8,4 km/h (2 Bft) W-SW 248 0 min 0,000 mm 0,0 UV-I 0 W/m 18,8 C 21,5 C 14,5 km/h (3 Bft) 97,87 %
02.08.2017 01:50 22,1 C 26,7 C 81 % 1014,4 hPa 0,0 l/m 9,6 km/h (2 Bft) W-SW 242 0 min 0,000 mm 0,0 UV-I 0 W/m 18,7 C 21,1 C 14,5 km/h (3 Bft) 97,87 %
02.08.2017 01:52 22,1 C 26,7 C 81 % 1014,3 hPa 0,0 l/m 8,9 km/h (2 Bft) SW 227 0 min 0,000 mm 0,0 UV-I 0 W/m 18,7 C 21,3 C 14,5 km/h (3 Bft) 97,14 %
02.08.2017 01:54 22,1 C 26,7 C 81 % 1014,4 hPa 0,0 l/m 10,3 km/h (2 Bft) SW 235 0 min 0,000 mm 0,0 UV-I 0 W/m 18,7 C 20,9 C 14,5 km/h (3 Bft) 96,23 %
02.08.2017 01:56 22,1 C 26,7 C 81 % 1014,5 hPa 0,0 l/m 8,8 km/h (2 Bft) W-SW 254 0 min 0,000 mm 0,0 UV-I 0 W/m 18,7 C 21,3 C 14,5 km/h (3 Bft) 97,73 %
02.08.2017 01:58 22,1 C 26,7 C 81 % 1014,6 hPa 0,0 l/m 9,8 km/h (2 Bft) W-SW 237 0 min 0,000 mm 0,0 UV-I 0 W/m 18,7 C 21,0 C 16,1 km/h (3 Bft) 98,00 %
02.08.2017 02:00 22,2 C 26,7 C 81 % 1014,6 hPa 0,0 l/m 8,9 km/h (2 Bft) W-SW 245 0 min 0,000 mm 0,0 UV-I 0 W/m 18,8 C 21,4 C 14,5 km/h (3 Bft) 97,87 %
02.08.2017 02:02 22,2 C 26,7 C 80 % 1014,6 hPa 0,0 l/m 8,8 km/h (2 Bft) W-SW 246 0 min 0,025 mm 0,0 UV-I 0 W/m 18,6 C 21,4 C 12,9 km/h (3 Bft) 96,00 %
02.08.2017 02:04 22,2 C 26,7 C 80 % 1014,7 hPa 0,0 l/m 9,7 km/h (2 Bft) W-SW 242 0 min 0,000 mm 0,0 UV-I 0 W/m 18,6 C 21,2 C 14,5 km/h (3 Bft) 97,56 %
02.08.2017 02:06 22,2 C 26,7 C 80 % 1014,7 hPa 0,0 l/m 9,3 km/h (2 Bft) W 260 0 min 0,000 mm 0,0 UV-I 0 W/m 18,6 C 21,3 C 14,5 km/h (3 Bft) 97,87 %
02.08.2017 02:08 22,2 C 26,7 C 80 % 1014,7 hPa 0,0 l/m 8,7 km/h (2 Bft) W-SW 239 0 min 0,000 mm 0,0 UV-I 0 W/m 18,6 C 21,4 C 14,5 km/h (3 Bft) 95,45 %
02.08.2017 02:10 22,2 C 26,7 C 79 % 1014,6 hPa 0,0 l/m 7,5 km/h (2 Bft) W-SW 247 0 min 0,000 mm 0,0 UV-I 0 W/m 18,4 C 21,8 C 11,3 km/h (2 Bft) 96,23 %
02.08.2017 02:12 22,2 C 26,7 C 79 % 1014,7 hPa 0,0 l/m 8,1 km/h (2 Bft) W-SW 250 0 min 0,000 mm 0,0 UV-I 0 W/m 18,4 C 21,6 C 12,9 km/h (3 Bft) 97,44 %
02.08.2017 02:14 22,2 C 26,7 C 79 % 1014,6 hPa 0,0 l/m 6,9 km/h (2 Bft) W-SW 254 0 min 0,000 mm 0,0 UV-I 0 W/m 18,4 C 22,0 C 9,7 km/h (2 Bft) 96,55 %
02.08.2017 02:16 22,2 C 26,1 C 78 % 1014,6 hPa 0,0 l/m 6,9 km/h (2 Bft) W-SW 246 0 min 0,000 mm 0,0 UV-I 0 W/m 18,2 C 22,0 C 11,3 km/h (2 Bft) 94,87 %
02.08.2017 02:18 22,2 C 26,7 C 79 % 1014,6 hPa 0,0 l/m 6,6 km/h (2 Bft) W-SW 252 0 min 0,000 mm 0,0 UV-I 0 W/m 18,4 C 22,1 C 11,3 km/h (2 Bft) 96,23 %
02.08.2017 02:20 22,2 C 26,1 C 79 % 1014,7 hPa 0,0 l/m 6,7 km/h (2 Bft) W-SW 246 0 min 0,000 mm 0,0 UV-I 0 W/m 18,4 C 22,1 C 9,7 km/h (2 Bft) 97,56 %
02.08.2017 02:22 22,2 C 26,1 C 79 % 1014,6 hPa 0,0 l/m 5,2 km/h (1 Bft) SW 235 0 min 0,000 mm 0,0 UV-I 0 W/m 18,4 C 22,2 C 8,0 km/h (2 Bft) 96,00 %
02.08.2017 02:24 22,1 C 26,1 C 79 % 1014,6 hPa 0,0 l/m 6,3 km/h (2 Bft) W-SW 242 0 min 0,000 mm 0,0 UV-I 0 W/m 18,3 C 22,1 C 9,7 km/h (2 Bft) 97,56 %
02.08.2017 02:26 22,1 C 26,1 C 78 % 1014,5 hPa 0,0 l/m 3,5 km/h (1 Bft) S-SW 194 0 min 0,000 mm 0,0 UV-I 0 W/m 18,1 C 22,1 C 6,4 km/h (2 Bft) 100,00 %
02.08.2017 02:28 22,1 C 26,1 C 78 % 1014,7 hPa 0,0 l/m 7,2 km/h (2 Bft) SW 223 0 min 0,000 mm 0,0 UV-I 0 W/m 18,1 C 21,8 C 11,3 km/h (2 Bft) 100,00 %
02.08.2017 02:30 22,1 C 26,1 C 78 % 1014,7 hPa 0,0 l/m 5,6 km/h (1 Bft) S-SW 212 0 min 0,000 mm 0,0 UV-I 0 W/m 18,1 C 22,1 C 8,0 km/h (2 Bft) 97,87 %
02.08.2017 02:32 22,1 C 26,1 C 78 % 1014,7 hPa 0,0 l/m 3,0 km/h (1 Bft) S 183 0 min 0,000 mm 0,0 UV-I 0 W/m 18,1 C 22,1 C 4,8 km/h (1 Bft) 98,00 %
02.08.2017 02:34 22,1 C 26,1 C 78 % 1014,8 hPa 0,0 l/m 2,2 km/h (1 Bft) S 183 0 min 0,000 mm 0,0 UV-I 0 W/m 18,1 C 22,1 C 4,8 km/h (1 Bft) 97,87 %
02.08.2017 02:36 22,0 C 26,1 C 78 % 1014,7 hPa 0,0 l/m 2,7 km/h (1 Bft) S 169 0 min 0,000 mm 0,0 UV-I 0 W/m 18,0 C 22,0 C 8,0 km/h (2 Bft) 97,56 %
02.08.2017 02:38 21,9 C 26,1 C 78 % 1014,7 hPa 0,0 l/m 2,8 km/h (1 Bft) S-SO 167 0 min 0,000 mm 0,0 UV-I 0 W/m 17,9 C 21,9 C 6,4 km/h (2 Bft) 98,21 %
02.08.2017 02:40 21,9 C 26,1 C 79 % 1014,7 hPa 0,0 l/m 2,8 km/h (1 Bft) S-SO 167 0 min 0,000 mm 0,0 UV-I 0 W/m 18,1 C 21,9 C 6,4 km/h (2 Bft) 89,47 %
02.08.2017 02:42 21,8 C 26,1 C 79 % 1014,7 hPa 0,0 l/m 5,4 km/h (1 Bft) S 186 0 min 0,000 mm 0,0 UV-I 0 W/m 18,0 C 21,8 C 6,4 km/h (2 Bft) 96,43 %
02.08.2017 02:44 21,8 C 26,1 C 79 % 1014,8 hPa 0,0 l/m 4,3 km/h (1 Bft) S 185 0 min 0,000 mm 0,0 UV-I 0 W/m 18,0 C 21,8 C 6,4 km/h (2 Bft) 97,56 %
02.08.2017 02:46 21,9 C 26,1 C 79 % 1015,0 hPa 0,0 l/m 5,4 km/h (1 Bft) W-SW 244 0 min 0,000 mm 0,0 UV-I 0 W/m 18,1 C 21,9 C 11,3 km/h (2 Bft) 98,00 %
02.08.2017 02:48 21,9 C 26,1 C 79 % 1014,9 hPa 0,0 l/m 5,2 km/h (1 Bft) SW 224 0 min 0,000 mm 0,0 UV-I 0 W/m 18,1 C 21,9 C 8,0 km/h (2 Bft) 97,87 %
02.08.2017 02:50 21,9 C 26,1 C 79 % 1014,9 hPa 0,0 l/m 3,0 km/h (1 Bft) S-SW 206 0 min 0,000 mm 0,0 UV-I 0 W/m 18,1 C 21,9 C 6,4 km/h (2 Bft) 97,44 %
02.08.2017 02:52 21,8 C 26,1 C 79 % 1015,0 hPa 0,0 l/m 0,3 km/h (0 Bft) S-SW 206 0 min 0,000 mm 0,0 UV-I 0 W/m 18,0 C 21,8 C 1,6 km/h (1 Bft) 98,00 %
02.08.2017 02:54 21,8 C 26,1 C 79 % 1015,1 hPa 0,0 l/m 0,4 km/h (0 Bft) S-SW 206 0 min 0,000 mm 0,0 UV-I 0 W/m 18,0 C 21,8 C 1,6 km/h (1 Bft) 98,11 %
02.08.2017 02:56 21,8 C 26,1 C 80 % 1015,1 hPa 0,0 l/m 3,1 km/h (1 Bft) S-SW 205 0 min 0,000 mm 0,0 UV-I 0 W/m 18,2 C 21,8 C 4,8 km/h (1 Bft) 97,87 %
02.08.2017 02:58 21,7 C 26,1 C 80 % 1015,0 hPa 0,0 l/m 4,3 km/h (1 Bft) S-SO 157 0 min 0,000 mm 0,0 UV-I 0 W/m 18,1 C 21,7 C 8,0 km/h (2 Bft) 91,43 %
02.08.2017 03:00 21,6 C 26,1 C 80 % 1015,1 hPa 0,0 l/m 4,6 km/h (1 Bft) S-SO 150 0 min 0,025 mm 0,0 UV-I 0 W/m 18,0 C 21,6 C 8,0 km/h (2 Bft) 98,11 %
02.08.2017 03:02 21,6 C 26,1 C 80 % 1015,1 hPa 0,0 l/m 4,4 km/h (1 Bft) S-SO 150 0 min 0,000 mm 0,0 UV-I 0 W/m 18,0 C 21,6 C 8,0 km/h (2 Bft) 97,87 %
02.08.2017 03:04 21,7 C 26,1 C 80 % 1015,0 hPa 0,0 l/m 4,5 km/h (1 Bft) SO 144 0 min 0,000 mm 0,0 UV-I 0 W/m 18,1 C 21,7 C 8,0 km/h (2 Bft) 98,00 %
02.08.2017 03:06 21,7 C 26,1 C 80 % 1014,9 hPa 0,0 l/m 3,2 km/h (1 Bft) S-SO 147 0 min 0,000 mm 0,0 UV-I 0 W/m 18,1 C 21,7 C 6,4 km/h (2 Bft) 100,00 %
02.08.2017 03:08 21,7 C 26,1 C 80 % 1015,0 hPa 0,0 l/m 3,8 km/h (1 Bft) S 173 0 min 0,000 mm 0,0 UV-I 0 W/m 18,1 C 21,7 C 11,3 km/h (2 Bft) 100,00 %
02.08.2017 03:10 21,7 C 26,1 C 80 % 1015,0 hPa 0,0 l/m 5,3 km/h (1 Bft) S 189 0 min 0,000 mm 0,0 UV-I 0 W/m 18,1 C 21,7 C 8,0 km/h (2 Bft) 98,11 %
02.08.2017 03:12 21,8 C 26,1 C 79 % 1015,0 hPa 0,0 l/m 6,5 km/h (2 Bft) S 185 0 min 0,000 mm 0,0 UV-I 0 W/m 18,0 C 21,8 C 11,3 km/h (2 Bft) 100,00 %
02.08.2017 03:14 21,8 C 26,1 C 79 % 1014,9 hPa 0,0 l/m 4,8 km/h (1 Bft) S 180 0 min 0,000 mm 0,0 UV-I 0 W/m 18,0 C 21,8 C 8,0 km/h (2 Bft) 97,44 %
02.08.2017 03:16 21,8 C 26,1 C 79 % 1015,0 hPa 0,0 l/m 4,7 km/h (1 Bft) S-SW 203 0 min 0,000 mm 0,0 UV-I 0 W/m 18,0 C 21,8 C 8,0 km/h (2 Bft) 98,00 %
02.08.2017 03:18 21,8 C 26,1 C 79 % 1014,9 hPa 0,0 l/m 2,5 km/h (1 Bft) S 181 0 min 0,000 mm 0,0 UV-I 0 W/m 18,0 C 21,8 C 4,8 km/h (1 Bft) 100,00 %
02.08.2017 03:20 21,8 C 26,1 C 79 % 1015,0 hPa 0,0 l/m 4,4 km/h (1 Bft) S 173 0 min 0,000 mm 0,0 UV-I 0 W/m 18,0 C 21,8 C 8,0 km/h (2 Bft) 100,00 %
02.08.2017 03:22 21,8 C 26,1 C 79 % 1014,9 hPa 0,0 l/m 4,5 km/h (1 Bft) S 180 0 min 0,000 mm 0,0 UV-I 0 W/m 18,0 C 21,8 C 8,0 km/h (2 Bft) 100,00 %
02.08.2017 03:24 21,8 C 26,1 C 78 % 1014,9 hPa 0,0 l/m 2,6 km/h (1 Bft) S 169 0 min 0,000 mm 0,0 UV-I 0 W/m 17,8 C 21,8 C 8,0 km/h (2 Bft) 98,11 %
02.08.2017 03:26 21,9 C 26,1 C 78 % 1014,9 hPa 0,0 l/m 3,7 km/h (1 Bft) S-SW 198 0 min 0,000 mm 0,0 UV-I 0 W/m 17,9 C 21,9 C 6,4 km/h (2 Bft) 97,56 %
02.08.2017 03:28 21,8 C 26,1 C 78 % 1014,9 hPa 0,0 l/m 6,7 km/h (2 Bft) S-SW 192 0 min 0,000 mm 0,0 UV-I 0 W/m 17,8 C 21,7 C 11,3 km/h (2 Bft) 100,00 %
02.08.2017 03:30 21,8 C 26,1 C 78 % 1014,9 hPa 0,0 l/m 5,5 km/h (1 Bft) S-SO 160 0 min 0,000 mm 0,0 UV-I 0 W/m 17,8 C 21,8 C 9,7 km/h (2 Bft) 97,22 %
02.08.2017 03:32 21,8 C 26,1 C 78 % 1015,0 hPa 0,0 l/m 4,0 km/h (1 Bft) S 184 0 min 0,000 mm 0,0 UV-I 0 W/m 17,8 C 21,8 C 8,0 km/h (2 Bft) 100,00 %
02.08.2017 03:34 21,8 C 26,1 C 79 % 1014,9 hPa 0,0 l/m 4,6 km/h (1 Bft) SW 220 0 min 0,000 mm 0,0 UV-I 0 W/m 18,0 C 21,8 C 8,0 km/h (2 Bft) 98,00 %
02.08.2017 03:36 21,8 C 26,1 C 78 % 1014,9 hPa 0,0 l/m 4,3 km/h (1 Bft) S 174 0 min 0,000 mm 0,0 UV-I 0 W/m 17,8 C 21,8 C 8,0 km/h (2 Bft) 100,00 %
02.08.2017 03:38 21,7 C 26,1 C 78 % 1014,9 hPa 0,0 l/m 2,1 km/h (1 Bft) S 176 0 min 0,000 mm 0,0 UV-I 0 W/m 17,7 C 21,7 C 4,8 km/h (1 Bft) 100,00 %
02.08.2017 03:40 21,7 C 26,1 C 78 % 1014,8 hPa 0,0 l/m 2,7 km/h (1 Bft) S 179 0 min 0,000 mm 0,0 UV-I 0 W/m 17,7 C 21,7 C 4,8 km/h (1 Bft) 98,31 %
02.08.2017 03:42 21,6 C 26,1 C 78 % 1014,8 hPa 0,0 l/m 4,1 km/h (1 Bft) S-SW 206 0 min 0,000 mm 0,0 UV-I 0 W/m 17,6 C 21,6 C 8,0 km/h (2 Bft) 100,00 %
02.08.2017 03:44 21,6 C 26,1 C 78 % 1014,8 hPa 0,0 l/m 3,0 km/h (1 Bft) S 189 0 min 0,000 mm 0,0 UV-I 0 W/m 17,6 C 21,6 C 6,4 km/h (2 Bft) 97,56 %
02.08.2017 03:46 21,6 C 26,1 C 78 % 1014,8 hPa 0,0 l/m 3,5 km/h (1 Bft) S 189 0 min 0,000 mm 0,0 UV-I 0 W/m 17,6 C 21,6 C 4,8 km/h (1 Bft) 100,00 %
02.08.2017 03:48 21,6 C 26,1 C 78 % 1014,8 hPa 0,0 l/m 3,3 km/h (1 Bft) S 189 0 min 0,000 mm 0,0 UV-I 0 W/m 17,6 C 21,6 C 4,8 km/h (1 Bft) 100,00 %
02.08.2017 03:50 21,6 C 26,1 C 78 % 1014,8 hPa 0,0 l/m 3,1 km/h (1 Bft) S 188 0 min 0,000 mm 0,0 UV-I 0 W/m 17,6 C 21,6 C 4,8 km/h (1 Bft) 100,00 %
02.08.2017 03:52 21,6 C 26,1 C 77 % 1014,7 hPa 0,0 l/m 4,5 km/h (1 Bft) S-SO 167 0 min 0,000 mm 0,0 UV-I 0 W/m 17,4 C 21,6 C 9,7 km/h (2 Bft) 100,00 %
02.08.2017 03:54 21,6 C 26,1 C 77 % 1014,7 hPa 0,0 l/m 4,4 km/h (1 Bft) S 182 0 min 0,000 mm 0,0 UV-I 0 W/m 17,4 C 21,6 C 9,7 km/h (2 Bft) 100,00 %
02.08.2017 03:56 21,6 C 26,1 C 77 % 1014,7 hPa 0,0 l/m 5,6 km/h (1 Bft) S-SO 166 0 min 0,000 mm 0,0 UV-I 0 W/m 17,4 C 21,6 C 9,7 km/h (2 Bft) 98,11 %
02.08.2017 03:58 21,6 C 26,1 C 77 % 1014,7 hPa 0,0 l/m 4,5 km/h (1 Bft) S-SO 166 0 min 0,000 mm 0,0 UV-I 0 W/m 17,4 C 21,6 C 8,0 km/h (2 Bft) 100,00 %
02.08.2017 04:00 21,6 C 26,1 C 77 % 1014,8 hPa 0,0 l/m 4,6 km/h (1 Bft) S 175 0 min 0,026 mm 0,0 UV-I 0 W/m 17,4 C 21,6 C 9,7 km/h (2 Bft) 100,00 %
02.08.2017 04:02 21,6 C 26,1 C 77 % 1015,0 hPa 0,0 l/m 7,1 km/h (2 Bft) S-SW 199 0 min 0,000 mm 0,0 UV-I 0 W/m 17,4 C 21,3 C 11,3 km/h (2 Bft) 100,00 %
02.08.2017 04:04 21,6 C 26,1 C 77 % 1015,0 hPa 0,0 l/m 5,0 km/h (1 Bft) S-SW 204 0 min 0,000 mm 0,0 UV-I 0 W/m 17,4 C 21,6 C 6,4 km/h (2 Bft) 100,00 %
02.08.2017 04:06 21,6 C 26,1 C 77 % 1015,0 hPa 0,0 l/m 5,4 km/h (1 Bft) SW 224 0 min 0,000 mm 0,0 UV-I 0 W/m 17,4 C 21,6 C 11,3 km/h (2 Bft) 100,00 %
02.08.2017 04:08 21,6 C 26,1 C 77 % 1015,4 hPa 0,0 l/m 9,2 km/h (2 Bft) W-SW 239 0 min 0,000 mm 0,0 UV-I 0 W/m 17,4 C 20,6 C 12,9 km/h (3 Bft) 100,00 %
02.08.2017 04:10 21,5 C 26,1 C 77 % 1015,4 hPa 0,0 l/m 9,4 km/h (2 Bft) W-SW 253 0 min 0,000 mm 0,0 UV-I 0 W/m 17,3 C 20,5 C 16,1 km/h (3 Bft) 100,00 %
02.08.2017 04:12 21,4 C 26,1 C 77 % 1015,5 hPa 0,0 l/m 7,4 km/h (2 Bft) SW 234 0 min 0,000 mm 0,0 UV-I 0 W/m 17,2 C 21,0 C 12,9 km/h (3 Bft) 100,00 %
02.08.2017 04:14 21,4 C 26,1 C 77 % 1015,5 hPa 0,0 l/m 8,6 km/h (2 Bft) SW 227 0 min 0,000 mm 0,0 UV-I 0 W/m 17,2 C 20,6 C 12,9 km/h (3 Bft) 100,00 %
02.08.2017 04:16 21,4 C 26,1 C 77 % 1015,6 hPa 0,0 l/m 9,4 km/h (2 Bft) SW 229 0 min 0,000 mm 0,0 UV-I 0 W/m 17,2 C 20,4 C 14,5 km/h (3 Bft) 100,00 %
02.08.2017 04:18 21,4 C 26,1 C 77 % 1015,6 hPa 0,0 l/m 12,3 km/h (3 Bft) W 263 0 min 0,000 mm 0,0 UV-I 0 W/m 17,2 C 19,6 C 17,7 km/h (3 Bft) 100,00 %
02.08.2017 04:20 21,4 C 26,1 C 77 % 1015,6 hPa 0,0 l/m 13,7 km/h (3 Bft) SW 229 0 min 0,000 mm 0,0 UV-I 0 W/m 17,2 C 19,2 C 19,3 km/h (3 Bft) 100,00 %
02.08.2017 04:22 21,4 C 26,1 C 77 % 1015,7 hPa 0,0 l/m 10,0 km/h (2 Bft) W 260 0 min 0,000 mm 0,0 UV-I 0 W/m 17,2 C 20,2 C 17,7 km/h (3 Bft) 100,00 %
02.08.2017 04:24 21,4 C 26,1 C 77 % 1015,8 hPa 0,0 l/m 12,6 km/h (3 Bft) W-SW 250 0 min 0,000 mm 0,0 UV-I 0 W/m 17,2 C 19,5 C 17,7 km/h (3 Bft) 100,00 %
02.08.2017 04:26 21,4 C 26,1 C 77 % 1015,9 hPa 0,0 l/m 14,0 km/h (3 Bft) W-SW 254 0 min 0,000 mm 0,0 UV-I 0 W/m 17,2 C 19,2 C 16,1 km/h (3 Bft) 98,11 %
02.08.2017 04:28 21,4 C 26,1 C 77 % 1015,9 hPa 0,0 l/m 12,7 km/h (3 Bft) W-SW 244 0 min 0,000 mm 0,0 UV-I 0 W/m 17,2 C 19,5 C 19,3 km/h (3 Bft) 97,37 %
02.08.2017 04:30 21,3 C 26,1 C 78 % 1016,0 hPa 0,0 l/m 12,7 km/h (3 Bft) W 275 0 min 0,000 mm 0,0 UV-I 0 W/m 17,3 C 19,4 C 19,3 km/h (3 Bft) 91,49 %
02.08.2017 04:32 21,3 C 26,1 C 78 % 1016,1 hPa 0,0 l/m 13,3 km/h (3 Bft) W-SW 254 0 min 0,000 mm 0,0 UV-I 0 W/m 17,3 C 19,2 C 19,3 km/h (3 Bft) 98,11 %
02.08.2017 04:34 21,3 C 26,1 C 78 % 1016,1 hPa 0,0 l/m 10,3 km/h (2 Bft) W-SW 248 0 min 0,000 mm 0,0 UV-I 0 W/m 17,3 C 20,0 C 16,1 km/h (3 Bft) 98,00 %
02.08.2017 04:36 21,3 C 26,1 C 79 % 1016,1 hPa 0,0 l/m 10,8 km/h (2 Bft) W-SW 247 0 min 0,000 mm 0,0 UV-I 0 W/m 17,5 C 19,8 C 16,1 km/h (3 Bft) 97,56 %
02.08.2017 04:38 21,2 C 26,1 C 79 % 1016,1 hPa 0,0 l/m 10,6 km/h (2 Bft) W 281 0 min 0,000 mm 0,0 UV-I 0 W/m 17,4 C 19,8 C 14,5 km/h (3 Bft) 97,56 %
02.08.2017 04:40 21,2 C 26,1 C 79 % 1016,2 hPa 0,0 l/m 11,8 km/h (2 Bft) W-SW 248 0 min 0,000 mm 0,0 UV-I 0 W/m 17,4 C 19,5 C 19,3 km/h (3 Bft) 98,11 %
02.08.2017 04:42 21,2 C 26,1 C 80 % 1016,2 hPa 0,0 l/m 10,6 km/h (2 Bft) W-SW 257 0 min 0,000 mm 0,0 UV-I 0 W/m 17,6 C 19,8 C 16,1 km/h (3 Bft) 98,11 %
02.08.2017 04:44 21,2 C 26,1 C 80 % 1016,2 hPa 0,0 l/m 12,8 km/h (3 Bft) W-SW 247 0 min 0,000 mm 0,0 UV-I 0 W/m 17,6 C 19,2 C 16,1 km/h (3 Bft) 97,37 %
02.08.2017 04:46 21,2 C 26,1 C 80 % 1016,2 hPa 0,0 l/m 9,9 km/h (2 Bft) W-SW 257 0 min 0,000 mm 0,0 UV-I 0 W/m 17,6 C 20,0 C 16,1 km/h (3 Bft) 94,34 %
02.08.2017 04:48 21,2 C 26,1 C 81 % 1016,2 hPa 0,0 l/m 10,7 km/h (2 Bft) W-SW 244 0 min 0,000 mm 0,0 UV-I 0 W/m 17,8 C 19,8 C 17,7 km/h (3 Bft) 100,00 %
02.08.2017 04:50 21,3 C 26,1 C 81 % 1016,1 hPa 0,0 l/m 6,8 km/h (2 Bft) W-SW 247 0 min 0,000 mm 0,0 UV-I 0 W/m 17,9 C 21,2 C 11,3 km/h (2 Bft) 96,72 %
02.08.2017 04:52 21,3 C 26,1 C 81 % 1016,1 hPa 0,0 l/m 4,7 km/h (1 Bft) W-NW 294 0 min 0,000 mm 0,0 UV-I 0 W/m 17,9 C 21,3 C 8,0 km/h (2 Bft) 97,44 %
02.08.2017 04:54 21,3 C 26,1 C 81 % 1016,1 hPa 0,0 l/m 6,8 km/h (2 Bft) W-SW 241 0 min 0,000 mm 0,0 UV-I 0 W/m 17,9 C 21,2 C 11,3 km/h (2 Bft) 96,23 %
02.08.2017 04:56 21,3 C 26,1 C 81 % 1016,0 hPa 0,0 l/m 6,7 km/h (2 Bft) W-SW 238 0 min 0,000 mm 0,0 UV-I 0 W/m 17,9 C 21,2 C 12,9 km/h (3 Bft) 97,56 %
02.08.2017 04:58 21,3 C 26,1 C 82 % 1016,0 hPa 0,0 l/m 7,1 km/h (2 Bft) SW 234 0 min 0,000 mm 0,0 UV-I 0 W/m 18,1 C 21,0 C 12,9 km/h (3 Bft) 98,11 %
02.08.2017 05:00 21,3 C 26,1 C 82 % 1016,1 hPa 0,0 l/m 4,2 km/h (1 Bft) S 181 0 min 0,025 mm 0,0 UV-I 0 W/m 18,1 C 21,3 C 8,0 km/h (2 Bft) 100,00 %
02.08.2017 05:02 21,3 C 26,1 C 82 % 1016,2 hPa 0,0 l/m 5,7 km/h (1 Bft) SW 221 0 min 0,000 mm 0,0 UV-I 0 W/m 18,1 C 21,3 C 9,7 km/h (2 Bft) 100,00 %
02.08.2017 05:04 21,3 C 26,1 C 82 % 1016,3 hPa 0,0 l/m 6,0 km/h (2 Bft) W-SW 258 0 min 0,000 mm 0,0 UV-I 0 W/m 18,1 C 21,3 C 11,3 km/h (2 Bft) 100,00 %
02.08.2017 05:06 21,3 C 26,1 C 82 % 1016,4 hPa 0,0 l/m 6,8 km/h (2 Bft) W-SW 257 0 min 0,000 mm 0,0 UV-I 0 W/m 18,1 C 21,2 C 11,3 km/h (2 Bft) 100,00 %
02.08.2017 05:08 21,2 C 26,1 C 82 % 1016,4 hPa 0,0 l/m 6,4 km/h (2 Bft) SW 222 0 min 0,000 mm 0,0 UV-I 0 W/m 18,0 C 21,2 C 8,0 km/h (2 Bft) 100,00 %
02.08.2017 05:10 21,2 C 26,1 C 83 % 1016,4 hPa 0,0 l/m 6,2 km/h (2 Bft) SW 233 0 min 0,000 mm 0,0 UV-I 0 W/m 18,2 C 21,2 C 8,0 km/h (2 Bft) 98,11 %
02.08.2017 05:12 21,2 C 26,1 C 83 % 1016,4 hPa 0,0 l/m 9,0 km/h (2 Bft) SW 233 0 min 0,000 mm 0,0 UV-I 0 W/m 18,2 C 20,3 C 16,1 km/h (3 Bft) 100,00 %
02.08.2017 05:14 21,2 C 26,1 C 83 % 1016,5 hPa 0,0 l/m 7,5 km/h (2 Bft) SW 232 0 min 0,000 mm 0,0 UV-I 0 W/m 18,2 C 20,8 C 11,3 km/h (2 Bft) 100,00 %
02.08.2017 05:16 21,2 C 26,1 C 83 % 1016,5 hPa 0,0 l/m 5,9 km/h (2 Bft) SW 215 0 min 0,000 mm 0,0 UV-I 0 W/m 18,2 C 21,2 C 11,3 km/h (2 Bft) 97,37 %
02.08.2017 05:18 21,1 C 26,1 C 83 % 1016,6 hPa 0,0 l/m 7,7 km/h (2 Bft) S-SW 211 0 min 0,000 mm 0,0 UV-I 0 W/m 18,1 C 20,6 C 11,3 km/h (2 Bft) 100,00 %
02.08.2017 05:20 21,1 C 26,1 C 83 % 1016,6 hPa 0,0 l/m 7,0 km/h (2 Bft) S 191 0 min 0,000 mm 0,0 UV-I 0 W/m 18,1 C 20,9 C 14,5 km/h (3 Bft) 95,08 %
02.08.2017 05:22 21,1 C 26,1 C 83 % 1016,8 hPa 0,0 l/m 8,0 km/h (2 Bft) SW 218 0 min 0,000 mm 0,0 UV-I 0 W/m 18,1 C 20,5 C 14,5 km/h (3 Bft) 97,73 %
02.08.2017 05:24 21,1 C 26,1 C 83 % 1016,8 hPa 0,0 l/m 10,4 km/h (2 Bft) S-SW 211 0 min 0,000 mm 0,0 UV-I 0 W/m 18,1 C 19,7 C 16,1 km/h (3 Bft) 98,11 %
02.08.2017 05:26 21,1 C 26,1 C 83 % 1016,8 hPa 0,0 l/m 8,7 km/h (2 Bft) S-SW 205 0 min 0,000 mm 0,0 UV-I 0 W/m 18,1 C 20,3 C 11,3 km/h (2 Bft) 97,22 %
02.08.2017 05:28 21,1 C 26,1 C 84 % 1016,6 hPa 0,0 l/m 9,3 km/h (2 Bft) S-SW 202 0 min 0,000 mm 0,0 UV-I 0 W/m 18,3 C 20,1 C 16,1 km/h (3 Bft) 96,00 %
02.08.2017 05:30 21,1 C 26,1 C 84 % 1016,6 hPa 0,0 l/m 6,7 km/h (2 Bft) S 176 0 min 0,000 mm 0,0 UV-I 0 W/m 18,3 C 21,0 C 12,9 km/h (3 Bft) 96,00 %
02.08.2017 05:32 21,1 C 26,1 C 84 % 1016,7 hPa 0,0 l/m 7,2 km/h (2 Bft) S-SO 163 0 min 0,000 mm 0,0 UV-I 0 W/m 18,3 C 20,8 C 14,5 km/h (3 Bft) 96,23 %
02.08.2017 05:34 21,1 C 26,1 C 84 % 1016,8 hPa 0,0 l/m 7,4 km/h (2 Bft) SW 232 0 min 0,000 mm 0,0 UV-I 0 W/m 18,3 C 20,7 C 11,3 km/h (2 Bft) 97,37 %
02.08.2017 05:36 21,1 C 26,1 C 84 % 1016,8 hPa 0,0 l/m 8,4 km/h (2 Bft) S-SW 208 0 min 0,000 mm 0,0 UV-I 0 W/m 18,3 C 20,4 C 16,1 km/h (3 Bft) 96,23 %
02.08.2017 05:38 21,1 C 26,1 C 83 % 1016,8 hPa 0,0 l/m 8,5 km/h (2 Bft) SW 223 0 min 0,000 mm 0,0 UV-I 3 W/m 18,1 C 20,3 C 11,3 km/h (2 Bft) 97,56 %
02.08.2017 05:40 21,1 C 26,1 C 83 % 1016,9 hPa 0,0 l/m 10,0 km/h (2 Bft) S-SW 199 0 min 0,000 mm 0,0 UV-I 5 W/m 18,1 C 19,9 C 16,1 km/h (3 Bft) 98,00 %
02.08.2017 05:42 21,1 C 26,1 C 83 % 1017,0 hPa 0,0 l/m 10,1 km/h (2 Bft) SW 221 0 min 0,000 mm 0,0 UV-I 5 W/m 18,1 C 19,8 C 14,5 km/h (3 Bft) 97,37 %
02.08.2017 05:44 21,1 C 26,1 C 83 % 1017,2 hPa 0,0 l/m 11,8 km/h (2 Bft) W-SW 239 0 min 0,000 mm 0,0 UV-I 5 W/m 18,1 C 19,3 C 17,7 km/h (3 Bft) 98,39 %
02.08.2017 05:46 21,1 C 26,1 C 83 % 1017,3 hPa 0,0 l/m 10,3 km/h (2 Bft) SW 218 0 min 0,000 mm 0,0 UV-I 6 W/m 18,1 C 19,8 C 14,5 km/h (3 Bft) 97,14 %
02.08.2017 05:48 21,1 C 26,1 C 83 % 1017,4 hPa 0,0 l/m 9,9 km/h (2 Bft) W-SW 239 0 min 0,000 mm 0,0 UV-I 7 W/m 18,1 C 19,9 C 16,1 km/h (3 Bft) 98,21 %
02.08.2017 05:50 21,0 C 26,1 C 83 % 1017,5 hPa 0,0 l/m 12,3 km/h (3 Bft) W-SW 249 0 min 0,000 mm 0,0 UV-I 8 W/m 18,0 C 19,1 C 19,3 km/h (3 Bft) 94,29 %
02.08.2017 05:52 21,1 C 26,1 C 83 % 1017,6 hPa 0,0 l/m 12,0 km/h (2 Bft) W-SW 257 2 min 0,000 mm 0,0 UV-I 9 W/m 18,1 C 19,3 C 19,3 km/h (3 Bft) 98,31 %
02.08.2017 05:54 21,0 C 26,1 C 83 % 1017,6 hPa 0,0 l/m 9,7 km/h (2 Bft) SW 227 0 min 0,000 mm 0,0 UV-I 10 W/m 18,0 C 19,8 C 16,1 km/h (3 Bft) 97,56 %
02.08.2017 05:56 21,1 C 26,1 C 83 % 1017,6 hPa 0,0 l/m 13,0 km/h (3 Bft) W-SW 250 0 min 0,000 mm 0,0 UV-I 11 W/m 18,1 C 19,0 C 20,9 km/h (4 Bft) 96,00 %
02.08.2017 05:58 21,1 C 26,1 C 83 % 1017,5 hPa 0,0 l/m 7,8 km/h (2 Bft) SW 234 0 min 0,000 mm 0,0 UV-I 12 W/m 18,1 C 20,6 C 12,9 km/h (3 Bft) 97,50 %
02.08.2017 06:00 21,1 C 26,1 C 83 % 1017,5 hPa 0,0 l/m 6,1 km/h (2 Bft) W 261 0 min 0,026 mm 0,0 UV-I 12 W/m 18,1 C 21,1 C 9,7 km/h (2 Bft) 96,23 %
02.08.2017 06:02 21,0 C 26,1 C 83 % 1017,5 hPa 0,0 l/m 7,4 km/h (2 Bft) W-SW 238 0 min 0,000 mm 0,0 UV-I 12 W/m 18,0 C 20,6 C 12,9 km/h (3 Bft) 96,00 %
02.08.2017 06:04 21,0 C 26,1 C 83 % 1017,5 hPa 0,0 l/m 7,8 km/h (2 Bft) S-SW 203 0 min 0,000 mm 0,0 UV-I 12 W/m 18,0 C 20,5 C 12,9 km/h (3 Bft) 95,74 %
02.08.2017 06:06 20,9 C 26,1 C 83 % 1017,6 hPa 0,0 l/m 10,1 km/h (2 Bft) W-SW 245 0 min 0,000 mm 0,0 UV-I 12 W/m 17,9 C 19,6 C 14,5 km/h (3 Bft) 97,44 %
02.08.2017 06:08 20,9 C 26,1 C 83 % 1017,7 hPa 0,0 l/m 8,4 km/h (2 Bft) W 275 0 min 0,000 mm 0,0 UV-I 17 W/m 17,9 C 20,2 C 12,9 km/h (3 Bft) 98,11 %
02.08.2017 06:10 20,9 C 26,1 C 83 % 1017,7 hPa 0,0 l/m 9,9 km/h (2 Bft) SW 229 0 min 0,000 mm 0,0 UV-I 20 W/m 17,9 C 19,7 C 16,1 km/h (3 Bft) 97,37 %
02.08.2017 06:12 20,9 C 26,1 C 83 % 1017,8 hPa 0,0 l/m 11,8 km/h (2 Bft) S-SW 207 0 min 0,000 mm 0,0 UV-I 24 W/m 17,9 C 19,1 C 19,3 km/h (3 Bft) 98,00 %
02.08.2017 06:14 20,9 C 26,1 C 83 % 1017,8 hPa 0,0 l/m 11,3 km/h (2 Bft) SW 232 0 min 0,000 mm 0,0 UV-I 26 W/m 17,9 C 19,3 C 16,1 km/h (3 Bft) 97,87 %
02.08.2017 06:16 20,9 C 26,1 C 83 % 1017,8 hPa 0,0 l/m 10,7 km/h (2 Bft) W 268 0 min 0,000 mm 0,0 UV-I 26 W/m 17,9 C 19,4 C 16,1 km/h (3 Bft) 95,74 %
02.08.2017 06:18 20,9 C 26,1 C 83 % 1017,8 hPa 0,0 l/m 7,2 km/h (2 Bft) S-SW 213 0 min 0,000 mm 0,0 UV-I 29 W/m 17,9 C 20,6 C 12,9 km/h (3 Bft) 97,56 %
02.08.2017 06:20 20,9 C 26,1 C 83 % 1017,8 hPa 0,0 l/m 8,2 km/h (2 Bft) W-SW 242 0 min 0,000 mm 0,0 UV-I 33 W/m 17,9 C 20,2 C 14,5 km/h (3 Bft) 98,00 %
02.08.2017 06:22 20,9 C 26,1 C 83 % 1017,8 hPa 0,0 l/m 5,1 km/h (1 Bft) W-SW 254 0 min 0,000 mm 0,0 UV-I 33 W/m 17,9 C 20,9 C 14,5 km/h (3 Bft) 98,21 %
02.08.2017 06:24 20,9 C 26,1 C 83 % 1017,8 hPa 0,0 l/m 7,0 km/h (2 Bft) SW 229 0 min 0,000 mm 0,0 UV-I 33 W/m 17,9 C 20,7 C 12,9 km/h (3 Bft) 95,74 %
02.08.2017 06:26 21,0 C 26,1 C 83 % 1017,8 hPa 0,0 l/m 6,8 km/h (2 Bft) S 190 0 min 0,000 mm 0,0 UV-I 32 W/m 18,0 C 20,9 C 12,9 km/h (3 Bft) 95,74 %
02.08.2017 06:28 21,0 C 26,1 C 83 % 1018,0 hPa 0,0 l/m 10,9 km/h (2 Bft) W-SW 247 0 min 0,000 mm 0,0 UV-I 32 W/m 18,0 C 19,5 C 17,7 km/h (3 Bft) 97,73 %
02.08.2017 06:30 21,0 C 26,1 C 83 % 1018,3 hPa 0,0 l/m 15,4 km/h (3 Bft) W-SW 243 0 min 0,000 mm 0,0 UV-I 33 W/m 18,0 C 18,4 C 19,3 km/h (3 Bft) 97,56 %
02.08.2017 06:32 21,0 C 26,1 C 84 % 1018,5 hPa 0,0 l/m 14,1 km/h (3 Bft) W-SW 245 0 min 0,000 mm 0,0 UV-I 29 W/m 18,2 C 18,7 C 24,1 km/h (4 Bft) 96,43 %
02.08.2017 06:34 21,1 C 26,1 C 84 % 1018,4 hPa 0,0 l/m 16,1 km/h (3 Bft) W-NW 284 0 min 0,000 mm 0,0 UV-I 28 W/m 18,3 C 18,4 C 27,4 km/h (4 Bft) 97,37 %
02.08.2017 06:36 21,1 C 26,1 C 83 % 1018,5 hPa 0,0 l/m 14,2 km/h (3 Bft) W 273 0 min 0,000 mm 0,0 UV-I 31 W/m 18,1 C 18,8 C 24,1 km/h (4 Bft) 97,73 %
02.08.2017 06:38 21,2 C 26,1 C 83 % 1018,5 hPa 0,0 l/m 18,0 km/h (3 Bft) W 273 0 min 0,000 mm 0,0 UV-I 34 W/m 18,2 C 18,1 C 27,4 km/h (4 Bft) 98,11 %
02.08.2017 06:40 21,2 C 26,1 C 83 % 1018,5 hPa 0,0 l/m 17,4 km/h (3 Bft) W-SW 246 0 min 0,000 mm 0,0 UV-I 38 W/m 18,2 C 18,2 C 24,1 km/h (4 Bft) 97,44 %
02.08.2017 06:42 21,2 C 26,1 C 83 % 1018,6 hPa 0,0 l/m 17,0 km/h (3 Bft) W 267 0 min 0,000 mm 0,0 UV-I 43 W/m 18,2 C 18,3 C 22,5 km/h (4 Bft) 98,11 %
02.08.2017 06:44 21,3 C 26,1 C 83 % 1018,6 hPa 0,0 l/m 17,0 km/h (3 Bft) W-SW 251 0 min 0,000 mm 0,0 UV-I 46 W/m 18,3 C 18,4 C 25,7 km/h (4 Bft) 97,73 %
02.08.2017 06:46 21,3 C 26,1 C 83 % 1018,7 hPa 0,0 l/m 17,3 km/h (3 Bft) W 259 0 min 0,000 mm 0,0 UV-I 52 W/m 18,3 C 18,4 C 22,5 km/h (4 Bft) 98,00 %
02.08.2017 06:48 21,3 C 26,1 C 83 % 1018,7 hPa 0,0 l/m 17,2 km/h (3 Bft) W-SW 244 0 min 0,000 mm 0,0 UV-I 61 W/m 18,3 C 18,4 C 27,4 km/h (4 Bft) 97,37 %
02.08.2017 06:50 21,3 C 26,1 C 83 % 1018,8 hPa 0,0 l/m 16,8 km/h (3 Bft) SW 224 0 min 0,000 mm 0,0 UV-I 62 W/m 18,3 C 18,5 C 25,7 km/h (4 Bft) 97,73 %
02.08.2017 06:52 21,3 C 26,1 C 83 % 1019,0 hPa 0,0 l/m 17,4 km/h (3 Bft) W-SW 250 0 min 0,000 mm 0,0 UV-I 55 W/m 18,3 C 18,3 C 24,1 km/h (4 Bft) 96,92 %
02.08.2017 06:54 21,4 C 26,1 C 83 % 1019,1 hPa 0,0 l/m 15,6 km/h (3 Bft) W-SW 239 0 min 0,000 mm 0,0 UV-I 45 W/m 18,4 C 18,8 C 22,5 km/h (4 Bft) 97,14 %
02.08.2017 06:56 21,4 C 26,1 C 83 % 1019,1 hPa 0,0 l/m 14,2 km/h (3 Bft) W-SW 250 0 min 0,000 mm 0,0 UV-I 41 W/m 18,4 C 19,1 C 22,5 km/h (4 Bft) 98,21 %
02.08.2017 06:58 21,4 C 25,6 C 83 % 1019,2 hPa 0,0 l/m 13,0 km/h (3 Bft) W-SW 255 0 min 0,000 mm 0,0 UV-I 45 W/m 18,4 C 19,4 C 19,3 km/h (3 Bft) 100,00 %
02.08.2017 07:00 21,4 C 25,6 C 83 % 1019,2 hPa 0,0 l/m 14,5 km/h (3 Bft) W 260 0 min 0,050 mm 0,0 UV-I 54 W/m 18,4 C 19,1 C 27,4 km/h (4 Bft) 100,00 %
02.08.2017 07:02 21,4 C 25,6 C 83 % 1019,3 hPa 0,0 l/m 14,3 km/h (3 Bft) W-SW 256 0 min 0,000 mm 0,0 UV-I 63 W/m 18,4 C 19,1 C 20,9 km/h (4 Bft) 95,74 %
02.08.2017 07:04 21,4 C 25,6 C 83 % 1019,3 hPa 0,0 l/m 16,8 km/h (3 Bft) W-SW 244 0 min 0,000 mm 0,0 UV-I 76 W/m 18,4 C 18,6 C 24,1 km/h (4 Bft) 97,73 %
02.08.2017 07:06 21,4 C 25,6 C 83 % 1019,4 hPa 0,0 l/m 12,3 km/h (3 Bft) W-SW 256 0 min 0,000 mm 0,0 UV-I 94 W/m 18,4 C 19,6 C 20,9 km/h (4 Bft) 100,00 %
02.08.2017 07:08 21,4 C 25,6 C 83 % 1019,4 hPa 0,0 l/m 12,0 km/h (2 Bft) W-SW 253 2 min 0,000 mm 0,0 UV-I 122 W/m 18,4 C 19,6 C 17,7 km/h (3 Bft) 100,00 %
02.08.2017 07:10 21,5 C 26,1 C 83 % 1019,4 hPa 0,0 l/m 14,6 km/h (3 Bft) W-SW 239 2 min 0,000 mm 0,0 UV-I 149 W/m 18,5 C 19,2 C 19,3 km/h (3 Bft) 100,00 %
02.08.2017 07:13 21,6 C 26,1 C 82 % 1019,5 hPa 0,0 l/m 16,8 km/h (3 Bft) SW 229 3 min 0,000 mm 0,0 UV-I 159 W/m 18,4 C 18,8 C 35,4 km/h (5 Bft) 98,65 %
02.08.2017 07:14 21,7 C 26,1 C 82 % 1019,5 hPa 0,0 l/m 16,1 km/h (3 Bft) W 261 1 min 0,000 mm 0,0 UV-I 149 W/m 18,5 C 19,1 C 24,1 km/h (4 Bft) 100,00 %
02.08.2017 07:16 21,7 C 26,1 C 82 % 1019,5 hPa 0,0 l/m 14,7 km/h (3 Bft) W-SW 247 2 min 0,000 mm 0,0 UV-I 132 W/m 18,5 C 19,4 C 19,3 km/h (3 Bft) 97,56 %
02.08.2017 07:18 21,8 C 25,6 C 82 % 1019,5 hPa 0,0 l/m 12,4 km/h (3 Bft) SW 235 0 min 0,000 mm 0,0 UV-I 118 W/m 18,6 C 20,0 C 17,7 km/h (3 Bft) 100,00 %
02.08.2017 07:20 21,8 C 25,6 C 82 % 1019,5 hPa 0,0 l/m 12,7 km/h (3 Bft) SW 230 0 min 0,000 mm 0,0 UV-I 106 W/m 18,6 C 19,9 C 19,3 km/h (3 Bft) 100,00 %
02.08.2017 07:22 21,8 C 26,1 C 81 % 1019,5 hPa 0,0 l/m 13,7 km/h (3 Bft) SW 223 0 min 0,000 mm 0,0 UV-I 103 W/m 18,4 C 19,7 C 20,9 km/h (4 Bft) 100,00 %
02.08.2017 07:24 21,9 C 26,1 C 81 % 1019,6 hPa 0,0 l/m 12,0 km/h (2 Bft) W-SW 249 0 min 0,000 mm 0,0 UV-I 100 W/m 18,5 C 20,2 C 17,7 km/h (3 Bft) 97,87 %
02.08.2017 07:26 21,9 C 26,1 C 79 % 1019,7 hPa 0,0 l/m 15,5 km/h (3 Bft) W-SW 242 0 min 0,000 mm 0,0 UV-I 104 W/m 18,1 C 19,5 C 22,5 km/h (4 Bft) 97,87 %
02.08.2017 07:28 21,9 C 26,1 C 79 % 1019,8 hPa 0,0 l/m 12,4 km/h (3 Bft) W-SW 250 0 min 0,000 mm 0,0 UV-I 104 W/m 18,1 C 20,1 C 19,3 km/h (3 Bft) 95,56 %
02.08.2017 07:30 22,0 C 25,6 C 79 % 1019,8 hPa 0,0 l/m 14,1 km/h (3 Bft) W-SW 248 0 min 0,000 mm 0,0 UV-I 106 W/m 18,2 C 19,9 C 24,1 km/h (4 Bft) 98,00 %
02.08.2017 07:32 22,1 C 25,6 C 78 % 1019,8 hPa 0,0 l/m 12,5 km/h (3 Bft) W 273 0 min 0,000 mm 0,0 UV-I 116 W/m 18,1 C 20,3 C 16,1 km/h (3 Bft) 97,73 %
02.08.2017 07:34 22,1 C 25,6 C 78 % 1019,9 hPa 0,0 l/m 11,9 km/h (2 Bft) SW 236 0 min 0,000 mm 0,0 UV-I 123 W/m 18,1 C 20,5 C 19,3 km/h (3 Bft) 100,00 %
02.08.2017 07:36 22,1 C 25,6 C 78 % 1019,8 hPa 0,0 l/m 13,7 km/h (3 Bft) W-SW 253 0 min 0,000 mm 0,0 UV-I 121 W/m 18,1 C 20,1 C 20,9 km/h (4 Bft) 100,00 %
02.08.2017 07:38 22,1 C 25,6 C 77 % 1019,8 hPa 0,0 l/m 10,7 km/h (2 Bft) W 259 0 min 0,000 mm 0,0 UV-I 120 W/m 17,9 C 20,8 C 14,5 km/h (3 Bft) 100,00 %
02.08.2017 07:40 22,1 C 25,6 C 77 % 1019,7 hPa 0,0 l/m 10,6 km/h (2 Bft) W-SW 246 0 min 0,000 mm 0,0 UV-I 112 W/m 17,9 C 20,8 C 17,7 km/h (3 Bft) 100,00 %
02.08.2017 07:42 22,1 C 25,6 C 77 % 1019,7 hPa 0,0 l/m 10,9 km/h (2 Bft) W-SW 254 0 min 0,000 mm 0,0 UV-I 105 W/m 17,9 C 20,7 C 19,3 km/h (3 Bft) 100,00 %
02.08.2017 07:44 22,1 C 25,6 C 76 % 1019,7 hPa 0,0 l/m 12,0 km/h (2 Bft) W 268 0 min 0,000 mm 0,0 UV-I 100 W/m 17,7 C 20,4 C 17,7 km/h (3 Bft) 100,00 %
02.08.2017 07:46 22,1 C 25,6 C 76 % 1019,7 hPa 0,0 l/m 7,9 km/h (2 Bft) W 263 0 min 0,000 mm 0,0 UV-I 95 W/m 17,7 C 21,6 C 12,9 km/h (3 Bft) 100,00 %
02.08.2017 07:48 22,1 C 25,6 C 76 % 1019,7 hPa 0,0 l/m 12,2 km/h (2 Bft) SW 232 0 min 0,000 mm 0,0 UV-I 89 W/m 17,7 C 20,4 C 20,9 km/h (4 Bft) 95,45 %
02.08.2017 07:50 22,1 C 25,6 C 76 % 1019,6 hPa 0,0 l/m 13,2 km/h (3 Bft) W-SW 250 0 min 0,000 mm 0,0 UV-I 84 W/m 17,7 C 20,2 C 19,3 km/h (3 Bft) 96,00 %
02.08.2017 07:52 22,0 C 25,6 C 76 % 1019,5 hPa 0,0 l/m 8,7 km/h (2 Bft) W-SW 257 0 min 0,000 mm 0,0 UV-I 81 W/m 17,6 C 21,2 C 14,5 km/h (3 Bft) 95,74 %
02.08.2017 07:54 22,0 C 25,6 C 76 % 1019,5 hPa 0,0 l/m 10,6 km/h (2 Bft) W 271 0 min 0,000 mm 0,0 UV-I 85 W/m 17,6 C 20,7 C 16,1 km/h (3 Bft) 100,00 %
02.08.2017 07:56 22,0 C 25,6 C 76 % 1019,5 hPa 0,0 l/m 7,7 km/h (2 Bft) W-SW 256 0 min 0,000 mm 0,0 UV-I 92 W/m 17,6 C 21,6 C 12,9 km/h (3 Bft) 98,00 %
02.08.2017 07:58 22,0 C 25,6 C 76 % 1019,4 hPa 0,0 l/m 6,9 km/h (2 Bft) W-SW 257 0 min 0,000 mm 0,0 UV-I 100 W/m 17,6 C 21,8 C 11,3 km/h (2 Bft) 97,22 %
02.08.2017 08:00 22,0 C 25,6 C 76 % 1019,5 hPa 0,0 l/m 9,1 km/h (2 Bft) W-SW 252 0 min 0,102 mm 0,0 UV-I 99 W/m 17,6 C 21,1 C 14,5 km/h (3 Bft) 96,36 %
02.08.2017 08:02 22,0 C 25,6 C 76 % 1019,5 hPa 0,0 l/m 10,1 km/h (2 Bft) W-SW 252 0 min 0,000 mm 0,0 UV-I 85 W/m 17,6 C 20,8 C 17,7 km/h (3 Bft) 100,00 %
02.08.2017 08:04 22,0 C 25,6 C 76 % 1019,4 hPa 0,0 l/m 7,7 km/h (2 Bft) W-SW 253 0 min 0,000 mm 0,0 UV-I 71 W/m 17,6 C 21,6 C 11,3 km/h (2 Bft) 100,00 %
02.08.2017 08:06 22,0 C 25,6 C 76 % 1019,4 hPa 0,0 l/m 6,6 km/h (2 Bft) SW 227 0 min 0,000 mm 0,0 UV-I 69 W/m 17,6 C 21,9 C 9,7 km/h (2 Bft) 100,00 %
02.08.2017 08:08 21,9 C 25,6 C 76 % 1019,4 hPa 0,0 l/m 5,8 km/h (2 Bft) SW 219 0 min 0,000 mm 0,0 UV-I 71 W/m 17,5 C 21,9 C 8,0 km/h (2 Bft) 96,23 %
02.08.2017 08:10 22,0 C 25,6 C 76 % 1019,4 hPa 0,0 l/m 6,4 km/h (2 Bft) SW 229 0 min 0,000 mm 0,0 UV-I 77 W/m 17,6 C 22,0 C 9,7 km/h (2 Bft) 95,12 %
02.08.2017 08:12 21,9 C 25,6 C 76 % 1019,4 hPa 0,0 l/m 4,9 km/h (1 Bft) SW 230 0 min 0,000 mm 0,0 UV-I 79 W/m 17,5 C 21,9 C 8,0 km/h (2 Bft) 100,00 %
02.08.2017 08:14 21,9 C 25,6 C 76 % 1019,3 hPa 0,0 l/m 5,3 km/h (1 Bft) SW 218 0 min 0,000 mm 0,0 UV-I 77 W/m 17,5 C 21,9 C 8,0 km/h (2 Bft) 97,73 %
02.08.2017 08:16 21,9 C 25,6 C 76 % 1019,3 hPa 0,0 l/m 6,4 km/h (2 Bft) S-SW 208 0 min 0,000 mm 0,0 UV-I 71 W/m 17,5 C 21,9 C 9,7 km/h (2 Bft) 100,00 %
02.08.2017 08:18 21,9 C 25,6 C 76 % 1019,3 hPa 0,0 l/m 4,9 km/h (1 Bft) S-SW 206 0 min 0,000 mm 0,0 UV-I 63 W/m 17,5 C 21,9 C 8,0 km/h (2 Bft) 100,00 %
02.08.2017 08:20 21,9 C 25,6 C 77 % 1019,2 hPa 0,0 l/m 6,4 km/h (2 Bft) SW 214 0 min 0,000 mm 0,0 UV-I 55 W/m 17,7 C 21,9 C 9,7 km/h (2 Bft) 98,00 %
02.08.2017 08:22 21,9 C 25,6 C 77 % 1019,0 hPa 0,0 l/m 5,0 km/h (1 Bft) SW 234 0 min 0,000 mm 0,0 UV-I 48 W/m 17,7 C 21,9 C 9,7 km/h (2 Bft) 95,74 %
02.08.2017 08:24 21,8 C 25,6 C 77 % 1019,0 hPa 0,0 l/m 7,6 km/h (2 Bft) S-SW 209 0 min 0,000 mm 0,0 UV-I 40 W/m 17,6 C 21,4 C 11,3 km/h (2 Bft) 93,62 %
02.08.2017 08:26 21,8 C 25,6 C 78 % 1018,9 hPa 0,0 l/m 5,4 km/h (1 Bft) S 181 0 min 0,000 mm 0,0 UV-I 36 W/m 17,8 C 21,8 C 9,7 km/h (2 Bft) 98,11 %
02.08.2017 08:28 21,8 C 25,6 C 78 % 1018,8 hPa 0,0 l/m 4,5 km/h (1 Bft) SO 140 0 min 0,000 mm 0,0 UV-I 33 W/m 17,8 C 21,8 C 8,0 km/h (2 Bft) 95,12 %
02.08.2017 08:30 21,8 C 25,6 C 79 % 1018,5 hPa 0,0 l/m 8,8 km/h (2 Bft) O-SO 119 0 min 0,000 mm 0,0 UV-I 34 W/m 18,0 C 21,0 C 12,9 km/h (3 Bft) 97,37 %
02.08.2017 08:32 21,7 C 25,6 C 79 % 1018,3 hPa 0,0 l/m 9,7 km/h (2 Bft) O-SO 117 0 min 0,000 mm 0,0 UV-I 38 W/m 17,9 C 20,6 C 12,9 km/h (3 Bft) 96,00 %
02.08.2017 08:34 21,7 C 25,6 C 79 % 1018,1 hPa 0,0 l/m 8,8 km/h (2 Bft) O-SO 121 0 min 0,000 mm 0,0 UV-I 42 W/m 17,9 C 20,9 C 12,9 km/h (3 Bft) 90,00 %
02.08.2017 08:36 21,7 C 25,6 C 79 % 1017,9 hPa 0,0 l/m 9,1 km/h (2 Bft) SO 127 0 min 0,000 mm 0,0 UV-I 47 W/m 17,9 C 20,8 C 12,9 km/h (3 Bft) 91,49 %
02.08.2017 08:38 21,7 C 25,6 C 78 % 1017,8 hPa 0,0 l/m 14,0 km/h (3 Bft) SO 140 0 min 0,000 mm 0,0 UV-I 54 W/m 17,7 C 19,5 C 17,7 km/h (3 Bft) 98,00 %
02.08.2017 08:40 21,7 C 25,6 C 79 % 1017,7 hPa 0,0 l/m 8,7 km/h (2 Bft) S-SO 147 0 min 0,000 mm 0,0 UV-I 63 W/m 17,9 C 20,9 C 14,5 km/h (3 Bft) 97,44 %
02.08.2017 08:42 21,7 C 25,6 C 79 % 1018,2 hPa 0,0 l/m 3,8 km/h (1 Bft) S-SO 162 0 min 0,000 mm 0,0 UV-I 74 W/m 17,9 C 21,7 C 6,4 km/h (2 Bft) 94,83 %
02.08.2017 08:44 21,7 C 25,6 C 79 % 1018,2 hPa 0,0 l/m 3,4 km/h (1 Bft) S 190 0 min 0,000 mm 0,0 UV-I 85 W/m 17,9 C 21,7 C 6,4 km/h (2 Bft) 92,86 %
02.08.2017 08:46 21,8 C 25,6 C 78 % 1018,1 hPa 0,0 l/m 7,3 km/h (2 Bft) SO 130 0 min 0,000 mm 0,0 UV-I 95 W/m 17,8 C 21,5 C 12,9 km/h (3 Bft) 95,74 %
02.08.2017 08:48 21,8 C 25,6 C 78 % 1018,0 hPa 0,0 l/m 8,7 km/h (2 Bft) SO 144 0 min 0,000 mm 0,5 UV-I 108 W/m 17,8 C 21,0 C 14,5 km/h (3 Bft) 97,56 %
02.08.2017 08:50 21,8 C 25,6 C 78 % 1018,2 hPa 0,0 l/m 4,0 km/h (1 Bft) S-SO 153 0 min 0,000 mm 0,6 UV-I 124 W/m 17,8 C 21,8 C 8,0 km/h (2 Bft) 96,23 %
02.08.2017 08:52 21,9 C 25,6 C 77 % 1018,2 hPa 0,0 l/m 3,3 km/h (1 Bft) S 169 0 min 0,000 mm 0,7 UV-I 141 W/m 17,7 C 21,9 C 6,4 km/h (2 Bft) 98,11 %
02.08.2017 08:54 21,9 C 25,6 C 77 % 1018,2 hPa 0,0 l/m 6,1 km/h (2 Bft) S-SO 156 0 min 0,000 mm 0,8 UV-I 157 W/m 17,7 C 21,9 C 9,7 km/h (2 Bft) 97,37 %
02.08.2017 08:56 22,0 C 25,6 C 77 % 1018,1 hPa 0,0 l/m 4,4 km/h (1 Bft) S-SO 163 0 min 0,000 mm 0,9 UV-I 169 W/m 17,8 C 22,0 C 9,7 km/h (2 Bft) 97,56 %
02.08.2017 08:58 22,1 C 25,6 C 76 % 1018,3 hPa 0,0 l/m 4,2 km/h (1 Bft) S 173 0 min 0,000 mm 0,9 UV-I 177 W/m 17,7 C 22,1 C 8,0 km/h (2 Bft) 100,00 %
02.08.2017 09:00 22,2 C 25,6 C 76 % 1018,3 hPa 0,0 l/m 2,4 km/h (1 Bft) SO 134 0 min 0,076 mm 1,0 UV-I 189 W/m 17,8 C 22,2 C 4,8 km/h (1 Bft) 100,00 %
02.08.2017 09:02 22,3 C 25,6 C 77 % 1018,4 hPa 0,0 l/m 2,1 km/h (1 Bft) S 184 0 min 0,000 mm 1,1 UV-I 200 W/m 18,1 C 22,3 C 4,8 km/h (1 Bft) 98,59 %
02.08.2017 09:04 22,4 C 25,6 C 77 % 1018,5 hPa 0,0 l/m 3,6 km/h (1 Bft) S-SW 205 0 min 0,000 mm 1,1 UV-I 202 W/m 18,2 C 22,4 C 6,4 km/h (2 Bft) 89,47 %
02.08.2017 09:06 22,4 C 25,6 C 75 % 1018,5 hPa 0,0 l/m 3,4 km/h (1 Bft) S 184 0 min 0,000 mm 1,2 UV-I 204 W/m 17,7 C 22,4 C 6,4 km/h (2 Bft) 98,00 %
02.08.2017 09:08 22,5 C 25,6 C 75 % 1018,4 hPa 0,0 l/m 3,4 km/h (1 Bft) W-SW 256 0 min 0,000 mm 1,2 UV-I 207 W/m 17,8 C 22,5 C 8,0 km/h (2 Bft) 100,00 %
02.08.2017 09:10 22,6 C 25,6 C 75 % 1018,4 hPa 0,0 l/m 3,4 km/h (1 Bft) W-SW 244 0 min 0,000 mm 1,3 UV-I 211 W/m 17,9 C 22,6 C 6,4 km/h (2 Bft) 97,56 %
02.08.2017 09:12 22,6 C 25,6 C 73 % 1018,4 hPa 0,0 l/m 2,8 km/h (1 Bft) SW 225 0 min 0,000 mm 1,3 UV-I 214 W/m 17,5 C 22,6 C 6,4 km/h (2 Bft) 98,11 %
02.08.2017 09:14 22,7 C 25,6 C 74 % 1018,4 hPa 0,0 l/m 2,4 km/h (1 Bft) SW 225 0 min 0,000 mm 1,3 UV-I 216 W/m 17,8 C 22,7 C 4,8 km/h (1 Bft) 100,00 %
02.08.2017 09:16 22,7 C 25,6 C 73 % 1018,4 hPa 0,0 l/m 2,0 km/h (1 Bft) SW 225 0 min 0,000 mm 1,4 UV-I 242 W/m 17,6 C 22,7 C 3,2 km/h (1 Bft) 100,00 %
02.08.2017 09:18 22,8 C 25,6 C 73 % 1018,4 hPa 0,0 l/m 1,5 km/h (1 Bft) SW 225 0 min 0,000 mm 1,5 UV-I 234 W/m 17,7 C 22,8 C 3,2 km/h (1 Bft) 100,00 %
02.08.2017 09:20 22,8 C 25,6 C 74 % 1018,4 hPa 0,0 l/m 3,2 km/h (1 Bft) SW 225 0 min 0,000 mm 1,6 UV-I 248 W/m 17,9 C 22,8 C 4,8 km/h (1 Bft) 96,23 %
02.08.2017 09:22 22,9 C 25,6 C 72 % 1018,3 hPa 0,0 l/m 2,5 km/h (1 Bft) SW 225 0 min 0,000 mm 1,7 UV-I 266 W/m 17,6 C 22,9 C 4,8 km/h (1 Bft) 93,62 %
02.08.2017 09:24 23,0 C 26,1 C 73 % 1018,3 hPa 0,0 l/m 0,4 km/h (0 Bft) SW 225 2 min 0,000 mm 2,0 UV-I 313 W/m 17,9 C 23,0 C 3,2 km/h (1 Bft) 97,37 %
02.08.2017 09:26 23,2 C 26,1 C 72 % 1018,3 hPa 0,0 l/m 2,4 km/h (1 Bft) SW 225 2 min 0,000 mm 2,1 UV-I 360 W/m 17,9 C 23,2 C 3,2 km/h (1 Bft) 97,62 %
02.08.2017 09:28 23,2 C 26,1 C 71 % 1018,4 hPa 0,0 l/m 1,3 km/h (1 Bft) SW 225 2 min 0,000 mm 1,9 UV-I 371 W/m 17,6 C 23,2 C 3,2 km/h (1 Bft) 98,11 %
02.08.2017 09:30 23,3 C 26,1 C 73 % 1018,4 hPa 0,0 l/m 1,2 km/h (1 Bft) SW 227 2 min 0,000 mm 1,8 UV-I 320 W/m 18,2 C 23,3 C 3,2 km/h (1 Bft) 98,11 %
02.08.2017 09:32 23,4 C 26,1 C 70 % 1018,4 hPa 0,0 l/m 1,9 km/h (1 Bft) SW 228 2 min 0,000 mm 2,4 UV-I 489 W/m 17,6 C 23,4 C 4,8 km/h (1 Bft) 96,23 %
02.08.2017 09:34 23,6 C 26,1 C 69 % 1018,3 hPa 0,0 l/m 0,7 km/h (0 Bft) SW 228 2 min 0,000 mm 2,4 UV-I 591 W/m 17,6 C 23,6 C 3,2 km/h (1 Bft) 97,14 %
02.08.2017 09:36 23,7 C 26,1 C 70 % 1018,3 hPa 0,0 l/m 0,9 km/h (0 Bft) SW 228 2 min 0,000 mm 2,5 UV-I 582 W/m 17,9 C 23,7 C 3,2 km/h (1 Bft) 96,00 %
02.08.2017 09:38 23,8 C 26,1 C 69 % 1018,2 hPa 0,0 l/m 2,2 km/h (1 Bft) S-SW 202 2 min 0,000 mm 2,5 UV-I 581 W/m 17,8 C 23,8 C 6,4 km/h (2 Bft) 94,34 %
02.08.2017 09:40 23,9 C 26,1 C 69 % 1018,3 hPa 0,0 l/m 2,8 km/h (1 Bft) S-SW 202 2 min 0,000 mm 2,6 UV-I 585 W/m 17,9 C 23,9 C 4,8 km/h (1 Bft) 95,74 %
02.08.2017 09:42 23,9 C 26,1 C 67 % 1018,2 hPa 0,0 l/m 0,5 km/h (0 Bft) S-SW 202 2 min 0,000 mm 2,6 UV-I 587 W/m 17,4 C 23,9 C 3,2 km/h (1 Bft) 94,74 %
02.08.2017 09:44 24,1 C 26,1 C 71 % 1018,3 hPa 0,0 l/m 2,5 km/h (1 Bft) SW 233 2 min 0,000 mm 2,6 UV-I 569 W/m 18,5 C 24,1 C 6,4 km/h (2 Bft) 96,23 %
02.08.2017 09:46 24,2 C 26,1 C 67 % 1018,3 hPa 0,0 l/m 2,1 km/h (1 Bft) W 267 2 min 0,000 mm 2,7 UV-I 592 W/m 17,7 C 24,2 C 4,8 km/h (1 Bft) 95,12 %
02.08.2017 09:48 24,4 C 26,1 C 67 % 1018,2 hPa 0,0 l/m 1,4 km/h (1 Bft) W 267 2 min 0,000 mm 2,7 UV-I 600 W/m 17,9 C 24,4 C 4,8 km/h (1 Bft) 95,74 %
02.08.2017 09:50 24,7 C 26,1 C 66 % 1018,2 hPa 0,0 l/m 1,8 km/h (1 Bft) W 267 2 min 0,000 mm 2,8 UV-I 609 W/m 17,9 C 24,7 C 4,8 km/h (1 Bft) 96,00 %
02.08.2017 09:52 24,8 C 26,1 C 64 % 1018,2 hPa 0,0 l/m 1,9 km/h (1 Bft) W 267 2 min 0,000 mm 2,9 UV-I 618 W/m 17,5 C 24,8 C 4,8 km/h (1 Bft) 98,00 %
02.08.2017 09:54 24,9 C 26,1 C 64 % 1018,3 hPa 0,0 l/m 2,5 km/h (1 Bft) W-SW 249 2 min 0,000 mm 2,9 UV-I 630 W/m 17,6 C 24,9 C 6,4 km/h (2 Bft) 90,24 %
02.08.2017 09:56 25,0 C 26,1 C 61 % 1018,2 hPa 0,0 l/m 6,0 km/h (2 Bft) S-SW 200 2 min 0,000 mm 2,6 UV-I 639 W/m 16,9 C 25,0 C 11,3 km/h (2 Bft) 96,23 %
02.08.2017 09:58 25,2 C 26,1 C 60 % 1018,2 hPa 0,0 l/m 3,6 km/h (1 Bft) S-SO 157 2 min 0,000 mm 2,9 UV-I 619 W/m 16,9 C 25,2 C 8,0 km/h (2 Bft) 92,31 %
02.08.2017 10:00 25,3 C 26,1 C 58 % 1018,2 hPa 0,0 l/m 5,7 km/h (1 Bft) S-SW 203 2 min 0,280 mm 3,0 UV-I 656 W/m 16,4 C 25,3 C 9,7 km/h (2 Bft) 94,55 %
02.08.2017 10:02 25,4 C 26,1 C 60 % 1018,1 hPa 0,0 l/m 3,0 km/h (1 Bft) S-SO 168 2 min 0,000 mm 3,1 UV-I 677 W/m 17,1 C 25,4 C 6,4 km/h (2 Bft) 91,84 %
02.08.2017 10:04 25,5 C 26,1 C 57 % 1018,1 hPa 0,0 l/m 2,5 km/h (1 Bft) S-SO 168 2 min 0,000 mm 3,2 UV-I 700 W/m 16,3 C 25,5 C 6,4 km/h (2 Bft) 97,87 %
02.08.2017 10:06 25,3 C 26,1 C 57 % 1018,1 hPa 0,0 l/m 0,6 km/h (0 Bft) S-SO 168 2 min 0,000 mm 3,3 UV-I 732 W/m 16,2 C 25,3 C 3,2 km/h (1 Bft) 97,37 %
02.08.2017 10:08 25,4 C 26,1 C 60 % 1018,0 hPa 0,0 l/m 1,0 km/h (0 Bft) S-SO 168 2 min 0,000 mm 3,4 UV-I 767 W/m 17,1 C 25,4 C 3,2 km/h (1 Bft) 97,87 %
02.08.2017 10:10 25,5 C 26,1 C 60 % 1018,0 hPa 0,0 l/m 1,4 km/h (1 Bft) S-SW 207 2 min 0,000 mm 3,4 UV-I 796 W/m 17,2 C 25,5 C 3,2 km/h (1 Bft) 97,87 %
02.08.2017 10:12 25,7 C 26,1 C 57 % 1018,0 hPa 0,0 l/m 3,1 km/h (1 Bft) W-NW 290 2 min 0,000 mm 3,5 UV-I 817 W/m 16,5 C 25,7 C 6,4 km/h (2 Bft) 100,00 %
02.08.2017 10:14 25,8 C 26,1 C 56 % 1018,0 hPa 0,0 l/m 5,0 km/h (1 Bft) W 263 2 min 0,000 mm 3,4 UV-I 811 W/m 16,3 C 25,8 C 9,7 km/h (2 Bft) 97,73 %
02.08.2017 10:16 25,8 C 26,1 C 58 % 1018,0 hPa 0,0 l/m 3,0 km/h (1 Bft) SW 232 2 min 0,000 mm 3,2 UV-I 809 W/m 16,9 C 25,8 C 9,7 km/h (2 Bft) 90,00 %
02.08.2017 10:18 25,8 C 26,1 C 56 % 1018,0 hPa 0,0 l/m 0,7 km/h (0 Bft) SW 232 2 min 0,000 mm 2,9 UV-I 436 W/m 16,3 C 25,8 C 1,6 km/h (1 Bft) 89,47 %
02.08.2017 10:20 25,8 C 26,1 C 57 % 1018,0 hPa 0,0 l/m 2,1 km/h (1 Bft) SW 232 2 min 0,000 mm 3,2 UV-I 422 W/m 16,6 C 25,8 C 4,8 km/h (1 Bft) 92,00 %
02.08.2017 10:23 25,8 C 26,1 C 57 % 1018,0 hPa 0,0 l/m 0,8 km/h (0 Bft) SW 232 3 min 0,000 mm 3,1 UV-I 589 W/m 16,6 C 25,8 C 1,6 km/h (1 Bft) 97,18 %
02.08.2017 10:24 25,9 C 26,1 C 58 % 1018,0 hPa 0,0 l/m 1,9 km/h (1 Bft) N-NW 348 1 min 0,000 mm 3,5 UV-I 705 W/m 17,0 C 25,9 C 3,2 km/h (1 Bft) 82,35 %
02.08.2017 10:26 26,0 C 26,1 C 58 % 1018,0 hPa 0,0 l/m 2,6 km/h (1 Bft) NW 306 2 min 0,000 mm 3,6 UV-I 701 W/m 17,1 C 26,0 C 4,8 km/h (1 Bft) 96,61 %
02.08.2017 10:28 26,2 C 26,1 C 58 % 1018,0 hPa 0,0 l/m 3,1 km/h (1 Bft) W-NW 290 2 min 0,000 mm 3,7 UV-I 713 W/m 17,3 C 26,2 C 4,8 km/h (1 Bft) 91,67 %
02.08.2017 10:30 26,2 C 26,1 C 55 % 1018,0 hPa 0,0 l/m 3,5 km/h (1 Bft) W 278 2 min 0,000 mm 3,7 UV-I 731 W/m 16,4 C 26,2 C 6,4 km/h (2 Bft) 95,52 %
02.08.2017 10:32 26,0 C 26,1 C 56 % 1018,0 hPa 0,0 l/m 1,0 km/h (0 Bft) W-NW 286 2 min 0,000 mm 3,4 UV-I 745 W/m 16,5 C 26,0 C 3,2 km/h (1 Bft) 94,00 %
02.08.2017 10:34 25,9 C 26,1 C 57 % 1017,9 hPa 0,0 l/m 1,0 km/h (0 Bft) NW 313 2 min 0,000 mm 3,3 UV-I 746 W/m 16,7 C 25,9 C 1,6 km/h (1 Bft) 94,74 %
02.08.2017 10:36 25,9 C 26,1 C 58 % 1017,9 hPa 0,0 l/m 3,2 km/h (1 Bft) NW 308 2 min 0,000 mm 3,7 UV-I 746 W/m 17,0 C 25,9 C 6,4 km/h (2 Bft) 94,00 %
02.08.2017 10:38 25,9 C 26,1 C 59 % 1017,9 hPa 0,0 l/m 3,9 km/h (1 Bft) N 10 2 min 0,000 mm 3,9 UV-I 751 W/m 17,3 C 25,9 C 8,0 km/h (2 Bft) 96,23 %
02.08.2017 10:40 26,1 C 26,1 C 60 % 1017,9 hPa 0,0 l/m 3,3 km/h (1 Bft) N-NW 337 2 min 0,000 mm 4,0 UV-I 761 W/m 17,7 C 26,1 C 8,0 km/h (2 Bft) 95,24 %
02.08.2017 10:42 26,2 C 26,1 C 58 % 1017,8 hPa 0,0 l/m 2,6 km/h (1 Bft) N 5 2 min 0,000 mm 4,0 UV-I 759 W/m 17,3 C 26,2 C 4,8 km/h (1 Bft) 96,00 %
02.08.2017 10:44 26,3 C 26,1 C 59 % 1017,8 hPa 0,0 l/m 3,7 km/h (1 Bft) N 355 2 min 0,000 mm 3,9 UV-I 740 W/m 17,6 C 26,3 C 6,4 km/h (2 Bft) 93,62 %
02.08.2017 10:46 26,5 C 26,1 C 57 % 1017,8 hPa 0,0 l/m 3,8 km/h (1 Bft) N-NW 340 2 min 0,000 mm 4,0 UV-I 732 W/m 17,3 C 26,5 C 6,4 km/h (2 Bft) 94,74 %
02.08.2017 10:48 26,5 C 26,1 C 57 % 1017,8 hPa 0,0 l/m 2,5 km/h (1 Bft) NW 304 2 min 0,000 mm 3,9 UV-I 752 W/m 17,3 C 26,5 C 6,4 km/h (2 Bft) 100,00 %
02.08.2017 10:50 26,4 C 26,1 C 58 % 1017,8 hPa 0,0 l/m 4,3 km/h (1 Bft) N 11 2 min 0,000 mm 4,2 UV-I 770 W/m 17,5 C 26,4 C 8,0 km/h (2 Bft) 100,00 %
02.08.2017 10:52 26,4 C 26,1 C 58 % 1017,7 hPa 0,0 l/m 4,0 km/h (1 Bft) N 355 2 min 0,000 mm 4,3 UV-I 784 W/m 17,5 C 26,4 C 12,9 km/h (3 Bft) 96,00 %
02.08.2017 10:54 26,5 C 26,1 C 59 % 1017,7 hPa 0,0 l/m 3,5 km/h (1 Bft) N-NO 23 2 min 0,000 mm 4,5 UV-I 826 W/m 17,8 C 26,5 C 6,4 km/h (2 Bft) 98,11 %
02.08.2017 10:56 26,5 C 26,1 C 59 % 1017,8 hPa 0,0 l/m 3,4 km/h (1 Bft) NW 319 2 min 0,000 mm 4,4 UV-I 825 W/m 17,8 C 26,5 C 9,7 km/h (2 Bft) 97,56 %
02.08.2017 10:58 26,7 C 26,1 C 59 % 1017,8 hPa 0,0 l/m 6,8 km/h (2 Bft) N 11 2 min 0,000 mm 4,4 UV-I 801 W/m 18,0 C 26,6 C 12,9 km/h (3 Bft) 98,11 %
02.08.2017 11:00 26,9 C 26,1 C 59 % 1017,8 hPa 0,0 l/m 2,9 km/h (1 Bft) W-NW 300 2 min 0,457 mm 4,0 UV-I 785 W/m 18,2 C 26,9 C 8,0 km/h (2 Bft) 97,56 %
02.08.2017 11:02 26,9 C 26,1 C 55 % 1017,8 hPa 0,0 l/m 3,0 km/h (1 Bft) NW 314 2 min 0,000 mm 4,4 UV-I 770 W/m 17,1 C 26,9 C 8,0 km/h (2 Bft) 97,14 %
02.08.2017 11:04 26,9 C 26,1 C 56 % 1017,8 hPa 0,0 l/m 2,0 km/h (1 Bft) N 355 2 min 0,000 mm 4,4 UV-I 750 W/m 17,4 C 26,9 C 3,2 km/h (1 Bft) 98,31 %
02.08.2017 11:06 26,8 C 26,1 C 55 % 1017,8 hPa 0,0 l/m 3,6 km/h (1 Bft) N-NW 343 2 min 0,000 mm 4,4 UV-I 744 W/m 17,0 C 26,8 C 8,0 km/h (2 Bft) 96,00 %
02.08.2017 11:08 26,6 C 26,1 C 57 % 1017,8 hPa 0,0 l/m 3,8 km/h (1 Bft) N-NO 13 2 min 0,000 mm 4,4 UV-I 749 W/m 17,4 C 26,6 C 9,7 km/h (2 Bft) 100,00 %
02.08.2017 11:10 26,7 C 26,1 C 58 % 1017,7 hPa 0,0 l/m 5,9 km/h (2 Bft) O-NO 68 2 min 0,000 mm 4,5 UV-I 752 W/m 17,7 C 26,7 C 11,3 km/h (2 Bft) 100,00 %
02.08.2017 11:12 26,8 C 26,1 C 58 % 1017,7 hPa 0,0 l/m 10,6 km/h (2 Bft) W-NW 289 2 min 0,000 mm 4,5 UV-I 750 W/m 17,8 C 26,1 C 17,7 km/h (3 Bft) 100,00 %
02.08.2017 11:14 26,9 C 26,1 C 58 % 1017,7 hPa 0,0 l/m 7,9 km/h (2 Bft) NO 34 2 min 0,000 mm 4,5 UV-I 756 W/m 17,9 C 26,6 C 16,1 km/h (3 Bft) 95,83 %
02.08.2017 11:16 26,9 C 26,1 C 58 % 1017,7 hPa 0,0 l/m 6,1 km/h (2 Bft) NO 42 2 min 0,000 mm 4,5 UV-I 740 W/m 17,9 C 26,9 C 9,7 km/h (2 Bft) 96,15 %
02.08.2017 11:18 26,9 C 26,1 C 58 % 1017,7 hPa 0,0 l/m 1,5 km/h (1 Bft) N 9 2 min 0,000 mm 4,5 UV-I 749 W/m 17,9 C 26,9 C 4,8 km/h (1 Bft) 100,00 %
02.08.2017 11:20 26,9 C 26,1 C 56 % 1017,6 hPa 0,0 l/m 2,0 km/h (1 Bft) NW 325 2 min 0,000 mm 4,6 UV-I 755 W/m 17,4 C 26,9 C 4,8 km/h (1 Bft) 98,00 %
02.08.2017 11:22 26,9 C 26,1 C 56 % 1017,6 hPa 0,0 l/m 2,1 km/h (1 Bft) NW 320 2 min 0,000 mm 4,7 UV-I 764 W/m 17,4 C 26,9 C 4,8 km/h (1 Bft) 100,00 %
02.08.2017 11:24 27,1 C 26,1 C 60 % 1017,6 hPa 0,0 l/m 6,9 km/h (2 Bft) NO 40 2 min 0,000 mm 4,7 UV-I 765 W/m 18,6 C 27,0 C 14,5 km/h (3 Bft) 96,23 %
02.08.2017 11:26 27,2 C 26,1 C 58 % 1017,6 hPa 0,0 l/m 6,0 km/h (2 Bft) N-NO 24 2 min 0,000 mm 4,8 UV-I 770 W/m 18,2 C 27,2 C 9,7 km/h (2 Bft) 95,12 %
02.08.2017 11:28 27,2 C 26,1 C 56 % 1017,6 hPa 0,0 l/m 4,1 km/h (1 Bft) N-NO 30 2 min 0,000 mm 4,6 UV-I 774 W/m 17,6 C 27,2 C 8,0 km/h (2 Bft) 97,87 %
02.08.2017 11:30 27,0 C 26,1 C 56 % 1017,6 hPa 0,0 l/m 1,2 km/h (1 Bft) N-NO 29 2 min 0,000 mm 4,9 UV-I 788 W/m 17,5 C 27,0 C 3,2 km/h (1 Bft) 100,00 %
02.08.2017 11:32 27,0 C 26,1 C 57 % 1017,6 hPa 0,0 l/m 1,3 km/h (1 Bft) N-NO 28 2 min 0,000 mm 4,9 UV-I 800 W/m 17,7 C 27,0 C 3,2 km/h (1 Bft) 100,00 %
02.08.2017 11:34 27,1 C 26,1 C 60 % 1017,6 hPa 0,0 l/m 1,7 km/h (1 Bft) N-NO 12 2 min 0,000 mm 5,0 UV-I 814 W/m 18,6 C 27,1 C 3,2 km/h (1 Bft) 97,14 %
02.08.2017 11:36 27,2 C 26,1 C 58 % 1017,6 hPa 0,0 l/m 3,3 km/h (1 Bft) N-NW 338 2 min 0,000 mm 5,1 UV-I 843 W/m 18,2 C 27,2 C 4,8 km/h (1 Bft) 96,23 %
02.08.2017 11:38 27,2 C 26,1 C 54 % 1017,6 hPa 0,0 l/m 1,9 km/h (1 Bft) N-NW 331 2 min 0,000 mm 4,8 UV-I 877 W/m 17,1 C 27,2 C 4,8 km/h (1 Bft) 100,00 %
02.08.2017 11:40 27,1 C 26,1 C 56 % 1017,6 hPa 0,0 l/m 5,7 km/h (1 Bft) N-NO 24 0 min 0,000 mm 3,8 UV-I 403 W/m 17,5 C 27,1 C 14,5 km/h (3 Bft) 96,23 %
02.08.2017 11:42 27,1 C 26,1 C 58 % 1017,4 hPa 0,0 l/m 5,8 km/h (2 Bft) NO 35 2 min 0,000 mm 4,8 UV-I 654 W/m 18,1 C 27,1 C 8,0 km/h (2 Bft) 97,56 %
02.08.2017 11:44 26,9 C 26,1 C 53 % 1017,5 hPa 0,0 l/m 2,2 km/h (1 Bft) NO 35 2 min 0,000 mm 4,9 UV-I 651 W/m 16,5 C 26,9 C 4,8 km/h (1 Bft) 98,00 %
02.08.2017 11:46 26,9 C 26,1 C 53 % 1017,4 hPa 0,0 l/m 2,0 km/h (1 Bft) NO 44 2 min 0,000 mm 5,2 UV-I 759 W/m 16,5 C 26,9 C 4,8 km/h (1 Bft) 93,62 %
02.08.2017 11:48 27,1 C 26,1 C 56 % 1017,5 hPa 0,0 l/m 2,2 km/h (1 Bft) N-NO 27 2 min 0,000 mm 5,3 UV-I 837 W/m 17,5 C 27,1 C 9,7 km/h (2 Bft) 94,00 %
02.08.2017 11:50 27,4 C 26,1 C 57 % 1017,5 hPa 0,0 l/m 3,0 km/h (1 Bft) N-NW 336 2 min 0,000 mm 5,3 UV-I 822 W/m 18,1 C 27,4 C 9,7 km/h (2 Bft) 100,00 %
02.08.2017 11:52 27,4 C 26,1 C 52 % 1017,4 hPa 0,0 l/m 2,1 km/h (1 Bft) N 5 2 min 0,000 mm 5,3 UV-I 814 W/m 16,7 C 27,4 C 4,8 km/h (1 Bft) 100,00 %
02.08.2017 11:54 27,4 C 26,1 C 59 % 1017,5 hPa 0,0 l/m 6,1 km/h (2 Bft) N-NO 26 2 min 0,000 mm 5,3 UV-I 809 W/m 18,7 C 27,4 C 11,3 km/h (2 Bft) 97,56 %
02.08.2017 11:56 27,6 C 26,1 C 56 % 1017,5 hPa 0,0 l/m 5,1 km/h (1 Bft) NO 56 2 min 0,000 mm 5,3 UV-I 792 W/m 18,0 C 27,6 C 14,5 km/h (3 Bft) 100,00 %
02.08.2017 11:58 27,4 C 26,1 C 54 % 1017,5 hPa 0,0 l/m 1,5 km/h (1 Bft) NW 320 2 min 0,000 mm 5,4 UV-I 807 W/m 17,3 C 27,4 C 4,8 km/h (1 Bft) 100,00 %
02.08.2017 12:00 27,4 C 26,1 C 58 % 1017,5 hPa 0,0 l/m 2,7 km/h (1 Bft) N-NO 15 2 min 0,508 mm 5,4 UV-I 807 W/m 18,4 C 27,4 C 6,4 km/h (2 Bft) 100,00 %
02.08.2017 12:02 27,4 C 26,1 C 59 % 1017,6 hPa 0,0 l/m 2,5 km/h (1 Bft) N-NO 13 2 min 0,000 mm 5,4 UV-I 807 W/m 18,7 C 27,4 C 4,8 km/h (1 Bft) 93,75 %
02.08.2017 12:04 27,4 C 26,1 C 56 % 1017,5 hPa 0,0 l/m 2,4 km/h (1 Bft) O 80 2 min 0,000 mm 5,4 UV-I 807 W/m 17,8 C 27,4 C 6,4 km/h (2 Bft) 98,31 %
02.08.2017 12:06 27,4 C 26,1 C 55 % 1017,6 hPa 0,0 l/m 2,4 km/h (1 Bft) W-NW 299 2 min 0,000 mm 5,4 UV-I 807 W/m 17,5 C 27,4 C 4,8 km/h (1 Bft) 100,00 %
02.08.2017 12:08 27,4 C 26,7 C 54 % 1017,5 hPa 0,0 l/m 5,7 km/h (1 Bft) N-NO 28 2 min 0,000 mm 5,5 UV-I 809 W/m 17,3 C 27,4 C 16,1 km/h (3 Bft) 94,37 %
02.08.2017 12:10 27,6 C 26,7 C 59 % 1017,5 hPa 0,0 l/m 7,8 km/h (2 Bft) O-NO 64 2 min 0,000 mm 5,5 UV-I 811 W/m 18,8 C 27,4 C 16,1 km/h (3 Bft) 92,11 %
02.08.2017 12:12 27,7 C 26,7 C 58 % 1017,5 hPa 0,0 l/m 4,8 km/h (1 Bft) O-SO 105 2 min 0,000 mm 5,6 UV-I 812 W/m 18,7 C 27,7 C 11,3 km/h (2 Bft) 91,49 %
02.08.2017 12:14 27,7 C 26,7 C 53 % 1017,4 hPa 0,0 l/m 2,9 km/h (1 Bft) N 5 2 min 0,000 mm 5,6 UV-I 812 W/m 17,2 C 27,7 C 6,4 km/h (2 Bft) 97,87 %
02.08.2017 12:16 27,7 C 26,7 C 57 % 1017,4 hPa 0,0 l/m 2,4 km/h (1 Bft) N-NO 13 2 min 0,000 mm 5,6 UV-I 814 W/m 18,4 C 27,7 C 6,4 km/h (2 Bft) 96,00 %
02.08.2017 12:18 27,7 C 26,7 C 57 % 1017,4 hPa 0,0 l/m 5,5 km/h (1 Bft) N 9 2 min 0,000 mm 5,6 UV-I 816 W/m 18,4 C 27,7 C 12,9 km/h (3 Bft) 92,45 %
02.08.2017 12:20 27,6 C 26,7 C 55 % 1017,4 hPa 0,0 l/m 3,9 km/h (1 Bft) NW 310 2 min 0,000 mm 5,6 UV-I 816 W/m 17,7 C 27,6 C 8,0 km/h (2 Bft) 97,37 %
02.08.2017 12:22 27,6 C 26,7 C 58 % 1017,4 hPa 0,0 l/m 1,7 km/h (1 Bft) N-NW 331 2 min 0,000 mm 5,6 UV-I 817 W/m 18,6 C 27,6 C 4,8 km/h (1 Bft) 94,00 %
02.08.2017 12:24 27,8 C 26,7 C 54 % 1017,5 hPa 0,0 l/m 1,6 km/h (1 Bft) NW 315 2 min 0,000 mm 5,7 UV-I 819 W/m 17,6 C 27,8 C 4,8 km/h (1 Bft) 92,00 %
02.08.2017 12:26 27,8 C 26,7 C 55 % 1017,5 hPa 0,0 l/m 1,8 km/h (1 Bft) N 9 2 min 0,000 mm 5,7 UV-I 821 W/m 17,9 C 27,8 C 4,8 km/h (1 Bft) 93,62 %
02.08.2017 12:28 27,8 C 26,7 C 55 % 1017,5 hPa 0,0 l/m 6,2 km/h (2 Bft) N 355 2 min 0,000 mm 5,7 UV-I 821 W/m 17,9 C 27,8 C 16,1 km/h (3 Bft) 97,37 %
02.08.2017 12:30 27,8 C 26,7 C 55 % 1017,5 hPa 0,0 l/m 3,9 km/h (1 Bft) N-NO 22 2 min 0,000 mm 5,8 UV-I 821 W/m 17,9 C 27,8 C 12,9 km/h (3 Bft) 98,31 %
02.08.2017 12:32 27,8 C 26,7 C 55 % 1017,5 hPa 0,0 l/m 3,1 km/h (1 Bft) N-NO 19 2 min 0,000 mm 5,8 UV-I 823 W/m 17,9 C 27,8 C 8,0 km/h (2 Bft) 97,56 %
02.08.2017 12:34 27,7 C 26,7 C 54 % 1017,5 hPa 0,0 l/m 2,1 km/h (1 Bft) N-NW 336 2 min 0,000 mm 5,8 UV-I 825 W/m 17,5 C 27,7 C 6,4 km/h (2 Bft) 100,00 %
02.08.2017 12:36 27,7 C 26,7 C 55 % 1017,5 hPa 0,0 l/m 3,3 km/h (1 Bft) NO 41 2 min 0,000 mm 5,8 UV-I 822 W/m 17,8 C 27,7 C 8,0 km/h (2 Bft) 100,00 %
02.08.2017 12:38 27,8 C 26,7 C 56 % 1017,5 hPa 0,0 l/m 4,6 km/h (1 Bft) N-NO 22 2 min 0,000 mm 5,8 UV-I 828 W/m 18,2 C 27,8 C 17,7 km/h (3 Bft) 100,00 %
02.08.2017 12:40 27,9 C 26,7 C 56 % 1017,4 hPa 0,0 l/m 5,1 km/h (1 Bft) W-NW 292 2 min 0,000 mm 5,9 UV-I 830 W/m 18,3 C 27,9 C 9,7 km/h (2 Bft) 97,56 %
02.08.2017 12:42 27,9 C 26,7 C 52 % 1017,5 hPa 0,0 l/m 3,5 km/h (1 Bft) NO 47 2 min 0,000 mm 5,9 UV-I 830 W/m 17,1 C 27,9 C 9,7 km/h (2 Bft) 100,00 %
02.08.2017 12:44 28,0 C 26,7 C 55 % 1017,4 hPa 0,0 l/m 3,6 km/h (1 Bft) NW 304 2 min 0,000 mm 5,9 UV-I 831 W/m 18,1 C 28,0 C 6,4 km/h (2 Bft) 98,31 %
02.08.2017 12:46 28,0 C 26,7 C 55 % 1017,4 hPa 0,0 l/m 3,4 km/h (1 Bft) NW 323 2 min 0,000 mm 5,9 UV-I 835 W/m 18,1 C 28,0 C 8,0 km/h (2 Bft) 100,00 %
02.08.2017 12:48 28,1 C 26,7 C 55 % 1017,4 hPa 0,0 l/m 2,7 km/h (1 Bft) NW 326 2 min 0,000 mm 6,0 UV-I 839 W/m 18,2 C 28,1 C 6,4 km/h (2 Bft) 100,00 %
02.08.2017 12:50 28,2 C 26,7 C 55 % 1017,4 hPa 0,0 l/m 4,8 km/h (1 Bft) N-NO 17 2 min 0,000 mm 6,0 UV-I 847 W/m 18,3 C 28,2 C 17,7 km/h (3 Bft) 100,00 %
02.08.2017 12:53 28,4 C 26,7 C 55 % 1017,3 hPa 0,0 l/m 10,2 km/h (2 Bft) N-NO 28 3 min 0,000 mm 5,7 UV-I 878 W/m 18,5 C 27,9 C 19,3 km/h (3 Bft) 97,01 %
02.08.2017 12:54 28,4 C 26,7 C 54 % 1017,3 hPa 0,0 l/m 10,2 km/h (2 Bft) N-NO 33 1 min 0,000 mm 3,9 UV-I 486 W/m 18,2 C 27,9 C 16,1 km/h (3 Bft) 96,30 %
02.08.2017 12:56 28,2 C 26,7 C 57 % 1017,3 hPa 0,0 l/m 7,3 km/h (2 Bft) N-NO 13 2 min 0,000 mm 5,0 UV-I 547 W/m 18,9 C 28,1 C 12,9 km/h (3 Bft) 96,00 %
02.08.2017 12:58 28,1 C 26,7 C 52 % 1017,3 hPa 0,0 l/m 4,2 km/h (1 Bft) N-NO 16 2 min 0,000 mm 5,8 UV-I 721 W/m 17,3 C 28,1 C 8,0 km/h (2 Bft) 94,29 %
02.08.2017 13:00 27,9 C 26,7 C 54 % 1017,3 hPa 0,0 l/m 2,2 km/h (1 Bft) NO 34 2 min 0,559 mm 5,6 UV-I 719 W/m 17,7 C 27,9 C 9,7 km/h (2 Bft) 97,87 %
02.08.2017 13:02 28,1 C 26,7 C 55 % 1017,2 hPa 0,0 l/m 6,6 km/h (2 Bft) N-NO 26 2 min 0,000 mm 5,8 UV-I 797 W/m 18,2 C 28,1 C 14,5 km/h (3 Bft) 95,12 %
02.08.2017 13:04 28,1 C 26,7 C 52 % 1017,3 hPa 0,0 l/m 6,0 km/h (2 Bft) N-NW 348 2 min 0,000 mm 5,0 UV-I 716 W/m 17,3 C 28,1 C 9,7 km/h (2 Bft) 98,11 %
02.08.2017 13:06 28,2 C 26,7 C 55 % 1017,3 hPa 0,0 l/m 3,3 km/h (1 Bft) N 355 2 min 0,000 mm 4,7 UV-I 703 W/m 18,3 C 28,2 C 6,4 km/h (2 Bft) 96,23 %
02.08.2017 13:08 28,1 C 26,7 C 51 % 1017,3 hPa 0,0 l/m 2,9 km/h (1 Bft) NO 45 2 min 0,000 mm 6,1 UV-I 821 W/m 17,0 C 28,1 C 6,4 km/h (2 Bft) 92,00 %
02.08.2017 13:10 28,2 C 26,7 C 52 % 1017,3 hPa 0,0 l/m 1,7 km/h (1 Bft) N 355 2 min 0,000 mm 6,1 UV-I 884 W/m 17,4 C 28,2 C 4,8 km/h (1 Bft) 97,87 %
02.08.2017 13:12 28,2 C 26,7 C 54 % 1017,3 hPa 0,0 l/m 1,5 km/h (1 Bft) NW 323 2 min 0,000 mm 6,1 UV-I 856 W/m 18,0 C 28,2 C 3,2 km/h (1 Bft) 97,92 %
02.08.2017 13:14 28,3 C 26,7 C 53 % 1017,3 hPa 0,0 l/m 3,2 km/h (1 Bft) N-NW 331 2 min 0,000 mm 5,8 UV-I 841 W/m 17,8 C 28,3 C 6,4 km/h (2 Bft) 97,44 %
02.08.2017 13:16 28,4 C 26,7 C 53 % 1017,2 hPa 0,0 l/m 2,1 km/h (1 Bft) NO 54 2 min 0,000 mm 6,0 UV-I 837 W/m 17,9 C 28,4 C 4,8 km/h (1 Bft) 96,36 %
02.08.2017 13:18 28,6 C 26,7 C 52 % 1017,2 hPa 0,0 l/m 8,2 km/h (2 Bft) NO 50 2 min 0,000 mm 5,8 UV-I 795 W/m 17,8 C 28,4 C 12,9 km/h (3 Bft) 97,44 %
02.08.2017 13:20 28,7 C 26,7 C 52 % 1017,3 hPa 0,0 l/m 4,9 km/h (1 Bft) NW 324 2 min 0,000 mm 6,0 UV-I 834 W/m 17,8 C 28,7 C 9,7 km/h (2 Bft) 94,00 %
02.08.2017 13:23 28,6 C 26,7 C 50 % 1017,2 hPa 0,0 l/m 5,5 km/h (1 Bft) NO 39 3 min 0,000 mm 6,0 UV-I 841 W/m 17,1 C 28,6 C 14,5 km/h (3 Bft) 94,83 %
02.08.2017 13:24 28,6 C 26,7 C 50 % 1017,2 hPa 0,0 l/m 1,8 km/h (1 Bft) NO 39 1 min 0,000 mm 6,0 UV-I 835 W/m 17,1 C 28,6 C 3,2 km/h (1 Bft) 100,00 %
02.08.2017 13:26 28,4 C 26,7 C 49 % 1017,2 hPa 0,0 l/m 1,1 km/h (1 Bft) NO 38 2 min 0,000 mm 6,0 UV-I 833 W/m 16,6 C 28,4 C 3,2 km/h (1 Bft) 94,74 %
02.08.2017 13:28 28,6 C 26,7 C 53 % 1017,1 hPa 0,0 l/m 1,4 km/h (1 Bft) NO 34 2 min 0,000 mm 6,0 UV-I 830 W/m 18,1 C 28,6 C 3,2 km/h (1 Bft) 96,23 %
02.08.2017 13:30 28,7 C 26,7 C 53 % 1017,1 hPa 0,0 l/m 4,5 km/h (1 Bft) N-NO 12 2 min 0,000 mm 6,0 UV-I 829 W/m 18,2 C 28,7 C 8,0 km/h (2 Bft) 100,00 %
02.08.2017 13:32 28,8 C 26,7 C 53 % 1017,1 hPa 0,0 l/m 5,5 km/h (1 Bft) NO 50 2 min 0,000 mm 6,0 UV-I 830 W/m 18,2 C 28,8 C 8,0 km/h (2 Bft) 93,62 %
02.08.2017 13:34 28,9 C 26,7 C 53 % 1017,1 hPa 0,0 l/m 2,4 km/h (1 Bft) NO 36 2 min 0,000 mm 6,0 UV-I 830 W/m 18,3 C 28,9 C 6,4 km/h (2 Bft) 97,56 %
02.08.2017 13:36 28,9 C 26,7 C 54 % 1017,1 hPa 0,0 l/m 3,7 km/h (1 Bft) NO 52 2 min 0,000 mm 6,0 UV-I 830 W/m 18,6 C 28,9 C 8,0 km/h (2 Bft) 96,92 %
02.08.2017 13:38 28,8 C 26,7 C 51 % 1017,1 hPa 0,0 l/m 0,3 km/h (0 Bft) N 355 2 min 0,000 mm 6,0 UV-I 831 W/m 17,6 C 28,8 C 1,6 km/h (1 Bft) 94,74 %
02.08.2017 13:40 28,8 C 26,7 C 49 % 1017,1 hPa 0,0 l/m 3,0 km/h (1 Bft) N-NW 348 2 min 0,000 mm 6,0 UV-I 829 W/m 17,0 C 28,8 C 4,8 km/h (1 Bft) 100,00 %
02.08.2017 13:42 28,8 C 26,7 C 53 % 1017,0 hPa 0,0 l/m 2,0 km/h (1 Bft) N-NO 22 2 min 0,000 mm 6,0 UV-I 828 W/m 18,2 C 28,8 C 6,4 km/h (2 Bft) 96,30 %
02.08.2017 13:44 28,8 C 27,2 C 53 % 1017,0 hPa 0,0 l/m 3,4 km/h (1 Bft) N-NW 339 2 min 0,000 mm 6,0 UV-I 836 W/m 18,2 C 28,8 C 6,4 km/h (2 Bft) 98,51 %
02.08.2017 13:46 29,0 C 27,2 C 56 % 1017,0 hPa 0,0 l/m 3,0 km/h (1 Bft) N-NO 16 2 min 0,000 mm 6,0 UV-I 843 W/m 19,3 C 29,0 C 8,0 km/h (2 Bft) 97,87 %
02.08.2017 13:48 29,0 C 27,2 C 52 % 1017,1 hPa 0,0 l/m 2,1 km/h (1 Bft) N-NW 348 2 min 0,000 mm 6,0 UV-I 855 W/m 18,1 C 29,0 C 6,4 km/h (2 Bft) 95,24 %
02.08.2017 13:50 28,9 C 27,2 C 52 % 1017,0 hPa 0,0 l/m 5,7 km/h (1 Bft) N 11 2 min 0,000 mm 6,1 UV-I 877 W/m 18,0 C 28,9 C 8,0 km/h (2 Bft) 96,15 %
02.08.2017 13:52 29,2 C 27,2 C 52 % 1017,0 hPa 0,0 l/m 3,0 km/h (1 Bft) W-SW 239 2 min 0,000 mm 6,2 UV-I 892 W/m 18,3 C 29,2 C 4,8 km/h (1 Bft) 98,00 %
02.08.2017 13:54 29,2 C 27,2 C 50 % 1017,1 hPa 0,0 l/m 1,5 km/h (1 Bft) N-NW 334 2 min 0,000 mm 6,2 UV-I 897 W/m 17,7 C 29,2 C 4,8 km/h (1 Bft) 97,22 %
02.08.2017 13:56 29,1 C 27,2 C 50 % 1017,0 hPa 0,0 l/m 2,2 km/h (1 Bft) W 280 2 min 0,000 mm 6,1 UV-I 881 W/m 17,6 C 29,1 C 6,4 km/h (2 Bft) 98,11 %
02.08.2017 13:58 29,1 C 27,2 C 52 % 1017,0 hPa 0,0 l/m 2,8 km/h (1 Bft) NW 315 2 min 0,000 mm 6,0 UV-I 859 W/m 18,2 C 29,1 C 4,8 km/h (1 Bft) 94,00 %
02.08.2017 14:00 29,2 C 27,2 C 49 % 1017,0 hPa 0,0 l/m 2,7 km/h (1 Bft) NW 311 2 min 0,558 mm 5,9 UV-I 844 W/m 17,4 C 29,2 C 8,0 km/h (2 Bft) 95,12 %
02.08.2017 14:02 29,2 C 27,2 C 51 % 1017,0 hPa 0,0 l/m 2,4 km/h (1 Bft) N 360 2 min 0,000 mm 5,7 UV-I 838 W/m 18,0 C 29,2 C 6,4 km/h (2 Bft) 94,64 %
02.08.2017 14:04 29,3 C 27,2 C 50 % 1017,1 hPa 0,0 l/m 3,3 km/h (1 Bft) N-NW 330 2 min 0,000 mm 5,8 UV-I 838 W/m 17,8 C 29,3 C 9,7 km/h (2 Bft) 97,37 %
02.08.2017 14:06 29,4 C 27,2 C 53 % 1017,0 hPa 0,0 l/m 2,3 km/h (1 Bft) NW 306 2 min 0,000 mm 5,9 UV-I 838 W/m 18,8 C 29,4 C 8,0 km/h (2 Bft) 94,34 %
02.08.2017 14:08 29,5 C 27,2 C 52 % 1017,0 hPa 0,0 l/m 2,9 km/h (1 Bft) N-NO 25 2 min 0,000 mm 4,7 UV-I 804 W/m 18,6 C 29,5 C 6,4 km/h (2 Bft) 98,00 %
02.08.2017 14:10 29,5 C 27,2 C 49 % 1017,0 hPa 0,0 l/m 2,9 km/h (1 Bft) N-NO 28 2 min 0,000 mm 4,9 UV-I 770 W/m 17,6 C 29,5 C 9,7 km/h (2 Bft) 92,11 %
02.08.2017 14:12 29,6 C 27,2 C 53 % 1017,0 hPa 0,0 l/m 5,1 km/h (1 Bft) NO 39 2 min 0,000 mm 5,6 UV-I 770 W/m 19,0 C 29,6 C 12,9 km/h (3 Bft) 96,00 %
02.08.2017 14:14 29,7 C 27,2 C 51 % 1016,9 hPa 0,0 l/m 5,2 km/h (1 Bft) N 9 2 min 0,000 mm 5,7 UV-I 852 W/m 18,5 C 29,7 C 8,0 km/h (2 Bft) 94,74 %
02.08.2017 14:16 29,8 C 27,2 C 51 % 1016,9 hPa 0,0 l/m 5,9 km/h (2 Bft) NO 36 2 min 0,000 mm 5,9 UV-I 891 W/m 18,5 C 29,8 C 12,9 km/h (3 Bft) 100,00 %
02.08.2017 14:18 29,9 C 27,2 C 53 % 1016,9 hPa 0,0 l/m 4,6 km/h (1 Bft) N-NO 28 2 min 0,000 mm 5,9 UV-I 896 W/m 19,3 C 29,9 C 12,9 km/h (3 Bft) 97,87 %
02.08.2017 14:20 30,2 C 27,2 C 54 % 1016,8 hPa 0,0 l/m 6,2 km/h (2 Bft) N-NO 29 2 min 0,000 mm 5,9 UV-I 869 W/m 19,8 C 30,2 C 12,9 km/h (3 Bft) 100,00 %
02.08.2017 14:22 30,2 C 27,2 C 52 % 1016,8 hPa 0,0 l/m 3,5 km/h (1 Bft) N 5 2 min 0,000 mm 5,9 UV-I 897 W/m 19,2 C 30,2 C 6,4 km/h (2 Bft) 98,11 %
02.08.2017 14:24 30,0 C 27,2 C 52 % 1016,8 hPa 0,0 l/m 4,7 km/h (1 Bft) N 5 2 min 0,000 mm 5,9 UV-I 909 W/m 19,0 C 30,0 C 8,0 km/h (2 Bft) 97,87 %
02.08.2017 14:26 29,9 C 27,2 C 51 % 1016,7 hPa 0,0 l/m 4,6 km/h (1 Bft) N-NO 26 2 min 0,000 mm 5,6 UV-I 920 W/m 18,6 C 29,9 C 8,0 km/h (2 Bft) 100,00 %
02.08.2017 14:28 29,8 C 27,2 C 53 % 1016,7 hPa 0,0 l/m 2,7 km/h (1 Bft) N-NW 331 2 min 0,000 mm 5,4 UV-I 662 W/m 19,2 C 29,8 C 4,8 km/h (1 Bft) 98,51 %
02.08.2017 14:30 29,7 C 27,2 C 51 % 1016,6 hPa 0,0 l/m 1,8 km/h (1 Bft) N 350 2 min 0,000 mm 5,7 UV-I 921 W/m 18,5 C 29,7 C 4,8 km/h (1 Bft) 97,87 %
02.08.2017 14:32 29,7 C 27,2 C 53 % 1016,6 hPa 0,0 l/m 7,6 km/h (2 Bft) N-NO 19 2 min 0,000 mm 5,5 UV-I 882 W/m 19,1 C 29,6 C 12,9 km/h (3 Bft) 100,00 %
02.08.2017 14:34 29,8 C 27,2 C 53 % 1016,5 hPa 0,0 l/m 3,7 km/h (1 Bft) N-NO 18 2 min 0,000 mm 5,6 UV-I 865 W/m 19,2 C 29,8 C 11,3 km/h (2 Bft) 97,78 %
02.08.2017 14:36 29,9 C 27,2 C 52 % 1016,5 hPa 0,0 l/m 2,1 km/h (1 Bft) NW 304 2 min 0,000 mm 5,4 UV-I 852 W/m 19,0 C 29,9 C 4,8 km/h (1 Bft) 100,00 %
02.08.2017 14:38 29,8 C 27,2 C 48 % 1016,5 hPa 0,0 l/m 2,4 km/h (1 Bft) NO 52 2 min 0,000 mm 4,5 UV-I 613 W/m 17,6 C 29,8 C 4,8 km/h (1 Bft) 100,00 %
02.08.2017 14:40 29,5 C 27,2 C 49 % 1016,5 hPa 0,0 l/m 2,5 km/h (1 Bft) NO 39 2 min 0,000 mm 4,1 UV-I 534 W/m 17,6 C 29,5 C 6,4 km/h (2 Bft) 97,87 %
02.08.2017 14:42 29,6 C 27,2 C 51 % 1016,4 hPa 0,0 l/m 2,0 km/h (1 Bft) NO 39 2 min 0,000 mm 5,0 UV-I 534 W/m 18,4 C 29,6 C 4,8 km/h (1 Bft) 100,00 %
02.08.2017 14:44 29,8 C 27,2 C 53 % 1016,4 hPa 0,0 l/m 6,5 km/h (2 Bft) W-NW 302 2 min 0,000 mm 5,3 UV-I 746 W/m 19,2 C 29,8 C 14,5 km/h (3 Bft) 98,11 %
02.08.2017 14:46 30,1 C 27,2 C 53 % 1016,3 hPa 0,0 l/m 6,8 km/h (2 Bft) N-NO 17 2 min 0,000 mm 5,3 UV-I 814 W/m 19,4 C 30,1 C 12,9 km/h (3 Bft) 95,65 %
02.08.2017 14:48 30,2 C 27,2 C 52 % 1016,3 hPa 0,0 l/m 7,8 km/h (2 Bft) N-NO 30 2 min 0,000 mm 5,2 UV-I 784 W/m 19,2 C 30,1 C 14,5 km/h (3 Bft) 100,00 %
02.08.2017 14:50 29,9 C 27,2 C 50 % 1016,3 hPa 0,0 l/m 3,3 km/h (1 Bft) W-NW 300 2 min 0,000 mm 5,1 UV-I 781 W/m 18,3 C 29,9 C 9,7 km/h (2 Bft) 97,73 %
02.08.2017 14:52 30,1 C 27,2 C 51 % 1016,3 hPa 0,0 l/m 2,2 km/h (1 Bft) NW 314 2 min 0,000 mm 5,1 UV-I 777 W/m 18,8 C 30,1 C 4,8 km/h (1 Bft) 98,00 %
02.08.2017 14:54 30,1 C 27,2 C 51 % 1016,2 hPa 0,0 l/m 2,2 km/h (1 Bft) W-NW 298 2 min 0,000 mm 5,0 UV-I 778 W/m 18,8 C 30,1 C 3,2 km/h (1 Bft) 100,00 %
02.08.2017 14:56 30,1 C 27,2 C 53 % 1016,2 hPa 0,0 l/m 5,1 km/h (1 Bft) NO 40 2 min 0,000 mm 5,0 UV-I 775 W/m 19,4 C 30,1 C 14,5 km/h (3 Bft) 98,11 %
02.08.2017 14:58 30,2 C 27,2 C 51 % 1016,2 hPa 0,0 l/m 6,7 km/h (2 Bft) NW 305 2 min 0,000 mm 5,0 UV-I 780 W/m 18,9 C 30,2 C 9,7 km/h (2 Bft) 100,00 %
02.08.2017 15:00 30,2 C 27,2 C 50 % 1016,3 hPa 0,0 l/m 3,6 km/h (1 Bft) N-NO 19 2 min 0,000 mm 5,0 UV-I 770 W/m 18,6 C 30,2 C 12,9 km/h (3 Bft) 97,56 %
02.08.2017 15:02 30,1 C 27,2 C 48 % 1016,4 hPa 0,0 l/m 7,9 km/h (2 Bft) N-NO 16 2 min 0,559 mm 4,9 UV-I 779 W/m 17,9 C 30,0 C 14,5 km/h (3 Bft) 100,00 %
02.08.2017 15:04 30,3 C 27,2 C 53 % 1016,4 hPa 0,0 l/m 6,0 km/h (2 Bft) N-NO 13 2 min 0,000 mm 4,9 UV-I 775 W/m 19,6 C 30,3 C 14,5 km/h (3 Bft) 95,74 %
02.08.2017 15:06 30,4 C 27,2 C 52 % 1016,3 hPa 0,0 l/m 7,4 km/h (2 Bft) N-NO 24 2 min 0,000 mm 4,8 UV-I 756 W/m 19,4 C 30,3 C 14,5 km/h (3 Bft) 98,00 %
02.08.2017 15:08 30,4 C 27,2 C 49 % 1016,4 hPa 0,0 l/m 7,7 km/h (2 Bft) N-NO 32 2 min 0,000 mm 4,8 UV-I 762 W/m 18,5 C 30,3 C 14,5 km/h (3 Bft) 96,00 %
02.08.2017 15:10 30,3 C 27,2 C 49 % 1016,4 hPa 0,0 l/m 4,2 km/h (1 Bft) NW 323 2 min 0,000 mm 4,7 UV-I 755 W/m 18,4 C 30,3 C 9,7 km/h (2 Bft) 91,49 %
02.08.2017 15:12 30,3 C 27,2 C 49 % 1016,3 hPa 0,0 l/m 3,4 km/h (1 Bft) O-NO 59 2 min 0,000 mm 4,7 UV-I 757 W/m 18,4 C 30,3 C 14,5 km/h (3 Bft) 100,00 %
02.08.2017 15:14 30,4 C 27,2 C 52 % 1016,3 hPa 0,0 l/m 7,7 km/h (2 Bft) NO 51 2 min 0,000 mm 4,6 UV-I 740 W/m 19,4 C 30,3 C 11,3 km/h (2 Bft) 96,43 %
02.08.2017 15:16 30,4 C 27,2 C 49 % 1016,3 hPa 0,0 l/m 5,0 km/h (1 Bft) N-NO 22 2 min 0,000 mm 4,5 UV-I 710 W/m 18,5 C 30,4 C 9,7 km/h (2 Bft) 100,00 %
02.08.2017 15:18 30,3 C 27,2 C 48 % 1016,3 hPa 0,0 l/m 3,7 km/h (1 Bft) N-NO 23 2 min 0,000 mm 4,5 UV-I 749 W/m 18,0 C 30,3 C 8,0 km/h (2 Bft) 98,00 %
02.08.2017 15:20 30,3 C 27,2 C 47 % 1016,3 hPa 0,0 l/m 1,1 km/h (1 Bft) N 10 2 min 0,000 mm 4,5 UV-I 762 W/m 17,7 C 30,3 C 3,2 km/h (1 Bft) 98,21 %
02.08.2017 15:22 30,3 C 27,2 C 48 % 1016,3 hPa 0,0 l/m 0,9 km/h (0 Bft) N 9 2 min 0,000 mm 4,5 UV-I 769 W/m 18,0 C 30,3 C 1,6 km/h (1 Bft) 100,00 %
02.08.2017 15:24 30,3 C 27,2 C 47 % 1016,3 hPa 0,0 l/m 2,6 km/h (1 Bft) W-NW 300 2 min 0,000 mm 4,1 UV-I 668 W/m 17,7 C 30,3 C 4,8 km/h (1 Bft) 100,00 %
02.08.2017 15:26 30,2 C 27,2 C 46 % 1016,2 hPa 0,0 l/m 2,9 km/h (1 Bft) NW 317 2 min 0,000 mm 4,0 UV-I 637 W/m 17,3 C 30,2 C 4,8 km/h (1 Bft) 96,23 %
02.08.2017 15:28 30,2 C 27,2 C 52 % 1016,2 hPa 0,0 l/m 2,3 km/h (1 Bft) N-NO 13 2 min 0,000 mm 3,8 UV-I 603 W/m 19,2 C 30,2 C 4,8 km/h (1 Bft) 95,12 %
02.08.2017 15:30 30,1 C 27,2 C 48 % 1016,2 hPa 0,0 l/m 4,0 km/h (1 Bft) N-NO 22 2 min 0,000 mm 3,7 UV-I 602 W/m 17,9 C 30,1 C 6,4 km/h (2 Bft) 96,00 %
02.08.2017 15:32 30,2 C 27,2 C 50 % 1016,2 hPa 0,0 l/m 2,2 km/h (1 Bft) N 11 2 min 0,000 mm 3,8 UV-I 683 W/m 18,6 C 30,2 C 3,2 km/h (1 Bft) 95,12 %
02.08.2017 15:34 30,3 C 27,2 C 50 % 1016,1 hPa 0,0 l/m 1,6 km/h (1 Bft) NW 325 2 min 0,000 mm 3,8 UV-I 705 W/m 18,7 C 30,3 C 4,8 km/h (1 Bft) 92,00 %
02.08.2017 15:36 30,3 C 27,2 C 48 % 1016,2 hPa 0,0 l/m 1,8 km/h (1 Bft) NW 325 2 min 0,000 mm 3,5 UV-I 653 W/m 18,0 C 30,3 C 4,8 km/h (1 Bft) 92,45 %
02.08.2017 15:38 30,3 C 27,2 C 47 % 1016,2 hPa 0,0 l/m 1,2 km/h (1 Bft) NW 325 2 min 0,000 mm 2,9 UV-I 509 W/m 17,7 C 30,3 C 3,2 km/h (1 Bft) 92,11 %
02.08.2017 15:40 30,2 C 27,2 C 46 % 1016,2 hPa 0,0 l/m 2,1 km/h (1 Bft) NW 324 2 min 0,000 mm 2,6 UV-I 403 W/m 17,3 C 30,2 C 3,2 km/h (1 Bft) 96,23 %
02.08.2017 15:42 30,1 C 27,2 C 48 % 1016,2 hPa 0,0 l/m 2,2 km/h (1 Bft) N-NO 13 2 min 0,000 mm 2,7 UV-I 411 W/m 17,9 C 30,1 C 6,4 km/h (2 Bft) 92,00 %
02.08.2017 15:44 30,2 C 27,2 C 49 % 1016,2 hPa 0,0 l/m 1,6 km/h (1 Bft) NW 309 2 min 0,000 mm 2,6 UV-I 407 W/m 18,3 C 30,2 C 3,2 km/h (1 Bft) 97,56 %
02.08.2017 15:46 30,2 C 27,8 C 49 % 1016,2 hPa 0,0 l/m 0,8 km/h (0 Bft) N 355 0 min 0,000 mm 2,5 UV-I 360 W/m 18,3 C 30,2 C 4,8 km/h (1 Bft) 91,49 %
02.08.2017 15:48 30,2 C 27,8 C 50 % 1016,2 hPa 0,0 l/m 4,7 km/h (1 Bft) N-NO 32 0 min 0,000 mm 2,3 UV-I 323 W/m 18,6 C 30,2 C 8,0 km/h (2 Bft) 94,34 %
02.08.2017 15:50 30,1 C 27,8 C 50 % 1016,2 hPa 0,0 l/m 5,6 km/h (1 Bft) N-NO 26 0 min 0,000 mm 2,3 UV-I 332 W/m 18,5 C 30,1 C 8,0 km/h (2 Bft) 94,74 %
02.08.2017 15:52 30,0 C 27,8 C 52 % 1016,2 hPa 0,0 l/m 5,6 km/h (1 Bft) N-NO 18 0 min 0,000 mm 2,4 UV-I 378 W/m 19,0 C 30,0 C 9,7 km/h (2 Bft) 94,00 %
02.08.2017 15:54 30,0 C 27,8 C 50 % 1016,3 hPa 0,0 l/m 5,2 km/h (1 Bft) N-NO 26 2 min 0,000 mm 2,5 UV-I 390 W/m 18,4 C 30,0 C 9,7 km/h (2 Bft) 94,34 %
02.08.2017 15:56 29,9 C 27,8 C 51 % 1016,3 hPa 0,0 l/m 3,6 km/h (1 Bft) N-NO 16 2 min 0,000 mm 2,4 UV-I 388 W/m 18,6 C 29,9 C 6,4 km/h (2 Bft) 94,74 %
02.08.2017 15:58 29,9 C 27,8 C 52 % 1016,3 hPa 0,0 l/m 0,9 km/h (0 Bft) N 355 2 min 0,000 mm 2,4 UV-I 381 W/m 19,0 C 29,9 C 3,2 km/h (1 Bft) 98,11 %
02.08.2017 16:00 29,9 C 27,8 C 52 % 1016,3 hPa 0,0 l/m 1,0 km/h (0 Bft) W-NW 294 2 min 0,432 mm 2,5 UV-I 429 W/m 19,0 C 29,9 C 3,2 km/h (1 Bft) 95,35 %
02.08.2017 16:02 29,9 C 27,8 C 53 % 1016,3 hPa 0,0 l/m 2,1 km/h (1 Bft) N-NW 348 2 min 0,000 mm 2,9 UV-I 413 W/m 19,3 C 29,9 C 6,4 km/h (2 Bft) 94,00 %
02.08.2017 16:04 30,0 C 27,8 C 51 % 1016,3 hPa 0,0 l/m 1,5 km/h (1 Bft) N-NO 21 2 min 0,000 mm 3,1 UV-I 628 W/m 18,7 C 30,0 C 3,2 km/h (1 Bft) 95,74 %
02.08.2017 16:06 30,1 C 27,8 C 49 % 1016,3 hPa 0,0 l/m 2,7 km/h (1 Bft) N 355 2 min 0,000 mm 3,1 UV-I 654 W/m 18,2 C 30,1 C 4,8 km/h (1 Bft) 96,00 %
02.08.2017 16:08 30,2 C 27,8 C 51 % 1016,3 hPa 0,0 l/m 1,1 km/h (1 Bft) N 11 2 min 0,000 mm 2,8 UV-I 497 W/m 18,9 C 30,2 C 3,2 km/h (1 Bft) 94,29 %
02.08.2017 16:10 30,2 C 27,8 C 49 % 1016,3 hPa 0,0 l/m 1,4 km/h (1 Bft) NO 34 0 min 0,000 mm 2,5 UV-I 362 W/m 18,3 C 30,2 C 3,2 km/h (1 Bft) 98,00 %
02.08.2017 16:12 30,1 C 27,8 C 51 % 1016,3 hPa 0,0 l/m 1,6 km/h (1 Bft) NW 321 2 min 0,000 mm 2,4 UV-I 374 W/m 18,8 C 30,1 C 3,2 km/h (1 Bft) 98,11 %
02.08.2017 16:14 30,1 C 27,8 C 50 % 1016,3 hPa 0,0 l/m 1,3 km/h (1 Bft) N-NW 343 2 min 0,000 mm 2,7 UV-I 484 W/m 18,5 C 30,1 C 3,2 km/h (1 Bft) 97,56 %
02.08.2017 16:16 30,1 C 27,8 C 52 % 1016,3 hPa 0,0 l/m 1,8 km/h (1 Bft) N-NO 13 2 min 0,000 mm 3,0 UV-I 635 W/m 19,1 C 30,1 C 3,2 km/h (1 Bft) 98,11 %
02.08.2017 16:18 30,2 C 27,8 C 49 % 1016,4 hPa 0,0 l/m 0,7 km/h (0 Bft) N 5 2 min 0,000 mm 3,2 UV-I 696 W/m 18,3 C 30,2 C 3,2 km/h (1 Bft) 100,00 %
02.08.2017 16:20 30,3 C 27,8 C 50 % 1016,4 hPa 0,0 l/m 2,0 km/h (1 Bft) N 5 2 min 0,000 mm 3,0 UV-I 624 W/m 18,7 C 30,3 C 4,8 km/h (1 Bft) 95,74 %
02.08.2017 16:22 30,2 C 27,8 C 51 % 1016,4 hPa 0,0 l/m 0,4 km/h (0 Bft) N 5 2 min 0,000 mm 2,8 UV-I 532 W/m 18,9 C 30,2 C 1,6 km/h (1 Bft) 100,00 %
02.08.2017 16:24 30,3 C 27,8 C 50 % 1016,4 hPa 0,0 l/m 2,0 km/h (1 Bft) N-NO 14 2 min 0,000 mm 2,9 UV-I 595 W/m 18,7 C 30,3 C 4,8 km/h (1 Bft) 100,00 %
02.08.2017 16:26 30,3 C 27,8 C 49 % 1016,4 hPa 0,0 l/m 1,3 km/h (1 Bft) N-NO 14 2 min 0,000 mm 2,8 UV-I 568 W/m 18,4 C 30,3 C 3,2 km/h (1 Bft) 97,78 %
02.08.2017 16:28 30,4 C 27,8 C 49 % 1016,5 hPa 0,0 l/m 1,4 km/h (1 Bft) N-NO 16 2 min 0,000 mm 2,7 UV-I 525 W/m 18,5 C 30,4 C 6,4 km/h (2 Bft) 100,00 %
02.08.2017 16:30 30,5 C 27,8 C 49 % 1016,4 hPa 0,0 l/m 5,5 km/h (1 Bft) N-NO 15 2 min 0,000 mm 2,7 UV-I 499 W/m 18,6 C 30,5 C 8,0 km/h (2 Bft) 97,78 %
02.08.2017 16:32 30,4 C 27,8 C 52 % 1016,4 hPa 0,0 l/m 2,2 km/h (1 Bft) N-NO 13 2 min 0,000 mm 2,8 UV-I 521 W/m 19,4 C 30,4 C 6,4 km/h (2 Bft) 98,00 %
02.08.2017 16:34 30,6 C 27,8 C 51 % 1016,4 hPa 0,0 l/m 1,6 km/h (1 Bft) N 5 2 min 0,000 mm 2,8 UV-I 625 W/m 19,3 C 30,6 C 3,2 km/h (1 Bft) 96,15 %
02.08.2017 16:36 30,7 C 27,8 C 50 % 1016,4 hPa 0,0 l/m 1,7 km/h (1 Bft) N-NO 13 2 min 0,000 mm 2,8 UV-I 630 W/m 19,1 C 30,7 C 4,8 km/h (1 Bft) 98,39 %
02.08.2017 16:38 30,7 C 27,8 C 49 % 1016,4 hPa 0,0 l/m 2,3 km/h (1 Bft) N 360 2 min 0,000 mm 2,8 UV-I 633 W/m 18,7 C 30,7 C 4,8 km/h (1 Bft) 97,87 %
02.08.2017 16:40 30,7 C 27,8 C 49 % 1016,4 hPa 0,0 l/m 1,3 km/h (1 Bft) N-NO 13 2 min 0,000 mm 2,8 UV-I 651 W/m 18,7 C 30,7 C 4,8 km/h (1 Bft) 100,00 %
02.08.2017 16:42 30,6 C 27,8 C 47 % 1016,4 hPa 0,0 l/m 4,5 km/h (1 Bft) W 281 2 min 0,000 mm 2,7 UV-I 605 W/m 18,0 C 30,6 C 6,4 km/h (2 Bft) 100,00 %
02.08.2017 16:44 30,6 C 27,8 C 49 % 1016,3 hPa 0,0 l/m 1,8 km/h (1 Bft) NW 310 2 min 0,000 mm 2,4 UV-I 403 W/m 18,6 C 30,6 C 6,4 km/h (2 Bft) 98,00 %
02.08.2017 16:46 30,4 C 27,8 C 49 % 1016,3 hPa 0,0 l/m 2,5 km/h (1 Bft) N-NW 347 2 min 0,000 mm 2,5 UV-I 362 W/m 18,5 C 30,4 C 4,8 km/h (1 Bft) 98,00 %
02.08.2017 16:48 30,3 C 27,8 C 49 % 1016,3 hPa 0,0 l/m 1,0 km/h (0 Bft) N 350 0 min 0,000 mm 2,0 UV-I 251 W/m 18,4 C 30,3 C 3,2 km/h (1 Bft) 98,00 %
02.08.2017 16:50 30,2 C 27,8 C 51 % 1016,2 hPa 0,0 l/m 2,6 km/h (1 Bft) N 5 0 min 0,000 mm 1,7 UV-I 190 W/m 18,9 C 30,2 C 6,4 km/h (2 Bft) 97,37 %
02.08.2017 16:52 30,1 C 27,8 C 50 % 1016,3 hPa 0,0 l/m 1,1 km/h (1 Bft) N-NW 337 0 min 0,000 mm 1,7 UV-I 205 W/m 18,5 C 30,1 C 3,2 km/h (1 Bft) 100,00 %
02.08.2017 16:54 30,0 C 27,8 C 51 % 1016,2 hPa 0,0 l/m 0,7 km/h (0 Bft) N-NW 348 0 min 0,000 mm 2,1 UV-I 227 W/m 18,7 C 30,0 C 3,2 km/h (1 Bft) 100,00 %
02.08.2017 16:56 30,0 C 27,8 C 49 % 1016,2 hPa 0,0 l/m 0,5 km/h (0 Bft) N-NW 348 2 min 0,000 mm 2,3 UV-I 442 W/m 18,1 C 30,0 C 3,2 km/h (1 Bft) 100,00 %
02.08.2017 16:58 30,2 C 27,8 C 50 % 1016,2 hPa 0,0 l/m 0,5 km/h (0 Bft) N-NW 348 2 min 0,000 mm 2,3 UV-I 539 W/m 18,6 C 30,2 C 1,6 km/h (1 Bft) 100,00 %
02.08.2017 17:00 30,3 C 27,8 C 50 % 1016,2 hPa 0,0 l/m 1,2 km/h (1 Bft) N 349 2 min 0,356 mm 2,3 UV-I 560 W/m 18,7 C 30,3 C 3,2 km/h (1 Bft) 97,73 %
02.08.2017 17:02 30,4 C 27,8 C 51 % 1016,2 hPa 0,0 l/m 2,5 km/h (1 Bft) N-NW 343 2 min 0,000 mm 2,2 UV-I 534 W/m 19,1 C 30,4 C 4,8 km/h (1 Bft) 96,00 %
02.08.2017 17:04 30,6 C 27,8 C 51 % 1016,2 hPa 0,0 l/m 1,8 km/h (1 Bft) NW 311 2 min 0,000 mm 2,1 UV-I 509 W/m 19,3 C 30,6 C 3,2 km/h (1 Bft) 96,23 %
02.08.2017 17:06 30,6 C 27,8 C 50 % 1016,2 hPa 0,0 l/m 1,9 km/h (1 Bft) W-NW 299 2 min 0,000 mm 2,0 UV-I 487 W/m 19,0 C 30,6 C 4,8 km/h (1 Bft) 97,62 %
02.08.2017 17:08 30,5 C 27,8 C 50 % 1016,2 hPa 0,0 l/m 1,4 km/h (1 Bft) N-NW 333 2 min 0,000 mm 2,0 UV-I 468 W/m 18,9 C 30,5 C 4,8 km/h (1 Bft) 96,15 %
02.08.2017 17:10 30,4 C 27,8 C 51 % 1016,2 hPa 0,0 l/m 3,5 km/h (1 Bft) N-NO 19 2 min 0,000 mm 1,9 UV-I 472 W/m 19,1 C 30,4 C 6,4 km/h (2 Bft) 97,44 %
02.08.2017 17:12 30,5 C 27,8 C 51 % 1016,3 hPa 0,0 l/m 5,0 km/h (1 Bft) NO 37 2 min 0,000 mm 1,9 UV-I 480 W/m 19,2 C 30,5 C 8,0 km/h (2 Bft) 96,00 %
02.08.2017 17:14 30,6 C 27,8 C 50 % 1016,2 hPa 0,0 l/m 1,8 km/h (1 Bft) NO 34 2 min 0,000 mm 1,9 UV-I 447 W/m 19,0 C 30,6 C 4,8 km/h (1 Bft) 94,34 %
02.08.2017 17:16 30,6 C 27,8 C 50 % 1016,2 hPa 0,0 l/m 4,9 km/h (1 Bft) N-NO 17 2 min 0,000 mm 1,8 UV-I 450 W/m 19,0 C 30,6 C 11,3 km/h (2 Bft) 97,37 %
02.08.2017 17:18 30,7 C 27,8 C 50 % 1016,1 hPa 0,0 l/m 6,7 km/h (2 Bft) N-NO 24 2 min 0,000 mm 1,8 UV-I 476 W/m 19,1 C 30,7 C 12,9 km/h (3 Bft) 97,87 %
02.08.2017 17:20 30,7 C 27,8 C 50 % 1016,2 hPa 0,0 l/m 3,6 km/h (1 Bft) NO 49 2 min 0,000 mm 1,8 UV-I 472 W/m 19,1 C 30,7 C 8,0 km/h (2 Bft) 91,49 %
02.08.2017 17:22 30,8 C 27,8 C 50 % 1016,1 hPa 0,0 l/m 0,9 km/h (0 Bft) NO 37 2 min 0,000 mm 1,7 UV-I 462 W/m 19,1 C 30,8 C 1,6 km/h (1 Bft) 94,34 %
02.08.2017 17:24 30,8 C 27,8 C 50 % 1016,1 hPa 0,0 l/m 1,6 km/h (1 Bft) N-NO 15 2 min 0,000 mm 1,7 UV-I 462 W/m 19,1 C 30,8 C 4,8 km/h (1 Bft) 93,62 %
02.08.2017 17:26 30,8 C 27,8 C 49 % 1016,0 hPa 0,0 l/m 1,2 km/h (1 Bft) NW 310 2 min 0,000 mm 1,6 UV-I 456 W/m 18,8 C 30,8 C 3,2 km/h (1 Bft) 95,45 %
02.08.2017 17:28 30,8 C 27,8 C 52 % 1016,0 hPa 0,0 l/m 4,8 km/h (1 Bft) N-NO 20 2 min 0,000 mm 1,6 UV-I 456 W/m 19,8 C 30,8 C 8,0 km/h (2 Bft) 100,00 %
02.08.2017 17:30 30,8 C 27,8 C 49 % 1015,9 hPa 0,0 l/m 3,9 km/h (1 Bft) N-NO 24 2 min 0,000 mm 1,5 UV-I 478 W/m 18,8 C 30,8 C 8,0 km/h (2 Bft) 97,56 %
02.08.2017 17:32 30,7 C 27,8 C 50 % 1015,9 hPa 0,0 l/m 3,0 km/h (1 Bft) N-NW 345 2 min 0,000 mm 1,3 UV-I 398 W/m 19,1 C 30,7 C 6,4 km/h (2 Bft) 100,00 %
02.08.2017 17:34 30,7 C 27,8 C 50 % 1015,9 hPa 0,0 l/m 4,0 km/h (1 Bft) NO 38 0 min 0,000 mm 1,2 UV-I 181 W/m 19,1 C 30,7 C 8,0 km/h (2 Bft) 97,87 %
02.08.2017 17:36 30,4 C 27,8 C 51 % 1015,9 hPa 0,0 l/m 3,9 km/h (1 Bft) NO 34 0 min 0,000 mm 1,2 UV-I 233 W/m 19,1 C 30,4 C 4,8 km/h (1 Bft) 97,37 %
02.08.2017 17:38 30,3 C 27,8 C 51 % 1015,9 hPa 0,0 l/m 4,6 km/h (1 Bft) NO 34 0 min 0,000 mm 1,2 UV-I 234 W/m 19,0 C 30,3 C 6,4 km/h (2 Bft) 100,00 %
02.08.2017 17:40 30,2 C 27,8 C 50 % 1015,9 hPa 0,0 l/m 3,6 km/h (1 Bft) N-NO 24 0 min 0,000 mm 1,1 UV-I 178 W/m 18,6 C 30,2 C 6,4 km/h (2 Bft) 96,00 %
02.08.2017 17:42 30,2 C 27,8 C 50 % 1015,9 hPa 0,0 l/m 4,3 km/h (1 Bft) NO 35 0 min 0,000 mm 1,2 UV-I 232 W/m 18,6 C 30,2 C 6,4 km/h (2 Bft) 92,59 %
02.08.2017 17:44 30,2 C 27,8 C 51 % 1015,9 hPa 0,0 l/m 3,3 km/h (1 Bft) NO 35 0 min 0,000 mm 1,1 UV-I 196 W/m 18,9 C 30,2 C 4,8 km/h (1 Bft) 97,01 %
02.08.2017 17:46 30,2 C 27,8 C 52 % 1015,9 hPa 0,0 l/m 2,3 km/h (1 Bft) NO 35 0 min 0,000 mm 1,1 UV-I 132 W/m 19,2 C 30,2 C 6,4 km/h (2 Bft) 100,00 %
02.08.2017 17:48 30,2 C 27,8 C 52 % 1015,9 hPa 0,0 l/m 3,3 km/h (1 Bft) NO 35 2 min 0,000 mm 1,3 UV-I 289 W/m 19,2 C 30,2 C 4,8 km/h (1 Bft) 100,00 %
02.08.2017 17:50 30,3 C 27,8 C 53 % 1015,9 hPa 0,0 l/m 4,5 km/h (1 Bft) NO 34 2 min 0,000 mm 1,2 UV-I 393 W/m 19,6 C 30,3 C 6,4 km/h (2 Bft) 97,56 %
02.08.2017 17:52 30,3 C 27,8 C 51 % 1015,8 hPa 0,0 l/m 4,9 km/h (1 Bft) N-NO 24 2 min 0,000 mm 1,1 UV-I 366 W/m 19,0 C 30,3 C 8,0 km/h (2 Bft) 98,11 %
02.08.2017 17:54 30,3 C 27,8 C 51 % 1015,8 hPa 0,0 l/m 2,5 km/h (1 Bft) N-NO 20 2 min 0,000 mm 1,1 UV-I 382 W/m 19,0 C 30,3 C 4,8 km/h (1 Bft) 94,34 %
02.08.2017 17:56 30,3 C 27,8 C 53 % 1015,8 hPa 0,0 l/m 3,3 km/h (1 Bft) N-NO 23 2 min 0,000 mm 1,1 UV-I 374 W/m 19,6 C 30,3 C 8,0 km/h (2 Bft) 97,56 %
02.08.2017 17:58 30,4 C 27,8 C 52 % 1015,7 hPa 0,0 l/m 5,8 km/h (2 Bft) N-NO 21 2 min 0,000 mm 1,1 UV-I 371 W/m 19,4 C 30,4 C 8,0 km/h (2 Bft) 98,11 %
02.08.2017 18:00 30,5 C 27,8 C 51 % 1015,6 hPa 0,0 l/m 2,9 km/h (1 Bft) N-NO 32 2 min 0,000 mm 1,0 UV-I 355 W/m 19,2 C 30,5 C 6,4 km/h (2 Bft) 97,37 %
02.08.2017 18:03 30,6 C 27,8 C 51 % 1015,7 hPa 0,0 l/m 4,4 km/h (1 Bft) N-NO 26 3 min 0,279 mm 1,0 UV-I 375 W/m 19,3 C 30,6 C 8,0 km/h (2 Bft) 92,96 %
02.08.2017 18:04 30,7 C 27,8 C 50 % 1015,7 hPa 0,0 l/m 5,1 km/h (1 Bft) N-NO 26 1 min 0,000 mm 1,0 UV-I 382 W/m 19,1 C 30,7 C 6,4 km/h (2 Bft) 86,96 %
02.08.2017 18:06 30,6 C 27,8 C 52 % 1015,7 hPa 0,0 l/m 2,5 km/h (1 Bft) N-NO 25 2 min 0,000 mm 1,0 UV-I 378 W/m 19,6 C 30,6 C 6,4 km/h (2 Bft) 93,62 %
02.08.2017 18:08 30,6 C 27,8 C 49 % 1015,7 hPa 0,0 l/m 3,2 km/h (1 Bft) N-NO 29 2 min 0,000 mm 1,0 UV-I 370 W/m 18,6 C 30,6 C 6,4 km/h (2 Bft) 98,00 %
02.08.2017 18:10 30,6 C 27,8 C 52 % 1015,6 hPa 0,0 l/m 4,3 km/h (1 Bft) N-NO 31 2 min 0,000 mm 1,0 UV-I 353 W/m 19,6 C 30,6 C 6,4 km/h (2 Bft) 97,37 %
02.08.2017 18:12 30,5 C 27,8 C 53 % 1015,6 hPa 0,0 l/m 5,9 km/h (2 Bft) N-NO 32 2 min 0,000 mm 0,9 UV-I 325 W/m 19,8 C 30,5 C 8,0 km/h (2 Bft) 96,23 %
02.08.2017 18:14 30,5 C 27,8 C 51 % 1015,5 hPa 0,0 l/m 6,3 km/h (2 Bft) N-NO 32 2 min 0,000 mm 0,9 UV-I 320 W/m 19,2 C 30,5 C 8,0 km/h (2 Bft) 98,11 %
02.08.2017 18:16 30,5 C 27,8 C 52 % 1015,5 hPa 0,0 l/m 5,6 km/h (1 Bft) NO 44 2 min 0,000 mm 0,8 UV-I 307 W/m 19,5 C 30,5 C 8,0 km/h (2 Bft) 97,44 %
02.08.2017 18:18 30,6 C 27,8 C 51 % 1015,5 hPa 0,0 l/m 5,2 km/h (1 Bft) NO 45 2 min 0,000 mm 0,8 UV-I 297 W/m 19,3 C 30,6 C 8,0 km/h (2 Bft) 98,00 %
02.08.2017 18:20 30,6 C 27,8 C 51 % 1015,4 hPa 0,0 l/m 6,4 km/h (2 Bft) NO 47 2 min 0,000 mm 0,8 UV-I 283 W/m 19,3 C 30,6 C 8,0 km/h (2 Bft) 96,00 %
02.08.2017 18:22 30,6 C 27,8 C 51 % 1015,4 hPa 0,0 l/m 5,3 km/h (1 Bft) NO 50 2 min 0,000 mm 0,7 UV-I 274 W/m 19,3 C 30,6 C 6,4 km/h (2 Bft) 100,00 %
02.08.2017 18:24 30,5 C 27,8 C 51 % 1015,4 hPa 0,0 l/m 5,4 km/h (1 Bft) N-NO 32 2 min 0,000 mm 0,7 UV-I 257 W/m 19,2 C 30,5 C 6,4 km/h (2 Bft) 92,54 %
02.08.2017 18:26 30,5 C 27,8 C 50 % 1015,4 hPa 0,0 l/m 2,7 km/h (1 Bft) N-NO 26 2 min 0,000 mm 0,7 UV-I 233 W/m 18,9 C 30,5 C 6,4 km/h (2 Bft) 91,49 %
02.08.2017 18:28 30,5 C 27,8 C 52 % 1015,5 hPa 0,0 l/m 6,0 km/h (2 Bft) N-NO 22 2 min 0,000 mm 0,6 UV-I 207 W/m 19,5 C 30,5 C 8,0 km/h (2 Bft) 95,24 %
02.08.2017 18:30 30,4 C 27,8 C 51 % 1015,4 hPa 0,0 l/m 3,9 km/h (1 Bft) N-NO 27 2 min 0,000 mm 0,6 UV-I 207 W/m 19,1 C 30,4 C 6,4 km/h (2 Bft) 93,62 %
02.08.2017 18:32 30,3 C 27,8 C 52 % 1015,4 hPa 0,0 l/m 4,0 km/h (1 Bft) N-NO 24 2 min 0,000 mm 0,6 UV-I 233 W/m 19,3 C 30,3 C 8,0 km/h (2 Bft) 96,23 %
02.08.2017 18:34 30,3 C 27,8 C 51 % 1015,4 hPa 0,0 l/m 5,5 km/h (1 Bft) N-NO 29 2 min 0,000 mm 0,6 UV-I 235 W/m 19,0 C 30,3 C 8,0 km/h (2 Bft) 97,87 %
02.08.2017 18:36 30,3 C 27,8 C 51 % 1015,4 hPa 0,0 l/m 3,8 km/h (1 Bft) N-NO 30 2 min 0,000 mm 0,6 UV-I 219 W/m 19,0 C 30,3 C 4,8 km/h (1 Bft) 97,37 %
02.08.2017 18:38 30,3 C 27,8 C 52 % 1015,4 hPa 0,0 l/m 4,6 km/h (1 Bft) NO 52 2 min 0,000 mm 0,5 UV-I 183 W/m 19,3 C 30,3 C 6,4 km/h (2 Bft) 92,45 %
02.08.2017 18:40 30,3 C 27,8 C 52 % 1015,4 hPa 0,0 l/m 5,4 km/h (1 Bft) N-NO 26 2 min 0,000 mm 0,5 UV-I 200 W/m 19,3 C 30,3 C 6,4 km/h (2 Bft) 95,12 %
02.08.2017 18:42 30,3 C 27,8 C 53 % 1015,4 hPa 0,0 l/m 5,5 km/h (1 Bft) NO 36 2 min 0,000 mm 0,5 UV-I 202 W/m 19,6 C 30,3 C 8,0 km/h (2 Bft) 89,29 %
02.08.2017 18:44 30,2 C 27,8 C 53 % 1015,5 hPa 0,0 l/m 4,5 km/h (1 Bft) N-NO 20 2 min 0,000 mm 0,4 UV-I 173 W/m 19,5 C 30,2 C 6,4 km/h (2 Bft) 94,74 %
02.08.2017 18:46 30,2 C 27,8 C 52 % 1015,5 hPa 0,0 l/m 5,4 km/h (1 Bft) NO 40 2 min 0,000 mm 0,0 UV-I 199 W/m 19,2 C 30,2 C 8,0 km/h (2 Bft) 94,00 %
02.08.2017 18:48 30,2 C 27,8 C 52 % 1015,4 hPa 0,0 l/m 5,1 km/h (1 Bft) NO 43 2 min 0,000 mm 0,0 UV-I 211 W/m 19,2 C 30,2 C 8,0 km/h (2 Bft) 97,87 %
02.08.2017 18:50 30,2 C 27,8 C 53 % 1015,4 hPa 0,0 l/m 3,8 km/h (1 Bft) N-NO 26 2 min 0,000 mm 0,0 UV-I 216 W/m 19,5 C 30,2 C 6,4 km/h (2 Bft) 96,00 %
02.08.2017 18:52 30,2 C 27,8 C 55 % 1015,4 hPa 0,0 l/m 3,8 km/h (1 Bft) N-NO 26 2 min 0,000 mm 0,0 UV-I 220 W/m 20,1 C 30,2 C 8,0 km/h (2 Bft) 94,29 %
02.08.2017 18:54 30,3 C 27,8 C 53 % 1015,4 hPa 0,0 l/m 2,9 km/h (1 Bft) N-NO 21 2 min 0,000 mm 0,0 UV-I 222 W/m 19,6 C 30,3 C 4,8 km/h (1 Bft) 92,86 %
02.08.2017 18:56 30,3 C 27,8 C 53 % 1015,5 hPa 0,0 l/m 2,9 km/h (1 Bft) N 10 2 min 0,000 mm 0,0 UV-I 230 W/m 19,6 C 30,3 C 4,8 km/h (1 Bft) 100,00 %
02.08.2017 18:58 30,3 C 27,8 C 53 % 1015,5 hPa 0,0 l/m 4,6 km/h (1 Bft) NO 38 2 min 0,000 mm 0,0 UV-I 227 W/m 19,6 C 30,3 C 9,7 km/h (2 Bft) 94,34 %
02.08.2017 19:00 30,3 C 27,8 C 51 % 1015,4 hPa 0,0 l/m 6,6 km/h (2 Bft) O-NO 74 2 min 0,000 mm 0,0 UV-I 223 W/m 19,0 C 30,3 C 9,7 km/h (2 Bft) 97,56 %
02.08.2017 19:02 30,3 C 27,8 C 52 % 1015,5 hPa 0,0 l/m 5,0 km/h (1 Bft) NO 54 2 min 0,229 mm 0,0 UV-I 219 W/m 19,3 C 30,3 C 8,0 km/h (2 Bft) 91,67 %
02.08.2017 19:04 30,3 C 27,8 C 51 % 1015,5 hPa 0,0 l/m 6,6 km/h (2 Bft) NO 55 2 min 0,000 mm 0,0 UV-I 211 W/m 19,0 C 30,3 C 9,7 km/h (2 Bft) 98,00 %
02.08.2017 19:06 30,2 C 27,8 C 52 % 1015,5 hPa 0,0 l/m 8,5 km/h (2 Bft) NO 55 2 min 0,000 mm 0,0 UV-I 199 W/m 19,2 C 30,0 C 12,9 km/h (3 Bft) 98,00 %
02.08.2017 19:08 30,2 C 27,8 C 51 % 1015,5 hPa 0,0 l/m 6,2 km/h (2 Bft) O 82 2 min 0,000 mm 0,0 UV-I 189 W/m 18,9 C 30,2 C 8,0 km/h (2 Bft) 97,56 %
02.08.2017 19:10 30,2 C 27,8 C 52 % 1015,5 hPa 0,0 l/m 6,6 km/h (2 Bft) NO 55 2 min 0,000 mm 0,0 UV-I 179 W/m 19,2 C 30,2 C 8,0 km/h (2 Bft) 98,00 %
02.08.2017 19:12 30,2 C 27,8 C 51 % 1015,5 hPa 0,0 l/m 5,6 km/h (1 Bft) O-NO 69 2 min 0,000 mm 0,0 UV-I 167 W/m 18,9 C 30,2 C 8,0 km/h (2 Bft) 96,00 %
02.08.2017 19:14 30,2 C 27,8 C 51 % 1015,4 hPa 0,0 l/m 3,8 km/h (1 Bft) O-NO 60 2 min 0,000 mm 0,0 UV-I 136 W/m 18,9 C 30,2 C 6,4 km/h (2 Bft) 100,00 %
02.08.2017 19:16 30,1 C 27,8 C 51 % 1015,5 hPa 0,0 l/m 5,6 km/h (1 Bft) O-NO 63 2 min 0,000 mm 0,0 UV-I 143 W/m 18,8 C 30,1 C 8,0 km/h (2 Bft) 100,00 %
02.08.2017 19:18 30,1 C 27,8 C 52 % 1015,4 hPa 0,0 l/m 6,6 km/h (2 Bft) O-NO 67 2 min 0,000 mm 0,0 UV-I 138 W/m 19,1 C 30,1 C 9,7 km/h (2 Bft) 94,34 %
02.08.2017 19:20 30,1 C 27,8 C 51 % 1015,5 hPa 0,0 l/m 6,6 km/h (2 Bft) O-NO 67 2 min 0,000 mm 0,0 UV-I 132 W/m 18,8 C 30,1 C 11,3 km/h (2 Bft) 100,00 %
02.08.2017 19:22 30,0 C 27,8 C 52 % 1015,5 hPa 0,0 l/m 7,6 km/h (2 Bft) O-NO 73 2 min 0,000 mm 0,0 UV-I 125 W/m 19,0 C 29,9 C 11,3 km/h (2 Bft) 98,11 %
02.08.2017 19:24 29,9 C 27,8 C 51 % 1015,4 hPa 0,0 l/m 6,5 km/h (2 Bft) O-NO 78 2 min 0,000 mm 0,0 UV-I 119 W/m 18,6 C 29,9 C 9,7 km/h (2 Bft) 100,00 %
02.08.2017 19:26 29,9 C 27,8 C 52 % 1015,4 hPa 0,0 l/m 6,8 km/h (2 Bft) NO 56 2 min 0,000 mm 0,0 UV-I 113 W/m 19,0 C 29,9 C 8,0 km/h (2 Bft) 94,74 %
02.08.2017 19:28 29,8 C 27,8 C 54 % 1015,4 hPa 0,0 l/m 6,9 km/h (2 Bft) O-NO 74 2 min 0,000 mm 0,0 UV-I 108 W/m 19,5 C 29,8 C 12,9 km/h (3 Bft) 98,11 %
02.08.2017 19:30 29,8 C 27,8 C 52 % 1015,4 hPa 0,0 l/m 5,7 km/h (1 Bft) O-NO 63 2 min 0,000 mm 0,0 UV-I 104 W/m 18,9 C 29,8 C 6,4 km/h (2 Bft) 100,00 %
02.08.2017 19:32 29,7 C 27,8 C 54 % 1015,4 hPa 0,0 l/m 4,6 km/h (1 Bft) O-NO 66 2 min 0,000 mm 0,0 UV-I 102 W/m 19,4 C 29,7 C 6,4 km/h (2 Bft) 95,12 %
02.08.2017 19:34 29,6 C 27,8 C 54 % 1015,4 hPa 0,0 l/m 4,8 km/h (1 Bft) O-NO 63 2 min 0,000 mm 0,0 UV-I 96 W/m 19,3 C 29,6 C 6,4 km/h (2 Bft) 98,00 %
02.08.2017 19:36 29,6 C 27,8 C 54 % 1015,4 hPa 0,0 l/m 3,1 km/h (1 Bft) O-NO 63 2 min 0,000 mm 0,0 UV-I 90 W/m 19,3 C 29,6 C 4,8 km/h (1 Bft) 98,00 %
02.08.2017 19:38 29,5 C 27,8 C 55 % 1015,5 hPa 0,0 l/m 4,5 km/h (1 Bft) S-SO 162 2 min 0,000 mm 0,0 UV-I 86 W/m 19,5 C 29,5 C 8,0 km/h (2 Bft) 97,37 %
02.08.2017 19:40 29,4 C 27,8 C 53 % 1015,5 hPa 0,0 l/m 8,2 km/h (2 Bft) S-SO 154 0 min 0,000 mm 0,0 UV-I 75 W/m 18,8 C 29,2 C 16,1 km/h (3 Bft) 97,78 %
02.08.2017 19:42 29,2 C 27,8 C 50 % 1015,6 hPa 0,0 l/m 8,8 km/h (2 Bft) S 171 0 min 0,000 mm 0,0 UV-I 73 W/m 17,7 C 28,9 C 16,1 km/h (3 Bft) 98,11 %
02.08.2017 19:44 29,0 C 27,8 C 50 % 1015,5 hPa 0,0 l/m 6,4 km/h (2 Bft) S-SO 157 2 min 0,000 mm 0,0 UV-I 73 W/m 17,5 C 29,0 C 12,9 km/h (3 Bft) 93,75 %
02.08.2017 19:46 28,8 C 27,8 C 50 % 1015,5 hPa 0,0 l/m 5,9 km/h (2 Bft) S-SO 163 2 min 0,000 mm 0,0 UV-I 69 W/m 17,3 C 28,8 C 11,3 km/h (2 Bft) 97,73 %
02.08.2017 19:48 28,6 C 27,8 C 51 % 1015,6 hPa 0,0 l/m 6,9 km/h (2 Bft) S-SO 149 0 min 0,000 mm 0,0 UV-I 63 W/m 17,4 C 28,5 C 12,9 km/h (3 Bft) 100,00 %
02.08.2017 19:50 28,4 C 27,8 C 49 % 1015,5 hPa 0,0 l/m 8,2 km/h (2 Bft) SO 144 0 min 0,000 mm 0,0 UV-I 51 W/m 16,6 C 28,1 C 17,7 km/h (3 Bft) 100,00 %
02.08.2017 19:52 28,3 C 27,8 C 49 % 1015,5 hPa 0,0 l/m 8,1 km/h (2 Bft) S 170 0 min 0,000 mm 0,0 UV-I 44 W/m 16,5 C 28,1 C 14,5 km/h (3 Bft) 100,00 %
02.08.2017 19:54 28,2 C 27,8 C 50 % 1015,5 hPa 0,0 l/m 5,9 km/h (2 Bft) S-SO 149 0 min 0,000 mm 0,0 UV-I 40 W/m 16,8 C 28,2 C 12,9 km/h (3 Bft) 97,37 %
02.08.2017 19:56 28,1 C 27,8 C 50 % 1015,5 hPa 0,0 l/m 5,2 km/h (1 Bft) S-SO 165 0 min 0,000 mm 0,0 UV-I 37 W/m 16,7 C 28,1 C 9,7 km/h (2 Bft) 96,00 %
02.08.2017 19:58 27,9 C 27,8 C 50 % 1015,6 hPa 0,0 l/m 4,0 km/h (1 Bft) S 171 0 min 0,000 mm 0,0 UV-I 33 W/m 16,5 C 27,9 C 8,0 km/h (2 Bft) 96,00 %
02.08.2017 20:00 27,8 C 27,8 C 51 % 1015,5 hPa 0,0 l/m 4,8 km/h (1 Bft) S-SW 195 0 min 0,000 mm 0,0 UV-I 27 W/m 16,7 C 27,8 C 9,7 km/h (2 Bft) 97,87 %
02.08.2017 20:02 27,6 C 27,8 C 51 % 1015,6 hPa 0,0 l/m 4,2 km/h (1 Bft) S-SW 205 0 min 0,127 mm 0,0 UV-I 24 W/m 16,5 C 27,6 C 9,7 km/h (2 Bft) 92,68 %
02.08.2017 20:04 27,5 C 27,8 C 51 % 1015,6 hPa 0,0 l/m 5,9 km/h (2 Bft) S 169 0 min 0,000 mm 0,0 UV-I 21 W/m 16,4 C 27,5 C 9,7 km/h (2 Bft) 98,11 %
02.08.2017 20:06 27,3 C 27,8 C 52 % 1015,6 hPa 0,0 l/m 5,5 km/h (1 Bft) S 174 0 min 0,000 mm 0,0 UV-I 19 W/m 16,6 C 27,3 C 9,7 km/h (2 Bft) 97,56 %
02.08.2017 20:08 27,2 C 27,8 C 52 % 1015,5 hPa 0,0 l/m 6,5 km/h (2 Bft) S-SO 162 0 min 0,000 mm 0,0 UV-I 17 W/m 16,5 C 27,2 C 9,7 km/h (2 Bft) 100,00 %
02.08.2017 20:10 27,1 C 27,8 C 52 % 1015,5 hPa 0,0 l/m 6,9 km/h (2 Bft) S 188 0 min 0,000 mm 0,0 UV-I 16 W/m 16,4 C 27,0 C 12,9 km/h (3 Bft) 95,74 %
02.08.2017 20:12 27,1 C 27,8 C 53 % 1015,5 hPa 0,0 l/m 5,0 km/h (1 Bft) S-SO 151 0 min 0,000 mm 0,0 UV-I 15 W/m 16,7 C 27,1 C 8,0 km/h (2 Bft) 100,00 %
02.08.2017 20:14 26,9 C 27,8 C 53 % 1015,6 hPa 0,0 l/m 4,0 km/h (1 Bft) S 182 0 min 0,000 mm 0,0 UV-I 14 W/m 16,5 C 26,9 C 6,4 km/h (2 Bft) 98,11 %
02.08.2017 20:16 26,8 C 27,8 C 53 % 1015,6 hPa 0,0 l/m 4,7 km/h (1 Bft) S-SW 209 0 min 0,000 mm 0,0 UV-I 13 W/m 16,4 C 26,8 C 9,7 km/h (2 Bft) 95,74 %
02.08.2017 20:20 26,6 C 27,8 C 54 % 1015,6 hPa 0,0 l/m 5,5 km/h (1 Bft) S-SW 206 0 min 0,000 mm 0,0 UV-I 12 W/m 16,5 C 26,6 C 8,0 km/h (2 Bft) 97,83 %
02.08.2017 20:22 26,6 C 27,8 C 54 % 1015,5 hPa 0,0 l/m 5,1 km/h (1 Bft) S 180 0 min 0,000 mm 0,0 UV-I 12 W/m 16,5 C 26,6 C 9,7 km/h (2 Bft) 100,00 %
02.08.2017 20:24 26,5 C 27,8 C 54 % 1015,5 hPa 0,0 l/m 5,7 km/h (1 Bft) S 179 0 min 0,000 mm 0,0 UV-I 11 W/m 16,4 C 26,5 C 8,0 km/h (2 Bft) 96,00 %
02.08.2017 20:26 26,4 C 27,8 C 54 % 1015,5 hPa 0,0 l/m 6,4 km/h (2 Bft) S-SW 205 2 min 0,000 mm 0,0 UV-I 11 W/m 16,3 C 26,4 C 14,5 km/h (3 Bft) 97,56 %
02.08.2017 20:28 26,3 C 27,8 C 55 % 1015,6 hPa 0,0 l/m 6,2 km/h (2 Bft) S 183 0 min 0,000 mm 0,0 UV-I 10 W/m 16,5 C 26,3 C 11,3 km/h (2 Bft) 96,43 %
02.08.2017 20:30 26,3 C 27,8 C 55 % 1015,6 hPa 0,0 l/m 4,7 km/h (1 Bft) S-SW 195 0 min 0,000 mm 0,0 UV-I 9 W/m 16,5 C 26,3 C 8,0 km/h (2 Bft) 97,87 %
02.08.2017 20:32 26,2 C 27,8 C 56 % 1015,6 hPa 0,0 l/m 3,2 km/h (1 Bft) S-SW 203 0 min 0,000 mm 0,0 UV-I 9 W/m 16,7 C 26,2 C 6,4 km/h (2 Bft) 92,11 %
02.08.2017 20:34 26,1 C 27,8 C 56 % 1015,6 hPa 0,0 l/m 3,8 km/h (1 Bft) S 175 0 min 0,000 mm 0,0 UV-I 7 W/m 16,6 C 26,1 C 8,0 km/h (2 Bft) 96,23 %
02.08.2017 20:36 26,1 C 27,8 C 56 % 1015,6 hPa 0,0 l/m 4,0 km/h (1 Bft) S 176 0 min 0,000 mm 0,0 UV-I 7 W/m 16,6 C 26,1 C 6,4 km/h (2 Bft) 93,18 %
02.08.2017 20:38 26,0 C 27,8 C 56 % 1015,6 hPa 0,0 l/m 4,8 km/h (1 Bft) S 169 0 min 0,000 mm 0,0 UV-I 7 W/m 16,5 C 26,0 C 8,0 km/h (2 Bft) 96,23 %
02.08.2017 20:40 25,9 C 27,8 C 55 % 1015,7 hPa 0,0 l/m 5,4 km/h (1 Bft) S-SO 167 0 min 0,000 mm 0,0 UV-I 5 W/m 16,2 C 25,9 C 9,7 km/h (2 Bft) 97,37 %
02.08.2017 20:42 25,9 C 27,8 C 56 % 1015,7 hPa 0,0 l/m 5,2 km/h (1 Bft) S 169 0 min 0,000 mm 0,0 UV-I 5 W/m 16,4 C 25,9 C 11,3 km/h (2 Bft) 94,34 %
02.08.2017 20:44 25,9 C 27,8 C 56 % 1015,7 hPa 0,0 l/m 3,6 km/h (1 Bft) S-SO 165 0 min 0,000 mm 0,0 UV-I 5 W/m 16,4 C 25,9 C 6,4 km/h (2 Bft) 98,00 %
02.08.2017 20:46 25,8 C 27,8 C 56 % 1015,7 hPa 0,0 l/m 4,1 km/h (1 Bft) S-SO 153 0 min 0,000 mm 0,0 UV-I 5 W/m 16,3 C 25,8 C 8,0 km/h (2 Bft) 97,22 %
02.08.2017 20:48 25,8 C 27,8 C 56 % 1015,7 hPa 0,0 l/m 3,9 km/h (1 Bft) S 172 0 min 0,000 mm 0,0 UV-I 5 W/m 16,3 C 25,8 C 9,7 km/h (2 Bft) 94,83 %
02.08.2017 20:50 25,8 C 27,8 C 56 % 1015,8 hPa 0,0 l/m 3,5 km/h (1 Bft) S 176 0 min 0,000 mm 0,0 UV-I 3 W/m 16,3 C 25,8 C 6,4 km/h (2 Bft) 97,62 %
02.08.2017 20:52 25,7 C 27,8 C 55 % 1015,8 hPa 0,0 l/m 3,2 km/h (1 Bft) S 181 0 min 0,000 mm 0,0 UV-I 0 W/m 16,0 C 25,7 C 6,4 km/h (2 Bft) 94,00 %
02.08.2017 20:54 25,7 C 27,8 C 55 % 1015,8 hPa 0,0 l/m 3,4 km/h (1 Bft) S-SO 161 0 min 0,000 mm 0,0 UV-I 0 W/m 16,0 C 25,7 C 6,4 km/h (2 Bft) 97,37 %
02.08.2017 20:56 25,7 C 27,8 C 55 % 1015,8 hPa 0,0 l/m 3,6 km/h (1 Bft) S-SO 157 0 min 0,000 mm 0,0 UV-I 0 W/m 16,0 C 25,7 C 8,0 km/h (2 Bft) 94,34 %
02.08.2017 20:58 25,7 C 27,8 C 55 % 1015,8 hPa 0,0 l/m 3,9 km/h (1 Bft) S-SO 167 0 min 0,000 mm 0,0 UV-I 0 W/m 16,0 C 25,7 C 8,0 km/h (2 Bft) 97,87 %
02.08.2017 21:00 25,6 C 27,8 C 56 % 1015,9 hPa 0,0 l/m 3,7 km/h (1 Bft) S 177 0 min 0,050 mm 0,0 UV-I 0 W/m 16,2 C 25,6 C 6,4 km/h (2 Bft) 100,00 %
02.08.2017 21:02 25,4 C 27,8 C 56 % 1015,9 hPa 0,0 l/m 2,5 km/h (1 Bft) S 177 0 min 0,000 mm 0,0 UV-I 0 W/m 16,0 C 25,4 C 3,2 km/h (1 Bft) 100,00 %
02.08.2017 21:04 25,4 C 27,2 C 56 % 1016,0 hPa 0,0 l/m 2,2 km/h (1 Bft) S 177 0 min 0,000 mm 0,0 UV-I 0 W/m 16,0 C 25,4 C 3,2 km/h (1 Bft) 98,00 %
02.08.2017 21:06 25,3 C 27,2 C 57 % 1016,0 hPa 0,0 l/m 2,2 km/h (1 Bft) S 177 0 min 0,000 mm 0,0 UV-I 0 W/m 16,2 C 25,3 C 4,8 km/h (1 Bft) 97,14 %
02.08.2017 21:08 25,2 C 27,2 C 57 % 1016,0 hPa 0,0 l/m 3,4 km/h (1 Bft) S 170 0 min 0,000 mm 0,0 UV-I 0 W/m 16,1 C 25,2 C 6,4 km/h (2 Bft) 96,61 %
02.08.2017 21:10 25,2 C 27,2 C 57 % 1016,0 hPa 0,0 l/m 3,5 km/h (1 Bft) S 184 0 min 0,000 mm 0,0 UV-I 0 W/m 16,1 C 25,2 C 6,4 km/h (2 Bft) 91,30 %
02.08.2017 21:12 25,1 C 27,2 C 57 % 1016,1 hPa 0,0 l/m 5,1 km/h (1 Bft) S 177 0 min 0,000 mm 0,0 UV-I 0 W/m 16,0 C 25,1 C 9,7 km/h (2 Bft) 98,53 %
02.08.2017 21:14 25,0 C 27,2 C 57 % 1016,1 hPa 0,0 l/m 4,3 km/h (1 Bft) S 180 0 min 0,000 mm 0,0 UV-I 0 W/m 15,9 C 25,0 C 8,0 km/h (2 Bft) 100,00 %
02.08.2017 21:16 24,9 C 27,2 C 58 % 1016,1 hPa 0,0 l/m 4,7 km/h (1 Bft) S 184 0 min 0,000 mm 0,0 UV-I 0 W/m 16,1 C 24,9 C 8,0 km/h (2 Bft) 97,87 %
02.08.2017 21:18 24,9 C 27,2 C 58 % 1016,1 hPa 0,0 l/m 4,1 km/h (1 Bft) S-SW 194 0 min 0,000 mm 0,0 UV-I 0 W/m 16,1 C 24,9 C 8,0 km/h (2 Bft) 100,00 %
02.08.2017 21:20 24,8 C 27,2 C 59 % 1016,2 hPa 0,0 l/m 5,6 km/h (1 Bft) S-SW 198 0 min 0,000 mm 0,0 UV-I 0 W/m 16,2 C 24,8 C 9,7 km/h (2 Bft) 91,67 %
02.08.2017 21:23 24,7 C 27,2 C 59 % 1016,2 hPa 0,0 l/m 4,0 km/h (1 Bft) S-SW 196 0 min 0,000 mm 0,0 UV-I 0 W/m 16,1 C 24,7 C 6,4 km/h (2 Bft) 95,88 %
02.08.2017 21:24 24,7 C 27,2 C 59 % 1016,2 hPa 0,0 l/m 3,7 km/h (1 Bft) S-SW 200 0 min 0,000 mm 0,0 UV-I 0 W/m 16,1 C 24,7 C 4,8 km/h (1 Bft) 100,00 %
02.08.2017 21:26 24,6 C 27,2 C 60 % 1016,2 hPa 0,0 l/m 4,2 km/h (1 Bft) S 175 0 min 0,000 mm 0,0 UV-I 0 W/m 16,3 C 24,6 C 4,8 km/h (1 Bft) 96,23 %
02.08.2017 21:28 24,5 C 27,2 C 60 % 1016,2 hPa 0,0 l/m 3,3 km/h (1 Bft) S 184 0 min 0,000 mm 0,0 UV-I 0 W/m 16,2 C 24,5 C 4,8 km/h (1 Bft) 98,00 %
02.08.2017 21:30 24,4 C 27,2 C 61 % 1016,2 hPa 0,0 l/m 4,0 km/h (1 Bft) S-SW 206 0 min 0,000 mm 0,0 UV-I 0 W/m 16,4 C 24,4 C 6,4 km/h (2 Bft) 94,00 %
02.08.2017 21:32 24,3 C 27,2 C 61 % 1016,2 hPa 0,0 l/m 3,5 km/h (1 Bft) S 190 0 min 0,000 mm 0,0 UV-I 0 W/m 16,3 C 24,3 C 6,4 km/h (2 Bft) 95,74 %
02.08.2017 21:34 24,3 C 27,2 C 62 % 1016,2 hPa 0,0 l/m 2,8 km/h (1 Bft) S 178 0 min 0,000 mm 0,0 UV-I 0 W/m 16,5 C 24,3 C 4,8 km/h (1 Bft) 97,37 %
02.08.2017 21:36 24,2 C 27,2 C 61 % 1016,2 hPa 0,0 l/m 4,1 km/h (1 Bft) S 184 0 min 0,000 mm 0,0 UV-I 0 W/m 16,2 C 24,2 C 6,4 km/h (2 Bft) 94,00 %
02.08.2017 21:38 24,2 C 27,2 C 62 % 1016,2 hPa 0,0 l/m 4,0 km/h (1 Bft) S 179 0 min 0,000 mm 0,0 UV-I 0 W/m 16,4 C 24,2 C 8,0 km/h (2 Bft) 98,11 %
02.08.2017 21:40 24,2 C 27,2 C 62 % 1016,3 hPa 0,0 l/m 4,1 km/h (1 Bft) S-SW 194 0 min 0,000 mm 0,0 UV-I 0 W/m 16,4 C 24,2 C 8,0 km/h (2 Bft) 92,68 %
02.08.2017 21:42 24,1 C 27,2 C 62 % 1016,3 hPa 0,0 l/m 4,0 km/h (1 Bft) S 189 0 min 0,000 mm 0,0 UV-I 0 W/m 16,4 C 24,1 C 6,4 km/h (2 Bft) 97,87 %
02.08.2017 21:44 24,1 C 27,2 C 63 % 1016,3 hPa 0,0 l/m 3,7 km/h (1 Bft) S 188 0 min 0,000 mm 0,0 UV-I 0 W/m 16,6 C 24,1 C 6,4 km/h (2 Bft) 97,87 %
02.08.2017 21:46 24,0 C 27,2 C 63 % 1016,3 hPa 0,0 l/m 3,2 km/h (1 Bft) S 188 0 min 0,000 mm 0,0 UV-I 0 W/m 16,5 C 24,0 C 4,8 km/h (1 Bft) 96,00 %
02.08.2017 21:48 23,9 C 27,2 C 64 % 1016,4 hPa 0,0 l/m 3,7 km/h (1 Bft) S-SW 196 0 min 0,000 mm 0,0 UV-I 0 W/m 16,7 C 23,9 C 4,8 km/h (1 Bft) 94,74 %
02.08.2017 21:50 23,8 C 27,2 C 64 % 1016,4 hPa 0,0 l/m 3,5 km/h (1 Bft) S-SW 194 0 min 0,000 mm 0,0 UV-I 0 W/m 16,6 C 23,8 C 4,8 km/h (1 Bft) 98,11 %
02.08.2017 21:52 23,8 C 27,2 C 65 % 1016,4 hPa 0,0 l/m 2,6 km/h (1 Bft) S-SW 194 0 min 0,000 mm 0,0 UV-I 0 W/m 16,8 C 23,8 C 4,8 km/h (1 Bft) 90,00 %
02.08.2017 21:54 23,7 C 27,2 C 64 % 1016,3 hPa 0,0 l/m 2,8 km/h (1 Bft) S-SW 194 0 min 0,000 mm 0,0 UV-I 0 W/m 16,5 C 23,7 C 6,4 km/h (2 Bft) 97,56 %
02.08.2017 21:56 23,6 C 27,2 C 65 % 1016,3 hPa 0,0 l/m 3,3 km/h (1 Bft) S-SW 194 0 min 0,000 mm 0,0 UV-I 0 W/m 16,6 C 23,6 C 4,8 km/h (1 Bft) 95,74 %
02.08.2017 21:58 23,5 C 27,2 C 65 % 1016,3 hPa 0,0 l/m 1,3 km/h (1 Bft) S-SW 194 0 min 0,000 mm 0,0 UV-I 0 W/m 16,5 C 23,5 C 3,2 km/h (1 Bft) 94,00 %
02.08.2017 22:00 23,4 C 27,2 C 66 % 1016,3 hPa 0,0 l/m 0,0 km/h (0 Bft) S-SW 194 0 min 0,000 mm 0,0 UV-I 0 W/m 16,7 C 23,4 C 0,0 km/h (0 Bft) 95,56 %
02.08.2017 22:02 23,2 C 27,2 C 67 % 1016,3 hPa 0,0 l/m 0,0 km/h (0 Bft) S-SW 194 0 min 0,026 mm 0,0 UV-I 0 W/m 16,7 C 23,2 C 0,0 km/h (0 Bft) 93,62 %
02.08.2017 22:04 23,1 C 27,2 C 67 % 1016,3 hPa 0,0 l/m 0,2 km/h (0 Bft) S-SW 194 0 min 0,000 mm 0,0 UV-I 0 W/m 16,6 C 23,1 C 1,6 km/h (1 Bft) 92,68 %
02.08.2017 22:06 22,9 C 27,2 C 67 % 1016,3 hPa 0,0 l/m 0,5 km/h (0 Bft) S-SW 194 0 min 0,000 mm 0,0 UV-I 0 W/m 16,4 C 22,9 C 1,6 km/h (1 Bft) 96,43 %
02.08.2017 22:08 22,8 C 27,2 C 68 % 1016,3 hPa 0,0 l/m 0,0 km/h (0 Bft) S-SW 194 0 min 0,000 mm 0,0 UV-I 0 W/m 16,6 C 22,8 C 0,0 km/h (0 Bft) 97,87 %
02.08.2017 22:10 22,8 C 27,2 C 68 % 1016,3 hPa 0,0 l/m 0,0 km/h (0 Bft) S-SW 194 0 min 0,000 mm 0,0 UV-I 0 W/m 16,6 C 22,8 C 0,0 km/h (0 Bft) 93,62 %
02.08.2017 22:12 22,8 C 27,2 C 68 % 1016,3 hPa 0,0 l/m 0,4 km/h (0 Bft) S-SW 194 0 min 0,000 mm 0,0 UV-I 0 W/m 16,6 C 22,8 C 1,6 km/h (1 Bft) 94,87 %
02.08.2017 22:14 22,8 C 27,2 C 68 % 1016,3 hPa 0,0 l/m 0,0 km/h (0 Bft) S-SW 194 0 min 0,000 mm 0,0 UV-I 0 W/m 16,6 C 22,8 C 0,0 km/h (0 Bft) 96,00 %
02.08.2017 22:16 22,8 C 27,2 C 68 % 1016,3 hPa 0,0 l/m 0,0 km/h (0 Bft) S-SW 194 0 min 0,000 mm 0,0 UV-I 0 W/m 16,6 C 22,8 C 0,0 km/h (0 Bft) 93,62 %
02.08.2017 22:18 22,8 C 27,2 C 68 % 1016,3 hPa 0,0 l/m 0,0 km/h (0 Bft) S-SW 194 0 min 0,000 mm 0,0 UV-I 0 W/m 16,6 C 22,8 C 0,0 km/h (0 Bft) 92,00 %
02.08.2017 22:20 22,6 C 27,2 C 69 % 1016,3 hPa 0,0 l/m 0,0 km/h (0 Bft) S-SW 194 0 min 0,000 mm 0,0 UV-I 0 W/m 16,6 C 22,6 C 0,0 km/h (0 Bft) 95,12 %
02.08.2017 22:22 22,4 C 27,2 C 70 % 1016,3 hPa 0,0 l/m 0,0 km/h (0 Bft) S-SW 194 0 min 0,000 mm 0,0 UV-I 0 W/m 16,7 C 22,4 C 0,0 km/h (0 Bft) 97,14 %
02.08.2017 22:24 22,2 C 27,2 C 70 % 1016,3 hPa 0,0 l/m 1,5 km/h (1 Bft) S-SW 194 0 min 0,000 mm 0,0 UV-I 0 W/m 16,5 C 22,2 C 3,2 km/h (1 Bft) 95,16 %
02.08.2017 22:26 22,2 C 27,2 C 70 % 1016,3 hPa 0,0 l/m 2,0 km/h (1 Bft) S-SW 194 0 min 0,000 mm 0,0 UV-I 0 W/m 16,5 C 22,2 C 3,2 km/h (1 Bft) 95,74 %
02.08.2017 22:28 22,2 C 27,2 C 71 % 1016,3 hPa 0,0 l/m 1,5 km/h (1 Bft) S-SW 194 0 min 0,000 mm 0,0 UV-I 0 W/m 16,7 C 22,2 C 3,2 km/h (1 Bft) 98,00 %
02.08.2017 22:30 22,1 C 27,2 C 71 % 1016,3 hPa 0,0 l/m 0,5 km/h (0 Bft) S-SW 194 0 min 0,000 mm 0,0 UV-I 0 W/m 16,6 C 22,1 C 1,6 km/h (1 Bft) 95,12 %
02.08.2017 22:32 21,9 C 27,2 C 72 % 1016,3 hPa 0,0 l/m 0,0 km/h (0 Bft) S-SW 194 0 min 0,000 mm 0,0 UV-I 0 W/m 16,6 C 21,9 C 0,0 km/h (0 Bft) 95,74 %
02.08.2017 22:34 21,8 C 27,2 C 73 % 1016,4 hPa 0,0 l/m 0,0 km/h (0 Bft) S-SW 194 0 min 0,000 mm 0,0 UV-I 0 W/m 16,7 C 21,8 C 0,0 km/h (0 Bft) 92,00 %
02.08.2017 22:36 21,7 C 27,2 C 72 % 1016,4 hPa 0,0 l/m 2,0 km/h (1 Bft) S-SW 194 0 min 0,000 mm 0,0 UV-I 0 W/m 16,4 C 21,7 C 4,8 km/h (1 Bft) 96,00 %
02.08.2017 22:38 21,6 C 27,2 C 73 % 1016,3 hPa 0,0 l/m 5,1 km/h (1 Bft) S 169 0 min 0,000 mm 0,0 UV-I 0 W/m 16,5 C 21,6 C 6,4 km/h (2 Bft) 97,37 %
02.08.2017 22:40 21,4 C 27,2 C 74 % 1016,3 hPa 0,0 l/m 5,5 km/h (1 Bft) S 169 0 min 0,000 mm 0,0 UV-I 0 W/m 16,6 C 21,4 C 6,4 km/h (2 Bft) 96,00 %
02.08.2017 22:42 21,3 C 27,2 C 74 % 1016,3 hPa 0,0 l/m 4,4 km/h (1 Bft) S 169 0 min 0,000 mm 0,0 UV-I 0 W/m 16,5 C 21,3 C 6,4 km/h (2 Bft) 96,00 %
02.08.2017 22:44 21,3 C 27,2 C 75 % 1016,3 hPa 0,0 l/m 3,9 km/h (1 Bft) S 169 0 min 0,000 mm 0,0 UV-I 0 W/m 16,7 C 21,3 C 6,4 km/h (2 Bft) 96,00 %
02.08.2017 22:46 21,2 C 27,2 C 76 % 1016,3 hPa 0,0 l/m 3,4 km/h (1 Bft) S 169 0 min 0,000 mm 0,0 UV-I 0 W/m 16,8 C 21,2 C 6,4 km/h (2 Bft) 91,67 %
02.08.2017 22:48 21,0 C 27,2 C 76 % 1016,3 hPa 0,0 l/m 1,2 km/h (1 Bft) S 169 0 min 0,000 mm 0,0 UV-I 0 W/m 16,6 C 21,0 C 3,2 km/h (1 Bft) 98,00 %
02.08.2017 22:50 20,9 C 27,2 C 76 % 1016,3 hPa 0,0 l/m 0,5 km/h (0 Bft) S 176 0 min 0,000 mm 0,0 UV-I 0 W/m 16,5 C 20,9 C 3,2 km/h (1 Bft) 98,08 %
02.08.2017 22:52 21,1 C 27,2 C 77 % 1016,4 hPa 0,0 l/m 3,4 km/h (1 Bft) W-SW 244 0 min 0,000 mm 0,0 UV-I 0 W/m 16,9 C 21,1 C 4,8 km/h (1 Bft) 100,00 %
02.08.2017 22:54 21,1 C 27,2 C 77 % 1016,4 hPa 0,0 l/m 3,1 km/h (1 Bft) W-SW 252 0 min 0,000 mm 0,0 UV-I 0 W/m 16,9 C 21,1 C 4,8 km/h (1 Bft) 100,00 %
02.08.2017 22:56 21,1 C 27,2 C 77 % 1016,4 hPa 0,0 l/m 2,9 km/h (1 Bft) W-SW 255 0 min 0,000 mm 0,0 UV-I 0 W/m 16,9 C 21,1 C 4,8 km/h (1 Bft) 94,00 %
02.08.2017 22:58 21,1 C 27,2 C 77 % 1016,4 hPa 0,0 l/m 2,4 km/h (1 Bft) W-SW 255 0 min 0,000 mm 0,0 UV-I 0 W/m 16,9 C 21,1 C 3,2 km/h (1 Bft) 97,87 %
02.08.2017 23:00 21,1 C 27,2 C 76 % 1016,4 hPa 0,0 l/m 1,1 km/h (1 Bft) W-SW 255 0 min 0,025 mm 0,0 UV-I 0 W/m 16,7 C 21,1 C 1,6 km/h (1 Bft) 98,00 %
02.08.2017 23:02 21,2 C 27,2 C 77 % 1016,4 hPa 0,0 l/m 2,0 km/h (1 Bft) W-SW 255 0 min 0,000 mm 0,0 UV-I 0 W/m 17,0 C 21,2 C 3,2 km/h (1 Bft) 97,37 %
02.08.2017 23:04 21,2 C 27,2 C 77 % 1016,4 hPa 0,0 l/m 2,3 km/h (1 Bft) W-SW 255 0 min 0,000 mm 0,0 UV-I 0 W/m 17,0 C 21,2 C 3,2 km/h (1 Bft) 100,00 %
02.08.2017 23:06 21,2 C 27,2 C 77 % 1016,3 hPa 0,0 l/m 1,9 km/h (1 Bft) W-SW 255 0 min 0,000 mm 0,0 UV-I 0 W/m 17,0 C 21,2 C 3,2 km/h (1 Bft) 97,87 %
02.08.2017 23:08 21,1 C 27,2 C 78 % 1016,4 hPa 0,0 l/m 1,1 km/h (1 Bft) W-SW 255 0 min 0,000 mm 0,0 UV-I 0 W/m 17,1 C 21,1 C 1,6 km/h (1 Bft) 97,87 %
02.08.2017 23:10 20,9 C 27,2 C 78 % 1016,4 hPa 0,0 l/m 1,2 km/h (1 Bft) W-SW 255 0 min 0,000 mm 0,0 UV-I 0 W/m 16,9 C 20,9 C 3,2 km/h (1 Bft) 100,00 %
02.08.2017 23:13 20,8 C 27,2 C 79 % 1016,4 hPa 0,0 l/m 2,2 km/h (1 Bft) W-SW 255 0 min 0,000 mm 0,0 UV-I 0 W/m 17,0 C 20,8 C 3,2 km/h (1 Bft) 98,65 %
02.08.2017 23:14 20,8 C 27,2 C 78 % 1016,4 hPa 0,0 l/m 3,1 km/h (1 Bft) W-SW 255 0 min 0,000 mm 0,0 UV-I 0 W/m 16,8 C 20,8 C 4,8 km/h (1 Bft) 100,00 %
02.08.2017 23:16 20,8 C 27,2 C 78 % 1016,5 hPa 0,0 l/m 3,2 km/h (1 Bft) W-SW 255 0 min 0,000 mm 0,0 UV-I 0 W/m 16,8 C 20,8 C 4,8 km/h (1 Bft) 97,87 %
02.08.2017 23:18 20,8 C 27,2 C 78 % 1016,5 hPa 0,0 l/m 1,4 km/h (1 Bft) W-SW 255 0 min 0,000 mm 0,0 UV-I 0 W/m 16,8 C 20,8 C 3,2 km/h (1 Bft) 98,00 %
02.08.2017 23:20 20,8 C 27,2 C 78 % 1016,5 hPa 0,0 l/m 1,1 km/h (1 Bft) W-SW 255 0 min 0,000 mm 0,0 UV-I 0 W/m 16,8 C 20,8 C 3,2 km/h (1 Bft) 97,37 %
02.08.2017 23:22 20,8 C 27,2 C 78 % 1016,5 hPa 0,0 l/m 2,0 km/h (1 Bft) W-SW 255 0 min 0,000 mm 0,0 UV-I 0 W/m 16,8 C 20,8 C 3,2 km/h (1 Bft) 96,00 %
02.08.2017 23:24 20,8 C 27,2 C 77 % 1016,5 hPa 0,0 l/m 2,3 km/h (1 Bft) W-SW 255 0 min 0,000 mm 0,0 UV-I 0 W/m 16,6 C 20,8 C 4,8 km/h (1 Bft) 98,00 %
02.08.2017 23:26 20,9 C 27,2 C 77 % 1016,5 hPa 0,0 l/m 2,2 km/h (1 Bft) SW 220 0 min 0,000 mm 0,0 UV-I 0 W/m 16,7 C 20,9 C 3,2 km/h (1 Bft) 98,00 %
02.08.2017 23:28 20,9 C 27,2 C 77 % 1016,5 hPa 0,0 l/m 2,5 km/h (1 Bft) SW 219 0 min 0,000 mm 0,0 UV-I 0 W/m 16,7 C 20,9 C 4,8 km/h (1 Bft) 97,44 %
02.08.2017 23:30 20,9 C 27,2 C 77 % 1016,5 hPa 0,0 l/m 1,3 km/h (1 Bft) SW 219 0 min 0,000 mm 0,0 UV-I 0 W/m 16,7 C 20,9 C 3,2 km/h (1 Bft) 98,08 %
02.08.2017 23:32 20,8 C 27,2 C 77 % 1016,4 hPa 0,0 l/m 1,2 km/h (1 Bft) SW 219 0 min 0,000 mm 0,0 UV-I 0 W/m 16,6 C 20,8 C 3,2 km/h (1 Bft) 97,78 %
02.08.2017 23:34 20,8 C 27,2 C 77 % 1016,5 hPa 0,0 l/m 1,0 km/h (0 Bft) SW 219 0 min 0,000 mm 0,0 UV-I 0 W/m 16,6 C 20,8 C 3,2 km/h (1 Bft) 97,87 %
02.08.2017 23:36 20,7 C 27,2 C 78 % 1016,5 hPa 0,0 l/m 2,0 km/h (1 Bft) SW 219 0 min 0,000 mm 0,0 UV-I 0 W/m 16,7 C 20,7 C 3,2 km/h (1 Bft) 97,56 %
02.08.2017 23:38 20,6 C 27,2 C 78 % 1016,4 hPa 0,0 l/m 2,3 km/h (1 Bft) SW 219 0 min 0,000 mm 0,0 UV-I 0 W/m 16,6 C 20,6 C 4,8 km/h (1 Bft) 97,87 %
02.08.2017 23:40 20,6 C 27,2 C 78 % 1016,5 hPa 0,0 l/m 1,4 km/h (1 Bft) SW 219 0 min 0,000 mm 0,0 UV-I 0 W/m 16,6 C 20,6 C 3,2 km/h (1 Bft) 98,00 %
02.08.2017 23:42 20,6 C 27,2 C 78 % 1016,5 hPa 0,0 l/m 0,7 km/h (0 Bft) SW 219 0 min 0,000 mm 0,0 UV-I 0 W/m 16,6 C 20,6 C 1,6 km/h (1 Bft) 97,87 %
02.08.2017 23:44 20,6 C 27,2 C 77 % 1016,5 hPa 0,0 l/m 1,0 km/h (0 Bft) SW 219 0 min 0,000 mm 0,0 UV-I 0 W/m 16,4 C 20,6 C 3,2 km/h (1 Bft) 96,00 %
02.08.2017 23:46 20,6 C 27,2 C 77 % 1016,4 hPa 0,0 l/m 1,0 km/h (0 Bft) SW 219 0 min 0,000 mm 0,0 UV-I 0 W/m 16,4 C 20,6 C 3,2 km/h (1 Bft) 100,00 %
02.08.2017 23:48 20,6 C 27,2 C 77 % 1016,6 hPa 0,0 l/m 1,0 km/h (0 Bft) SW 219 0 min 0,000 mm 0,0 UV-I 0 W/m 16,4 C 20,6 C 3,2 km/h (1 Bft) 97,37 %
02.08.2017 23:50 20,7 C 27,2 C 77 % 1016,6 hPa 0,0 l/m 1,2 km/h (1 Bft) SW 219 0 min 0,000 mm 0,0 UV-I 0 W/m 16,5 C 20,7 C 3,2 km/h (1 Bft) 100,00 %
02.08.2017 23:52 20,7 C 27,2 C 77 % 1016,5 hPa 0,0 l/m 0,7 km/h (0 Bft) SW 219 0 min 0,000 mm 0,0 UV-I 0 W/m 16,5 C 20,7 C 1,6 km/h (1 Bft) 98,00 %
02.08.2017 23:54 20,8 C 27,2 C 77 % 1016,6 hPa 0,0 l/m 0,2 km/h (0 Bft) SW 219 0 min 0,000 mm 0,0 UV-I 0 W/m 16,6 C 20,8 C 1,6 km/h (1 Bft) 100,00 %
02.08.2017 23:56 20,7 C 27,2 C 77 % 1016,5 hPa 0,0 l/m 0,4 km/h (0 Bft) SW 219 0 min 0,000 mm 0,0 UV-I 0 W/m 16,5 C 20,7 C 1,6 km/h (1 Bft) 97,87 %
02.08.2017 23:58 20,6 C 27,2 C 77 % 1016,5 hPa 0,0 l/m 0,6 km/h (0 Bft) SW 219 0 min 0,000 mm 0,0 UV-I 0 W/m 16,4 C 20,6 C 3,2 km/h (1 Bft) 95,74 %
_ Min-Zeit 23:38 06:58 15:26 00:52 - 22:00 - - - - - - 21:14 06:38 22:00 10:24
Minimum _ 20,6 C 25,6 C 46 % 1012,7 hPa - 0,0 km/h (0 Bft) - - - - - - 15,9 C 18,1 C 0,0 km/h (0 Bft) 82,35 %
_ Max-Zeit 17:30 15:46 05:28 07:34 00:00 00:02 - - 07:13 13:00 13:52 14:30 18:52 17:22 00:02 00:00
Maximum _ 30,9 C 27,8 C 84 % 1019,9 hPa 0,0 l/m 40,6 km/h
W-NW (6 Bft)
- - 3 min 0,559 mm 6,2 UV-I 921 W/m 20,1 C 30,8 C 62,8 km/h
W (8 Bft)
100,00 %
Durchschnitt _ 25,2 C 26,8 C 65 % 1016,5 hPa #0,0 l/m 5,5 km/h (1 Bft) W-SW - #10:00 h #4,902 mm 3,6 UV-I 421 W/m 17,9 C 24,9 C 9,7 km/h (2 Bft) 97,22 %